[[{"header":{"parameterUnit":"m.s-1","parameterCategory":1,"la1":30.6,"la2":28.766,"lo1":-90.7593,"lo2":-88.6598,"dx":0.0162,"dy":0.0183,"nx":116,"ny":114,"refTime":"2022-12-20T00:00:00:Z","depth":0,"parameterNumber":2,"parameterNumberName":"U-component_of_WINDS"},"data":[0.0,0.0,0.0,0.0,0.0,0.0,0.0,0.0,0.0,0.0,0.0,0.0,0.0,0.0,0.0,0.0,0.0,0.0,0.0,0.0,0.0,0.0,0.0,0.0,0.0,0.0,0.0,0.0,0.0,0.0,0.0,0.0,0.0,0.0,0.0,0.0,0.0,0.0,0.0,0.0,0.0,0.0,0.0,0.0,0.0,0.0,0.0,0.0,0.0,0.0,0.0,0.0,0.0,0.0,0.0,0.0,0.0,0.0,0.0,0.0,0.0,0.0,0.0,0.0,0.0,0.0,0.0,0.0,0.0,0.0,0.0,0.0,0.0,0.0,0.0,0.0,0.0,0.0,0.0,0.0,0.0,0.0,0.0,0.0,0.0,0.0,0.0,0.0,0.0,0.0,0.0,0.0,0.0,0.0,0.0,0.0,0.0,0.0,0.0,0.0,0.0,0.0,0.0,0.0,0.0,0.0,0.0,0.0,0.0,0.0,0.0,0.0,0.0,0.0,0.0,0.0,0.0,0.0,0.0,0.0,0.0,0.0,0.0,0.0,0.0,0.0,0.0,0.0,0.0,0.0,0.0,0.0,0.0,0.0,0.0,0.0,0.0,0.0,0.0,0.0,0.0,0.0,0.0,0.0,0.0,0.0,0.0,0.0,0.0,0.0,0.0,0.0,0.0,0.0,0.0,0.0,0.0,0.0,0.0,0.0,0.0,0.0,0.0,0.0,0.0,0.0,0.0,0.0,0.0,0.0,0.0,0.0,0.0,0.0,0.0,0.0,0.0,0.0,0.0,0.0,0.0,0.0,0.0,0.0,0.0,0.0,0.0,0.0,0.0,0.0,0.0,0.0,0.0,0.0,0.0,0.0,0.0,0.0,0.0,0.0,0.0,0.0,0.0,0.0,0.0,0.0,0.0,0.0,0.0,0.0,0.0,0.0,0.0,0.0,0.0,0.0,0.0,0.0,0.0,0.0,0.0,0.0,0.0,0.0,0.0,0.0,0.0,0.0,0.0,0.0,0.0,0.0,0.0,0.0,0.0,0.0,0.0,0.0,0.0,0.0,0.0,0.0,0.0,0.0,0.0,0.0,0.0,0.0,0.0,0.0,0.0,0.0,0.0,0.0,0.0,0.0,0.0,0.0,0.0,0.0,0.0,0.0,0.0,0.0,0.0,0.0,0.0,0.0,0.0,0.0,0.0,0.0,0.0,0.0,0.0,0.0,0.0,0.0,0.0,0.0,0.0,0.0,0.0,0.0,0.0,0.0,0.0,0.0,0.0,0.0,0.0,0.0,0.0,0.0,0.0,0.0,0.0,0.0,0.0,0.0,0.0,0.0,0.0,0.0,0.0,0.0,0.0,0.0,0.0,0.0,0.0,0.0,0.0,0.0,0.0,0.0,0.0,0.0,0.0,0.0,0.0,0.0,0.0,0.0,0.0,0.0,0.0,0.0,0.0,0.0,0.0,0.0,0.0,0.0,0.0,0.0,0.0,0.0,0.0,0.0,0.0,0.0,0.0,0.0,0.0,0.0,0.0,0.0,0.0,0.0,0.0,0.0,0.0,0.0,0.0,0.0,0.0,0.0,0.0,0.0,0.0,0.0,0.0,0.0,0.0,0.0,0.0,0.0,0.0,0.0,0.0,0.0,0.0,0.0,0.0,0.0,0.0,0.0,0.0,0.0,0.0,0.0,0.0,0.0,0.0,0.0,0.0,0.0,0.0,0.0,0.0,0.0,0.0,0.0,0.0,0.0,0.0,0.0,0.0,0.0,0.0,0.0,0.0,0.0,0.0,0.0,0.0,0.0,0.0,0.0,0.0,0.0,0.0,0.0,0.0,0.0,0.0,0.0,0.0,0.0,0.0,0.0,0.0,0.0,0.0,0.0,0.0,0.0,0.0,0.0,0.0,0.0,0.0,0.0,0.0,0.0,0.0,0.0,0.0,0.0,0.0,0.0,0.0,0.0,0.0,0.0,0.0,0.0,0.0,0.0,0.0,0.0,0.0,0.0,0.0,0.0,0.0,0.0,0.0,0.0,0.0,0.0,0.0,0.0,0.0,0.0,0.0,0.0,0.0,0.0,0.0,0.0,0.0,0.0,0.0,0.0,0.0,0.0,0.0,0.0,0.0,0.0,0.0,0.0,0.0,0.0,0.0,0.0,0.0,0.0,0.0,0.0,0.0,0.0,0.0,0.0,0.0,0.0,0.0,0.0,0.0,0.0,0.0,0.0,0.0,0.0,0.0,0.0,0.0,0.0,0.0,0.0,0.0,0.0,0.0,0.0,0.0,0.0,0.0,0.0,0.0,0.0,0.0,0.0,0.0,0.0,0.0,0.0,0.0,0.0,0.0,0.0,0.0,0.0,0.0,0.0,0.0,0.0,0.0,0.0,0.0,0.0,0.0,0.0,0.0,0.0,0.0,0.0,0.0,0.0,0.0,0.0,0.0,0.0,0.0,0.0,0.0,0.0,0.0,0.0,0.0,0.0,0.0,0.0,0.0,0.0,0.0,0.0,0.0,0.0,0.0,0.0,0.0,0.0,0.0,0.0,0.0,0.0,0.0,0.0,0.0,0.0,0.0,0.0,0.0,0.0,0.0,0.0,0.0,0.0,0.0,0.0,0.0,0.0,0.0,0.0,0.0,0.0,0.0,0.0,0.0,0.0,0.0,0.0,0.0,0.0,0.0,0.0,0.0,0.0,0.0,0.0,0.0,0.0,0.0,0.0,0.0,0.0,0.0,0.0,0.0,0.0,0.0,0.0,0.0,0.0,0.0,0.0,0.0,0.0,0.0,0.0,0.0,0.0,0.0,0.0,0.0,0.0,0.0,0.0,0.0,0.0,0.0,0.0,0.0,0.0,0.0,0.0,0.0,0.0,0.0,0.0,0.0,0.0,0.0,0.0,0.0,0.0,0.0,0.0,0.0,0.0,0.0,0.0,0.0,0.0,0.0,0.0,0.0,0.0,0.0,0.0,0.0,0.0,0.0,0.0,0.0,0.0,0.0,0.0,0.0,0.0,0.0,0.0,0.0,0.0,0.0,0.0,0.0,0.0,0.0,0.0,0.0,0.0,0.0,0.0,0.0,0.0,0.0,0.0,0.0,0.0,0.0,0.0,0.0,0.0,0.0,0.0,0.0,0.0,0.0,0.0,0.0,0.0,0.0,0.0,0.0,0.0,0.0,0.0,0.0,0.0,0.0,0.0,0.0,0.0,0.0,0.0,0.0,0.0,0.0,0.0,0.0,0.0,0.0,0.0,0.0,0.0,0.0,0.0,0.0,0.0,0.0,0.0,0.0,0.0,0.0,0.0,0.0,0.0,0.0,0.0,0.0,0.0,0.0,0.0,0.0,0.0,0.0,0.0,0.0,0.0,0.0,0.0,0.0,0.0,0.0,0.0,0.0,0.0,0.0,0.0,0.0,0.0,0.0,0.0,0.0,0.0,0.0,0.0,0.0,0.0,0.0,0.0,0.0,0.0,0.0,0.0,0.0,0.0,0.0,0.0,0.0,0.0,0.0,0.0,0.0,0.0,0.0,0.0,0.0,0.0,0.0,0.0,0.0,0.0,0.0,0.0,0.0,0.0,0.0,0.0,0.0,0.0,0.0,0.0,0.0,0.0,0.0,0.0,0.0,0.0,0.0,0.0,0.0,0.0,0.0,0.0,0.0,0.0,0.0,0.0,0.0,0.0,0.0,0.0,0.0,0.0,0.0,0.0,0.0,0.0,0.0,0.0,0.0,0.0,0.0,0.0,0.0,0.0,0.0,0.0,0.0,0.0,0.0,0.0,0.0,0.0,0.0,0.0,0.0,0.0,0.0,0.0,0.0,0.0,0.0,0.0,0.0,0.0,0.0,0.0,0.0,0.0,0.0,0.0,0.0,0.0,0.0,0.0,0.0,0.0,0.0,0.0,0.0,0.0,0.0,0.0,0.0,0.0,0.0,0.0,0.0,0.0,0.0,0.0,0.0,0.0,0.0,0.0,0.0,0.0,0.0,0.0,0.0,0.0,0.0,0.0,0.0,0.0,0.0,0.0,0.0,0.0,0.0,0.0,0.0,0.0,0.0,0.0,0.0,0.0,0.0,0.0,0.0,0.0,0.0,0.0,0.0,0.0,0.0,0.0,0.0,0.0,0.0,0.0,0.0,0.0,0.0,0.0,0.0,0.0,0.0,0.0,0.0,0.0,0.0,0.0,0.0,0.0,0.0,0.0,0.0,0.0,0.0,0.0,0.0,0.0,0.0,0.0,0.0,0.0,0.0,0.0,0.0,0.0,0.0,0.0,0.0,0.0,0.0,0.0,0.0,0.0,0.0,0.0,0.0,0.0,0.0,0.0,0.0,0.0,0.0,0.0,0.0,0.0,0.0,0.0,0.0,0.0,0.0,0.0,0.0,0.0,0.0,0.0,0.0,0.0,0.0,0.0,0.0,0.0,0.0,0.0,0.0,0.0,0.0,0.0,0.0,0.0,0.0,0.0,0.0,0.0,0.0,0.0,0.0,0.0,0.0,0.0,0.0,0.0,0.0,0.0,0.0,0.0,0.0,0.0,0.0,0.0,0.0,0.0,0.0,0.0,0.0,0.0,0.0,0.0,0.0,0.0,0.0,0.0,0.0,0.0,0.0,0.0,0.0,0.0,0.0,0.0,0.0,0.0,0.0,0.0,0.0,0.0,0.0,0.0,0.0,0.0,0.0,0.0,0.0,0.0,0.0,0.0,0.0,0.0,0.0,0.0,0.0,0.0,0.0,0.0,0.0,0.0,0.0,0.0,0.0,0.0,0.0,0.0,0.0,0.0,0.0,0.0,0.0,0.0,0.0,0.0,0.0,0.0,0.0,0.0,0.0,0.0,0.0,0.0,0.0,0.0,0.0,0.0,0.0,0.0,0.0,0.0,0.0,0.0,0.0,0.0,0.0,0.0,0.0,0.0,0.0,0.0,0.0,0.0,0.0,0.0,0.0,0.0,0.0,0.0,0.0,0.0,0.0,0.0,0.0,0.0,0.0,0.0,0.0,0.0,0.0,0.0,0.0,0.0,0.0,0.0,0.0,0.0,0.0,0.0,0.0,0.0,0.0,0.0,0.0,0.0,0.0,0.0,0.0,0.0,0.0,0.0,0.0,0.0,0.0,0.0,0.0,0.0,0.0,0.0,0.0,0.0,0.0,0.0,0.0,0.0,0.0,0.0,0.0,0.0,0.0,0.0,0.0,0.0,0.0,0.0,0.0,0.0,0.0,0.0,0.0,0.0,0.0,0.0,0.0,0.0,0.0,0.0,0.0,0.0,0.0,0.0,0.0,0.0,0.0,0.0,0.0,0.0,0.0,0.0,0.0,0.0,0.0,0.0,0.0,0.0,0.0,0.0,0.0,0.0,0.0,0.0,0.0,0.0,0.0,0.0,0.0,0.0,0.0,0.0,0.0,0.0,0.0,0.0,0.0,0.0,0.0,0.0,0.0,0.0,0.0,0.0,0.0,0.0,0.0,0.0,0.0,0.0,0.0,0.0,0.0,0.0,0.0,0.0,0.0,0.0,0.0,0.0,0.0,0.0,0.0,0.0,0.0,0.0,0.0,0.0,0.0,0.0,0.0,0.0,0.0,0.0,0.0,0.0,0.0,0.0,0.0,0.0,0.0,0.0,0.0,0.0,0.0,0.0,0.0,0.0,0.0,0.0,0.0,0.0,0.0,0.0,0.0,0.0,0.0,0.0,0.0,0.0,0.0,0.0,0.0,0.0,0.0,0.0,0.0,0.0,0.0,0.0,0.0,0.0,0.0,0.0,0.0,0.0,0.0,0.0,0.0,0.0,0.0,0.0,0.0,0.0,0.0,0.0,0.0,0.0,0.0,0.0,0.0,0.0,0.0,0.0,0.0,0.0,0.0,0.0,0.0,0.0,0.0,0.0,0.0,0.0,0.0,0.0,0.0,0.0,0.0,0.0,0.0,0.0,0.0,0.0,0.0,0.0,0.0,0.0,0.0,0.0,0.0,0.0,0.0,0.0,0.0,0.0,0.0,0.0,0.0,0.0,0.0,0.0,0.0,0.0,0.0,0.0,0.0,0.0,0.0,0.0,0.0,0.0,0.0,0.0,0.0,0.0,0.0,0.0,6.5831,0.0,0.0,0.0,0.0,0.0,0.0,0.0,0.0,0.0,0.0,0.0,0.0,0.0,0.0,0.0,0.0,0.0,0.0,0.0,0.0,0.0,0.0,0.0,0.0,3.2036,3.2273,3.2273,3.2273,0.0,0.0,0.0,0.0,0.0,0.0,0.0,0.0,0.0,0.0,0.0,0.0,4.4485,4.9932,4.7158,4.4756,4.2625,0.0,0.0,0.0,0.0,0.0,0.0,0.0,0.0,0.0,0.0,0.0,0.0,0.0,0.0,0.0,0.0,0.0,0.0,0.0,0.0,0.0,0.0,0.0,0.0,0.0,0.0,0.0,0.0,0.0,0.0,0.0,0.0,0.0,0.0,0.0,0.0,0.0,0.0,0.0,0.0,0.0,0.0,0.0,0.0,0.0,0.0,0.0,0.0,0.0,0.0,0.0,0.0,0.0,0.0,0.0,0.0,0.0,0.0,0.0,0.0,0.0,0.0,0.0,0.0,0.0,0.0,0.0,0.0,0.0,0.0,0.0,6.7083,0.0,0.0,0.0,0.0,0.0,0.0,0.0,0.0,0.0,0.0,0.0,0.0,0.0,0.0,0.0,0.0,0.0,0.0,0.0,0.0,0.0,3.2713,3.2848,3.3423,3.3795,3.3795,3.3795,3.3795,3.3795,3.3931,0.0,0.0,0.0,0.0,0.0,0.0,0.0,0.0,0.0,0.0,5.5581,5.6325,0.0,0.0,0.0,0.0,0.0,0.0,0.0,0.0,0.0,0.0,0.0,0.0,0.0,0.0,0.0,0.0,0.0,0.0,0.0,0.0,0.0,0.0,0.0,0.0,0.0,0.0,0.0,0.0,0.0,0.0,0.0,0.0,0.0,0.0,0.0,0.0,0.0,0.0,0.0,0.0,0.0,0.0,0.0,0.0,0.0,0.0,0.0,0.0,0.0,0.0,0.0,0.0,0.0,0.0,0.0,0.0,0.0,0.0,0.0,0.0,0.0,0.0,0.0,0.0,0.0,0.0,7.51,7.554,7.6183,7.6792,7.713,7.7063,7.3747,7.3341,7.4627,0.0,0.0,0.0,0.0,0.0,0.0,0.0,0.0,0.0,0.0,0.0,0.0,0.0,0.0,0.0,0.0,0.0,0.0,0.0,0.0,3.4438,3.5115,3.525,3.5318,3.5318,3.5318,3.5318,3.5318,3.596,0.0,0.0,0.0,0.0,0.0,0.0,0.0,0.0,0.0,0.0,5.9404,6.0182,6.0182,5.937,0.0,0.0,0.0,0.0,0.0,0.0,0.0,0.0,0.0,0.0,0.0,0.0,0.0,0.0,0.0,0.0,0.0,0.0,0.0,0.0,0.0,0.0,0.0,0.0,0.0,0.0,0.0,0.0,0.0,0.0,0.0,0.0,0.0,0.0,0.0,0.0,0.0,0.0,0.0,0.0,0.0,0.0,0.0,0.0,5.8152,6.0452,0.0,0.0,0.0,0.0,0.0,0.0,0.0,0.0,0.0,0.0,0.0,0.0,0.0,7.2665,7.3713,7.7164,7.9329,8.0276,8.1562,8.2238,8.234,8.2441,8.2813,8.3355,8.1562,0.0,7.6487,7.4999,0.0,0.0,0.0,0.0,0.0,0.0,0.0,0.0,0.0,0.0,0.0,0.0,0.0,0.0,0.0,0.0,0.0,0.0,0.0,0.0,0.0,3.9242,4.0527,4.1779,4.2658,4.2422,4.0764,4.1373,0.0,0.0,0.0,0.0,0.0,0.0,0.0,0.0,6.0791,6.3599,6.4512,6.573,6.6068,6.5628,6.441,6.0013,5.3551,5.2672,0.0,0.0,0.0,0.0,0.0,0.0,0.0,0.0,0.0,0.0,0.0,0.0,0.0,0.0,0.0,0.0,0.0,0.0,0.0,0.0,0.0,0.0,0.0,0.0,0.0,0.0,0.0,0.0,0.0,0.0,0.0,0.0,0.0,0.0,0.0,0.0,0.0,0.0,0.0,5.7509,6.0791,6.3463,6.4038,6.3835,0.0,0.0,0.0,0.0,0.0,0.0,0.0,0.0,0.0,7.4086,7.4999,7.6961,8.0209,8.146,8.2644,8.3828,8.4911,8.5418,8.5452,8.6264,8.6602,8.6501,8.6264,8.5012,8.2949,8.0479,7.8822,7.757,0.0,0.0,0.0,0.0,7.05,7.121,0.0,0.0,0.0,0.0,0.0,0.0,0.0,0.0,0.0,0.0,0.0,0.0,4.1508,4.3978,4.6177,4.8037,4.9221,4.8748,4.6177,4.6853,4.6447,0.0,0.0,0.0,0.0,0.0,0.0,0.0,6.4647,6.688,6.8504,6.9857,7.0195,6.9688,7.0229,6.5831,5.7983,5.778,5.5987,0.0,0.0,0.0,0.0,0.0,0.0,0.0,0.0,0.0,0.0,0.0,0.0,0.0,0.0,0.0,0.0,0.0,0.0,0.0,0.0,0.0,0.0,0.0,0.0,0.0,0.0,0.0,0.0,0.0,0.0,0.0,0.0,0.0,0.0,0.0,0.0,0.0,0.0,6.1603,6.4816,6.7387,6.8368,6.847,0.0,0.0,0.0,0.0,0.0,0.0,7.2631,7.2732,7.5033,8.0073,7.9735,8.1325,8.5182,8.5012,8.5486,8.6636,8.7211,8.7583,8.7786,8.8869,8.9173,8.8869,8.9207,8.9072,8.8294,8.4945,8.3118,8.2306,8.0987,7.9464,7.7908,7.6961,7.6961,7.7671,0.0,0.0,0.0,0.0,0.0,0.0,0.0,0.0,0.0,0.0,0.0,4.4722,4.6278,4.9052,5.115,5.1961,5.2097,5.1488,4.9898,5.1183,5.1285,4.9763,0.0,0.0,0.0,0.0,0.0,6.3396,6.776,6.9958,7.0094,7.0872,7.1244,7.121,7.1244,6.9755,6.7049,6.4275,6.2584,6.1197,0.0,0.0,0.0,0.0,0.0,0.0,0.0,0.0,0.0,0.0,0.0,0.0,0.0,0.0,0.0,0.0,0.0,0.0,0.0,0.0,0.0,0.0,0.0,0.0,0.0,0.0,0.0,0.0,0.0,0.0,0.0,0.0,0.0,0.0,0.0,0.0,0.0,0.0,0.0,7.2902,7.5642,0.0,0.0,0.0,0.0,7.2293,7.4086,7.5676,7.6555,7.8585,8.0784,8.3186,8.5317,8.6535,8.6805,8.8125,8.8835,8.8903,8.897,8.9342,9.0053,9.0121,9.0527,9.1102,9.0425,9.0121,8.9918,8.7617,8.623,8.5283,8.2374,8.1156,8.1122,8.1799,8.2035,8.2509,0.0,0.0,0.0,3.119,3.1562,3.2138,3.2882,3.4269,3.5926,3.7956,4.2354,4.621,4.8646,5.2875,5.5987,5.7205,5.866,5.8457,5.5987,5.6325,5.5547,5.3078,0.0,0.0,0.0,0.0,6.4783,6.7793,7.0364,7.1616,7.165,7.2868,7.3172,7.2732,7.3206,7.2699,7.1345,6.8842,6.7083,6.5595,6.1772,5.8321,0.0,0.0,0.0,0.0,0.0,0.0,0.0,0.0,0.0,0.0,0.0,0.0,0.0,0.0,0.0,0.0,0.0,0.0,0.0,0.0,0.0,0.0,0.0,0.0,0.0,0.0,0.0,0.0,0.0,0.0,0.0,0.0,0.0,0.0,0.0,0.0,0.0,7.2665,7.5439,0.0,7.7164,7.7874,7.8247,7.8145,7.9735,8.1494,8.3253,8.3625,8.4809,8.7008,8.7414,8.8057,8.9038,8.9545,9.0053,9.0527,9.1,9.1372,9.1643,9.215,9.2522,9.2759,9.2489,9.2083,9.1575,9.0797,8.9748,8.8531,8.7448,8.7042,8.7008,8.6771,8.7008,8.7583,0.0,0.0,0.0,3.119,3.1799,3.2713,3.3964,3.5419,3.755,4.0832,4.5162,4.9187,5.2367,5.6968,6.0283,6.1501,6.3226,6.2854,5.9607,5.9877,5.8727,5.548,0.0,0.0,0.0,6.5561,6.7895,7.0939,7.2428,7.3138,7.3172,7.439,7.4728,7.4255,7.4762,7.4695,7.4119,7.2394,7.0804,6.918,6.644,6.3396,6.0047,0.0,0.0,0.0,0.0,0.0,0.0,0.0,0.0,0.0,0.0,0.0,0.0,0.0,0.0,0.0,0.0,0.0,0.0,0.0,0.0,0.0,0.0,0.0,0.0,0.0,0.0,0.0,0.0,0.0,0.0,0.0,0.0,0.0,0.0,0.0,7.3071,7.3815,7.6555,7.8653,7.9397,8.0141,8.0987,8.1968,8.3422,8.5046,8.6805,8.6907,8.7685,8.941,8.9478,8.9951,9.0932,9.1203,9.1575,9.2083,9.2556,9.2556,9.2049,9.259,9.2522,9.2049,9.2049,9.1778,9.1305,9.1575,9.1102,9.0222,9.0493,9.056,9.0527,9.0019,8.9985,9.0154,0.0,0.0,3.119,3.119,3.1833,3.3085,3.5284,3.6975,3.9851,4.5094,4.9661,5.3856,5.7509,6.1332,6.3835,6.4512,6.5256,6.414,6.0452,6.1637,6.0825,0.0,0.0,0.0,6.9079,6.8538,6.962,7.2529,7.3984,7.4728,7.4728,7.5439,7.5777,7.5811,7.5811,7.5811,7.5743,7.5067,7.3883,7.2225,6.8504,6.6542,6.5121,0.0,0.0,0.0,0.0,0.0,0.0,0.0,0.0,0.0,0.0,0.0,0.0,0.0,0.0,0.0,0.0,0.0,0.0,0.0,0.0,0.0,0.0,0.0,0.0,0.0,0.0,0.0,0.0,0.0,0.0,0.0,0.0,0.0,7.2529,7.4424,7.6115,7.6961,7.9566,8.1629,8.2408,8.3118,8.3558,8.3625,8.5012,8.6196,8.7008,8.8328,8.9444,9.0222,9.1643,9.2387,9.2387,9.3199,9.3571,9.3537,9.3537,9.2759,9.1305,9.1271,9.0493,8.914,8.914,8.914,8.9207,8.9951,9.0256,9.0324,9.1034,9.1305,9.1305,9.1271,9.0797,9.0053,3.119,3.119,3.119,3.119,3.2679,3.4269,3.5453,3.7855,4.1373,4.6616,5.1217,5.5175,5.8355,6.2516,6.4749,6.3903,6.5459,6.5392,6.2753,6.3463,6.3531,0.0,0.0,0.0,7.1413,7.3409,7.483,7.5676,7.6589,7.7063,7.7063,7.7266,7.7638,7.8179,7.8179,7.8179,7.8145,7.7976,7.7029,7.5439,7.2732,7.0567,6.8673,0.0,0.0,0.0,0.0,0.0,0.0,0.0,0.0,0.0,0.0,0.0,0.0,0.0,0.0,0.0,0.0,0.0,0.0,0.0,0.0,0.0,0.0,0.0,0.0,0.0,0.0,0.0,0.0,0.0,0.0,0.0,0.0,7.5676,7.5676,7.713,7.8855,8.0682,8.1596,8.2611,8.3896,8.42,8.4979,8.6636,8.7144,8.8158,8.9985,8.9444,8.9681,9.0966,9.1406,9.1609,9.1609,9.2928,9.33,9.2725,9.2725,9.2218,9.1271,9.0763,9.056,9.0662,9.0121,9.0188,9.0696,9.0899,9.1,9.1034,9.1203,9.1305,9.1237,9.0696,9.0053,8.9342,3.119,3.119,3.119,3.119,3.278,3.4607,3.6332,3.8599,4.2557,4.9357,5.2807,5.619,6.0452,6.3768,6.5358,6.4512,6.5053,6.4884,6.3599,6.4208,6.5595,0.0,0.0,7.2563,7.4695,7.6454,7.7367,7.7367,7.8111,7.845,7.8483,7.8788,7.916,7.9566,7.9566,7.9566,7.9566,7.9566,7.8889,7.7705,7.6386,7.4119,7.1379,6.9722,6.7557,6.5256,6.4444,6.3802,6.3125,6.1941,0.0,0.0,0.0,0.0,0.0,0.0,0.0,0.0,0.0,0.0,0.0,0.0,0.0,0.0,0.0,0.0,0.0,0.0,0.0,0.0,0.0,0.0,0.0,0.0,7.6826,7.9431,8.004,8.0344,8.1325,8.3558,8.3524,8.393,8.5452,8.5587,8.6264,8.7888,8.7989,8.8835,9.0729,9.0324,9.0391,9.1271,9.1609,9.1474,9.0865,9.2015,9.2252,9.1508,9.1812,9.1237,8.9884,8.9478,8.9004,0.0,8.8057,8.8294,8.9004,8.9004,8.9173,0.0,0.0,0.0,0.0,0.0,9.0121,8.9918,3.119,3.119,3.119,3.119,3.2476,3.4506,3.7449,3.914,4.3335,5.2435,5.4194,5.69,6.299,6.4884,6.573,6.5797,6.4478,6.37,6.3869,6.4884,0.0,7.2428,7.3578,7.5405,7.8179,7.8247,7.828,7.8348,7.9025,7.9397,7.9498,8.0073,8.0378,8.0445,8.0445,8.0445,8.0445,8.0547,8.0107,7.9363,7.9261,7.713,7.3713,7.1109,6.9553,6.8436,6.5831,6.5155,6.5358,6.4546,0.0,0.0,0.0,0.0,0.0,0.0,0.0,0.0,0.0,0.0,0.0,0.0,0.0,0.0,0.0,0.0,0.0,0.0,0.0,0.0,0.0,0.0,0.0,0.0,7.9904,8.3287,8.4674,8.3761,8.3659,8.5655,8.5384,8.5554,8.6907,8.7042,8.7347,8.8057,8.8192,8.8869,9.0256,0.0,0.0,0.0,0.0,9.1305,8.9985,9.0763,9.0797,9.0087,9.0831,9.0087,8.8125,8.8023,8.6941,8.5114,8.5046,8.5452,8.6163,8.623,8.6738,8.7651,8.9985,9.0932,9.0831,9.0188,9.0324,0.0,3.119,3.119,3.119,3.119,3.2916,3.5115,3.755,3.914,4.3504,5.3112,5.4499,5.7103,6.3666,6.5155,6.5933,6.6542,6.5256,6.4884,6.6102,0.0,7.1887,7.4086,7.6657,7.8585,7.9735,7.9769,8.0073,8.0648,8.0784,8.119,8.1765,8.1291,8.1393,8.1968,8.1968,8.1968,8.2035,8.2611,8.2069,8.0818,8.0209,7.8822,7.7063,7.6487,7.5405,7.4119,7.3544,7.2293,7.0703,6.935,6.8166,6.7151,6.6576,6.6508,0.0,0.0,0.0,0.0,0.0,0.0,0.0,0.0,0.0,0.0,0.0,0.0,0.0,0.0,0.0,0.0,0.0,0.0,0.0,7.9363,8.2577,8.5452,8.6332,8.623,8.6196,8.6636,8.7076,8.7448,8.7753,8.7786,8.8091,8.8801,8.9444,9.0154,9.1034,9.0087,8.9782,9.0391,8.941,8.87,8.8429,8.9748,9.0053,8.9309,0.0,0.0,8.8869,8.826,8.8091,8.8192,8.7583,8.7753,8.8497,8.9106,8.9782,9.0324,8.9106,8.8632,8.8632,8.8463,8.8158,8.782,3.119,3.119,3.119,3.119,3.2713,3.4709,3.7009,3.8599,4.2489,5.071,5.2097,5.4465,6.008,6.167,6.2651,6.3396,6.485,6.5865,0.0,7.1142,7.4728,7.6251,7.845,7.9837,8.0175,8.0547,8.0919,8.1291,8.1663,8.2035,8.2408,8.2035,8.2069,8.2408,8.2408,8.2408,8.2441,8.278,8.2509,8.1832,8.1832,8.0953,7.9498,7.8416,7.7502,7.6792,7.642,7.5574,7.4492,7.3341,7.2428,7.1751,7.1379,7.0737,6.9586,0.0,0.0,0.0,0.0,0.0,0.0,0.0,0.0,0.0,0.0,0.0,0.0,0.0,0.0,7.5608,7.713,0.0,8.1122,8.2272,8.464,8.6602,8.7347,8.7753,8.7989,8.7989,8.7989,8.8125,8.8497,8.8869,8.8937,8.8564,8.9207,8.9478,8.914,8.9106,8.9106,8.9106,8.9106,8.8734,8.7989,8.9106,8.9275,8.8564,8.9681,8.9816,8.9072,8.9106,8.9106,8.9072,8.87,8.897,8.9681,9.0053,9.0425,9.0628,8.9545,8.9342,8.9647,8.9647,8.941,8.914,3.119,3.119,3.1224,3.1393,3.251,3.4167,3.6434,3.7922,4.1102,4.753,4.912,5.1386,5.5886,5.7814,5.9032,5.9607,6.4038,6.644,0.0,7.1616,7.5946,7.7468,7.8957,7.9837,7.9972,8.0547,8.0987,8.1291,8.19,8.2272,8.2408,8.2272,8.2205,8.2205,8.2205,8.2205,8.2205,8.234,8.2408,8.2441,8.2881,8.234,8.1088,7.916,7.8314,7.8111,7.7367,7.6927,7.6555,7.5743,7.5473,7.5473,7.5473,7.4458,7.2902,7.0973,6.8774,0.0,0.0,0.0,0.0,0.0,0.0,0.0,0.0,7.3071,7.4627,7.713,7.7671,7.828,8.0276,8.1224,8.2509,8.4945,8.6467,8.755,8.8125,8.8835,8.9207,8.8903,8.8598,8.8531,8.8835,8.9545,8.9376,8.7888,8.8463,8.8429,8.738,8.8429,8.8869,8.8429,8.9309,8.9275,8.8226,8.8801,8.8869,8.8429,8.9782,9.0087,8.9545,9.0154,9.0087,8.9512,8.9512,8.9951,9.0628,9.0628,9.0729,9.0865,9.0865,9.1237,9.1711,9.1406,9.1305,9.1305,3.119,3.119,3.1393,3.2036,3.2848,3.4167,3.6434,3.7483,3.9952,4.5365,4.7293,4.9864,5.4363,5.6731,5.8051,5.8118,6.3463,0.0,6.4816,7.0398,7.439,7.5879,7.7435,7.8551,7.9228,7.9295,8.0006,8.1291,8.1359,8.1765,8.2408,8.1731,8.1393,8.1393,8.1393,8.1393,8.146,8.2137,8.2408,8.2374,8.1765,8.1426,8.119,8.0276,7.9566,7.8889,7.8145,7.6995,7.5709,7.4965,7.4728,7.4728,7.4728,7.5506,7.5709,7.2225,7.1413,7.1041,6.8199,6.8402,6.9755,7.1176,7.2124,7.3849,0.0,7.9194,8.0344,8.393,8.464,8.4945,8.5858,8.6636,8.7245,8.7583,8.8294,8.8869,8.897,8.9613,8.9579,8.826,8.9207,8.9478,8.8226,8.8767,8.8598,8.7144,8.7719,8.8328,8.8801,8.9004,8.9342,8.9951,8.8835,8.8463,8.897,8.9038,8.9376,8.9985,9.0797,9.1135,9.1068,9.1135,9.1135,9.1034,9.1034,9.1474,9.2184,9.2184,9.259,9.3199,9.3199,9.3267,9.3165,9.1812,9.1305,9.1372,3.2476,3.2476,3.2713,3.3457,3.3491,3.4032,3.5825,3.7144,3.9174,4.2625,4.4012,4.6007,4.9661,5.2807,5.4634,5.4634,6.0148,6.3531,6.3328,6.891,7.3071,7.4999,7.6555,7.7705,7.845,7.8889,7.9397,8.0006,8.0006,8.0175,8.0479,7.9701,7.9363,7.9363,7.9363,7.9363,7.9397,8.0175,8.075,8.1156,8.1731,8.1663,8.1257,8.0953,8.0107,7.9025,7.8247,7.757,0.0,7.5642,7.5236,7.5236,7.5236,7.5676,7.5811,7.3815,7.3443,7.3409,7.2157,7.2597,7.3646,7.4762,7.5574,7.7063,8.0648,8.1156,8.19,8.5655,8.6095,8.6129,8.7347,8.7448,8.7651,8.8497,8.8531,8.8767,8.9613,8.9275,8.8835,8.8632,8.9173,8.914,8.8091,8.8666,8.8666,8.7617,8.8226,8.8395,8.7854,8.8632,8.9241,8.9545,8.9782,9.0053,9.0357,9.0357,9.0527,9.0865,9.1609,9.1947,9.1981,9.2421,9.2624,9.2624,9.2624,9.2793,9.3098,9.3098,9.33,9.3571,9.3571,9.3571,9.3503,9.2861,9.2624,9.2658,3.3423,3.3423,3.3626,3.437,3.4066,3.4134,3.5419,3.6738,3.8159,3.9783,4.0967,4.3064,4.6718,4.9661,5.1657,5.2266,5.707,6.0452,0.0,6.688,7.1075,7.3308,7.5236,0.0,7.7333,7.8111,7.8585,7.8822,7.8822,7.8822,7.8788,7.8247,7.7976,7.7976,7.7976,7.7976,7.801,7.8585,7.9228,8.0006,8.1054,8.1156,8.0682,8.0682,7.9904,7.872,7.8179,7.7874,7.7536,7.642,7.5879,7.5709,7.5709,7.5845,7.5946,7.5405,7.554,7.5811,7.5608,7.6521,7.7705,7.828,7.9295,8.075,8.3118,8.3524,8.4268,8.7211,8.7042,8.6839,8.8328,8.7854,8.7617,8.8869,8.8632,8.8598,8.9478,8.8835,8.8328,8.8463,8.8835,8.8869,8.8361,8.8767,8.8767,8.8057,8.8497,8.8497,8.7854,8.8835,8.9478,8.9681,9.0729,9.1406,9.1609,9.1609,9.1711,9.1947,9.2489,9.2759,9.2759,9.3537,9.3876,9.3909,9.4112,9.418,9.418,9.418,9.418,9.418,9.418,9.418,9.418,9.418,9.4079,9.3909,3.3423,3.3423,3.3626,3.437,3.4472,3.4709,3.5487,3.6299,3.684,3.6907,3.8802,4.2117,4.7327,4.8612,4.9965,5.2097,5.5141,5.7543,5.9032,6.4038,6.7963,7.0229,7.3138,7.5033,7.5743,7.6555,7.7299,7.801,7.801,7.801,7.801,7.801,7.7976,7.7976,7.7976,7.7976,7.7976,7.801,7.845,7.916,7.9194,7.9194,7.9194,7.9194,7.8686,7.801,7.801,7.7536,7.6927,7.6893,7.6352,7.5709,7.5709,7.6251,7.686,7.6826,7.7841,7.8822,7.8077,8.0006,8.2205,8.2238,8.3896,8.5757,8.6602,8.7854,8.9072,8.9918,8.8937,8.8395,8.9884,8.8937,8.8226,8.897,8.9072,8.8801,8.8158,8.8632,8.8531,8.7144,8.8226,8.9072,0.0,8.9072,8.8767,8.8057,8.8023,8.8632,9.0053,9.0154,9.0493,9.1203,9.1271,9.1643,9.2387,9.2387,9.2759,9.3503,9.3537,9.3537,9.3571,9.4349,9.4687,9.4721,9.5432,9.5736,9.5736,9.5736,9.5736,9.5736,9.5736,9.5736,9.5736,9.5736,9.5296,9.4789,3.4878,3.4878,3.4945,3.5216,3.525,3.5318,3.5588,3.6265,3.6772,3.6772,3.914,0.0,0.0,0.0,0.0,0.0,5.23,5.5446,5.7408,6.1975,6.6068,6.9316,7.1819,7.3713,7.4965,7.5236,7.5743,7.6454,7.6454,7.6454,7.6454,7.6454,7.6454,7.6454,7.6454,7.6454,7.6487,7.7029,7.7401,7.7671,7.8179,7.8382,7.8314,7.7841,7.7502,7.7198,0.0,7.6657,7.6826,7.6284,7.6284,7.6487,7.6487,7.7029,7.7807,7.8788,8.0141,8.1359,8.1562,8.349,8.5418,8.5418,8.6704,8.8158,8.8937,8.9478,9.0053,9.0763,8.9376,8.8463,8.9951,8.8192,8.6941,8.8158,8.8361,8.8429,8.87,8.8497,8.8564,8.9038,8.9106,8.9275,0.0,0.0,0.0,9.0121,9.0188,9.0391,9.0899,9.1406,9.1778,9.2049,9.2556,9.2928,9.3199,9.3199,9.3571,9.4349,9.4823,9.506,9.506,9.533,9.5432,9.5432,9.5702,9.5804,9.5804,9.5804,9.5804,9.5804,9.5804,9.5804,9.5838,9.6345,9.6345,9.6108,3.5622,3.5622,3.5622,3.5622,3.5622,0.0,0.0,0.0,0.0,0.0,0.0,0.0,0.0,0.0,0.0,0.0,0.0,5.3348,5.5852,6.0216,6.414,6.7354,7.0128,7.2191,7.3409,7.395,7.4559,7.5303,7.5303,7.5439,7.5709,7.5709,7.5709,7.5709,7.5709,7.5709,7.5743,7.6251,7.6657,7.6927,7.7401,7.7604,7.7536,7.7063,7.6724,0.0,0.0,7.6014,7.6386,7.5879,7.6048,7.6521,7.6826,7.7773,7.9126,8.0851,8.2238,8.3422,8.4437,8.6163,8.7753,8.8023,8.9004,9.0087,9.0831,9.1,9.1203,9.1947,9.0324,8.9072,9.0053,8.8226,8.6704,8.7144,8.7414,8.7685,8.7888,8.7955,8.8463,8.9647,8.985,9.0188,9.0932,0.0,0.0,9.1609,9.1711,9.1812,9.2116,9.2556,9.2827,9.2827,9.3334,9.3706,9.3977,9.3977,9.4349,9.5093,9.5567,9.5804,9.5804,9.6074,9.6176,9.621,9.648,9.6582,9.6582,9.6582,9.6582,9.6582,9.6582,9.6582,9.665,9.7123,9.7292,9.7225,3.5622,3.5622,3.5622,0.0,0.0,0.0,0.0,0.0,0.0,0.0,0.0,0.0,0.0,0.0,0.0,0.0,0.0,0.0,5.4296,0.0,0.0,6.4377,6.803,7.0398,7.1244,7.2665,7.3781,7.4559,7.4559,7.4931,7.5642,7.5642,7.5676,7.5709,7.5709,7.5709,7.5709,7.5709,7.6149,7.6826,7.6826,7.6826,7.6826,7.6792,0.0,0.0,7.5608,7.5574,7.5608,7.5676,7.5743,7.5946,7.6792,7.8585,8.0784,8.2983,8.42,8.5182,8.667,8.8158,8.9444,9.0154,9.0865,9.1609,9.2319,9.2455,9.2624,9.3334,9.1677,9.0121,9.0154,8.8869,8.738,8.6061,8.6433,8.667,8.5993,8.7177,8.8395,8.9173,0.0,0.0,0.0,0.0,0.0,9.2489,0.0,9.2793,9.3537,9.3571,9.3605,9.3639,9.3639,9.4011,9.4755,9.4789,9.5161,9.5838,9.5905,9.5905,9.5939,9.6616,9.6954,9.6988,9.7698,9.8003,9.8003,9.8003,9.8003,9.8003,9.8003,9.8003,9.8003,9.8003,9.8003,9.8003,0.0,0.0,0.0,0.0,0.0,0.0,0.0,0.0,0.0,0.0,0.0,0.0,0.0,0.0,0.0,0.0,0.0,0.0,5.2706,0.0,0.0,0.0,0.0,6.8538,7.0432,7.1379,7.2496,7.3781,7.3781,7.4153,7.4897,7.4897,7.5168,7.5709,7.5709,7.5709,7.5709,7.5709,7.5811,7.6014,0.0,7.6014,7.5946,0.0,0.0,0.0,7.4255,7.4052,7.4221,7.5337,7.6454,7.7638,7.8957,8.0885,8.2983,8.4708,8.6501,8.8158,8.9106,9.0459,9.1609,9.1812,9.2421,9.3064,9.3233,9.2827,9.2319,9.1947,9.0121,8.8734,8.9275,8.7245,8.5723,8.6501,8.6771,8.7042,8.738,8.87,9.0121,9.1406,0.0,9.2455,9.3199,9.33,0.0,0.0,9.33,9.3368,9.3571,9.3571,9.3842,9.4417,9.4417,9.4755,9.5499,9.6041,9.6413,9.6616,9.7191,9.7461,9.7461,9.7631,9.7732,9.7732,9.7935,9.8003,9.8003,9.8003,9.8003,9.8003,9.8003,9.8003,9.8003,9.8003,9.8003,9.8003,0.0,0.0,0.0,0.0,0.0,0.0,0.0,0.0,0.0,0.0,0.0,0.0,0.0,0.0,0.0,0.0,0.0,0.0,0.0,0.0,0.0,0.0,6.4241,6.688,6.9147,7.0263,7.1548,7.3003,0.0,0.0,7.4119,7.4119,7.4322,7.4728,7.4728,7.4728,7.4728,7.4728,0.0,0.0,0.0,0.0,0.0,0.0,0.0,7.4052,7.3646,7.3477,7.368,7.483,7.6251,7.7773,7.9261,8.1697,8.437,8.6196,8.8091,8.9816,9.0899,9.1778,9.2489,9.2861,9.3267,9.3402,9.2725,9.2489,9.2015,9.0628,8.9579,8.8903,8.8666,8.7245,8.6061,8.5926,8.6467,8.6941,8.7008,8.8869,9.0628,9.1778,9.2522,9.3098,9.3537,9.3571,9.3706,0.0,9.3774,9.374,9.4079,9.4079,9.4417,9.5161,9.5195,9.5533,9.6277,9.6988,9.736,9.7394,9.78,9.8003,9.8003,9.8003,9.8003,9.8003,0.0,9.8003,9.8003,9.8003,9.8003,9.8003,9.8003,9.8003,9.8003,9.8003,9.8003,9.8003,0.0,0.0,0.0,0.0,0.0,0.0,0.0,0.0,0.0,3.8937,3.9073,3.9309,3.9411,3.9918,0.0,0.0,0.0,0.0,0.0,0.0,0.0,0.0,6.2415,6.5087,6.7421,6.9045,7.0601,7.2124,7.2225,0.0,0.0,0.0,0.0,0.0,0.0,0.0,0.0,0.0,0.0,0.0,0.0,0.0,0.0,0.0,0.0,7.3341,7.324,7.3206,7.3308,7.4052,7.5473,7.7164,7.8754,8.1799,8.5215,8.7482,8.9275,9.0797,9.2184,9.259,9.2725,9.3402,9.3571,9.3199,9.1778,9.1812,9.1508,8.9376,8.9376,8.9342,8.7955,8.7719,8.711,8.5215,8.6061,8.6738,8.6298,8.8598,9.0628,9.1372,9.2725,9.3571,9.3571,9.3673,9.4011,9.4654,9.418,9.4146,9.4823,9.4857,9.5195,9.5905,9.6041,9.6379,9.7022,9.7698,9.8003,9.8003,9.8003,9.8003,9.8003,9.8003,9.8003,9.8003,0.0,0.0,9.8003,9.8003,9.8003,9.8003,9.8003,9.8003,9.8003,9.8003,9.8003,9.8003,0.0,0.0,0.0,0.0,0.0,0.0,0.0,0.0,0.0,0.0,4.1914,4.1035,4.1644,4.1305,0.0,0.0,0.0,0.0,0.0,0.0,0.0,5.6359,5.9302,6.2245,6.5121,6.7218,6.9045,7.0567,7.121,7.1887,0.0,0.0,0.0,0.0,0.0,0.0,0.0,0.0,0.0,0.0,0.0,0.0,0.0,0.0,0.0,0.0,7.1921,7.1684,7.1819,7.2802,7.4814,7.7266,7.9363,8.2577,8.6027,8.826,9.0391,9.2252,9.3131,9.3368,9.3402,9.3537,9.3571,9.3334,9.2421,9.1372,9.0154,8.8531,8.782,8.7211,8.6332,8.6163,8.623,8.6467,8.6738,8.7279,8.8361,9.0019,9.1372,9.215,9.303,9.3571,9.3571,9.4146,0.0,0.0,9.5161,9.5466,9.5601,9.5601,9.5939,9.6683,9.7292,9.7698,9.78,9.7935,9.8003,9.8003,9.8003,9.8003,9.8003,9.8003,9.8003,9.8003,9.8003,0.0,9.8003,9.8003,9.8003,9.8003,9.8003,9.8003,9.8003,9.8003,9.8003,9.8003,0.0,0.0,0.0,0.0,0.0,0.0,0.0,4.4079,4.4891,4.7158,4.6177,4.4959,4.4147,4.3031,4.2489,0.0,0.0,0.0,0.0,0.0,0.0,0.0,5.7577,6.0351,6.3396,6.5628,6.7489,6.8977,0.0,7.0534,7.1244,7.1244,7.165,7.236,7.236,7.236,7.236,7.236,7.236,7.236,7.236,7.236,0.0,0.0,0.0,0.0,0.0,7.124,7.1838,7.3105,7.465,7.653,7.8986,8.292,8.6786,8.7651,9.0357,9.2928,9.2522,9.2962,9.3571,9.3571,9.3876,9.3571,9.1237,9.0729,8.9816,8.6366,8.6027,8.6095,8.5317,8.5824,8.6366,8.6332,8.6974,8.7583,8.7922,8.9545,9.1,9.1744,9.2861,9.374,9.4146,9.4485,9.5026,9.577,9.6176,9.6345,9.6345,9.6751,9.7123,9.7461,9.7834,9.8003,9.8003,9.8003,9.8003,9.8003,9.8003,9.8003,9.8003,9.8003,9.8003,9.8003,9.8003,0.0,9.8003,9.8003,9.8003,9.8003,9.8003,9.8003,9.8003,9.8003,9.8003,9.8003,0.0,0.0,0.0,0.0,0.0,0.0,0.0,4.6447,4.7361,5.0608,5.0135,4.8951,4.753,4.5568,4.4113,0.0,0.0,0.0,0.0,0.0,0.0,0.0,0.0,5.8592,6.1603,0.0,0.0,6.7184,6.8132,0.0,0.0,0.0,0.0,0.0,7.0838,7.0838,7.0838,7.0838,7.0838,0.0,0.0,7.0838,0.0,0.0,0.0,0.0,0.0,7.0924,7.2038,7.346,7.4624,7.5903,7.8415,8.2581,8.6656,8.705,8.9985,9.2895,9.2015,9.2658,9.3605,9.3774,9.4146,9.3605,9.0324,9.0087,8.9275,8.4708,8.4437,8.4911,8.4471,8.5486,8.6332,8.6061,8.7008,8.7685,8.7414,8.9004,9.0493,9.1203,9.2658,9.3876,9.462,9.4857,0.0,9.6785,9.7022,9.7123,9.7123,9.7698,9.8003,9.8003,9.8003,9.8003,9.8003,9.8003,9.8003,9.8003,9.8003,9.8003,9.8003,9.8003,9.8003,9.8003,9.8003,0.0,0.0,9.8003,9.8003,9.8003,9.8003,9.8003,9.8003,9.8003,9.8003,9.8037,0.0,0.0,0.0,0.0,0.0,0.0,0.0,4.7327,4.9289,5.3619,5.2334,5.1454,5.2672,4.9627,4.6413,0.0,0.0,0.0,0.0,0.0,0.0,0.0,0.0,0.0,0.0,0.0,0.0,6.4884,6.6339,0.0,0.0,0.0,0.0,0.0,0.0,6.9316,6.9316,6.9316,0.0,0.0,0.0,0.0,0.0,0.0,0.0,0.0,0.0,7.026,7.1438,7.2517,7.4205,7.6272,7.7869,8.1068,8.4687,8.7437,8.9838,9.1778,9.303,9.347,9.374,9.4451,9.4146,9.3233,9.1508,8.9647,8.7583,8.5114,8.3592,8.2881,8.349,8.4268,8.5283,8.6602,8.6907,8.7448,8.87,8.9647,9.0493,9.1203,9.2658,9.3876,9.462,9.5296,9.6041,9.6819,9.7529,9.7901,9.7901,9.7969,9.8003,9.8003,9.8003,9.8003,9.8003,9.8003,9.8003,9.8003,9.8003,9.8003,9.8003,9.8003,9.8003,9.8003,9.8003,0.0,0.0,9.8003,9.8003,9.8003,9.8003,9.8003,9.8003,9.8003,9.8003,9.8104,0.0,0.0,0.0,0.0,0.0,0.0,4.6921,4.7327,4.9018,5.3957,5.3416,5.2841,5.345,5.1725,4.9187,4.5737,0.0,0.0,0.0,0.0,0.0,0.0,0.0,0.0,0.0,0.0,6.0858,6.1907,6.3396,0.0,0.0,0.0,0.0,0.0,0.0,6.7726,6.7726,6.7726,0.0,0.0,0.0,0.0,0.0,0.0,0.0,0.0,0.0,0.0,7.1261,7.2589,7.376,7.5025,7.732,7.9132,8.097,8.4147,8.7701,9.0662,9.0831,9.2522,9.4214,9.4079,9.4146,9.3402,9.0053,8.8632,8.6974,8.3389,8.2509,8.234,8.2205,8.3524,8.4809,8.5452,8.6298,8.7414,8.8869,8.9715,9.0662,9.1846,9.3334,9.4552,9.5296,9.6041,9.6751,9.7495,9.7834,9.8003,9.8003,9.8003,9.8003,9.8003,9.8003,9.8003,9.8003,9.8003,9.8003,9.8003,9.8003,9.8003,9.8003,9.8003,9.8003,9.8003,9.8003,0.0,0.0,9.8003,9.8003,9.8003,9.8003,9.8273,9.8645,9.8645,9.895,9.939,0.0,0.0,0.0,0.0,0.0,4.3403,4.6752,4.7361,4.9154,5.3957,5.3957,5.3687,5.4126,5.2469,5.027,4.7665,4.638,0.0,0.0,0.0,0.0,0.0,0.0,0.0,0.0,0.0,5.8389,5.9133,6.0419,6.1806,0.0,0.0,6.4072,6.5493,0.0,0.0,0.0,0.0,0.0,0.0,0.0,0.0,0.0,0.0,0.0,0.0,0.0,0.0,0.0,0.0,0.0,7.4088,7.6069,7.7302,7.8542,8.1787,8.5468,8.8632,8.9004,9.1338,9.374,9.3876,9.347,9.2218,8.9038,8.7279,8.5452,8.2272,8.1936,8.2173,8.1732,8.3362,8.4791,8.4877,8.6061,8.7482,8.9173,8.9884,9.0763,9.2252,9.3571,9.4755,9.5702,9.665,9.7428,9.7969,9.8003,9.8003,9.8003,9.8003,9.8003,9.8003,9.8003,9.8003,9.8003,9.8003,9.8003,9.8003,9.8003,9.8003,9.8003,9.8003,9.8003,9.8003,9.8003,0.0,0.0,9.8003,9.8003,9.8037,9.824,9.8645,9.9119,9.9356,9.9762,10.0235,0.0,0.0,0.0,0.0,0.0,0.0,4.5365,4.7564,5.0338,5.4093,5.3957,5.4059,5.5547,5.1725,4.9018,4.8984,4.6989,0.0,0.0,0.0,0.0,0.0,0.0,0.0,0.0,0.0,5.6122,5.6833,5.7577,5.8693,6.0148,6.0148,6.096,6.2448,0.0,0.0,0.0,0.0,0.0,0.0,0.0,0.0,0.0,0.0,0.0,0.0,0.0,0.0,0.0,0.0,0.0,0.0,0.0,7.5776,7.861,8.156,8.35,8.5317,8.8294,9.0188,9.188,9.4146,9.188,8.914,8.9072,8.5655,8.2441,8.2408,8.209,8.2017,8.2309,8.3905,8.5367,8.5701,8.6399,8.7685,8.9884,9.0222,9.0763,9.2252,9.3131,9.418,9.5669,9.7123,9.8003,9.8003,9.8003,0.0,9.8003,9.8003,9.8003,9.8003,9.8003,9.8003,9.8003,9.8003,9.8003,9.8003,9.8003,9.8003,9.8003,9.8003,9.8003,0.0,0.0,0.0,0.0,9.8003,9.8003,9.807,9.8815,9.9085,9.9187,9.9931,10.0235,10.0337,0.0,0.0,0.0,0.0,0.0,0.0,0.0,4.5196,4.7124,5.0338,5.0135,5.0439,5.2435,5.0033,4.8274,4.8274,4.621,0.0,0.0,0.0,0.0,0.0,0.0,0.0,0.0,0.0,5.5547,5.6799,5.7543,5.866,6.0114,6.0114,6.0351,6.0825,6.0825,6.0825,0.0,0.0,0.0,0.0,0.0,0.0,0.0,0.0,0.0,0.0,0.0,0.0,0.0,0.0,0.0,0.0,0.0,0.0,0.0,7.8493,8.1559,8.4794,8.599,8.8775,9.1261,9.0635,9.0082,8.9191,8.7917,8.5964,8.4132,8.3002,8.3358,8.3564,8.2582,8.4177,8.574,8.5845,8.7154,8.8597,8.9997,9.0628,9.1305,9.2286,9.4011,9.5669,0.0,0.0,9.8003,9.8003,9.8003,9.8003,9.8003,9.8003,9.8003,9.8003,9.8003,9.8003,9.8003,9.8003,9.8003,9.8003,9.8003,9.8003,9.8003,9.8003,9.8003,0.0,0.0,0.0,0.0,9.8544,9.8747,9.8815,9.9559,10.0202,10.0675,10.0912,10.1318,10.1825,0.0,0.0,0.0,0.0,0.0,0.0,0.0,4.3876,4.5432,4.7868,4.7767,4.8342,5.0541,4.8578,4.7293,4.7868,4.5872,0.0,0.0,0.0,0.0,0.0,0.0,0.0,0.0,0.0,5.4905,5.6393,5.6833,5.7983,5.9674,5.9674,5.9674,5.9674,5.9674,5.9539,0.0,0.0,0.0,0.0,0.0,0.0,5.937,0.0,0.0,0.0,0.0,0.0,0.0,0.0,0.0,0.0,0.0,0.0,0.0,0.0,8.058,8.3325,8.4222,8.6637,8.8995,8.8844,8.8172,8.7541,8.6959,8.5757,8.4599,8.4158,8.5004,8.5426,8.3728,8.5601,8.7105,8.5951,8.788,8.9742,9.0177,9.1068,9.2116,9.3165,9.4755,0.0,0.0,9.7834,9.8003,9.8003,9.8003,9.8003,9.8003,9.8003,9.8003,9.8003,9.8003,9.8003,9.8003,9.8003,9.8003,9.8003,9.8003,9.8003,9.8003,9.8003,9.8003,0.0,0.0,0.0,0.0,9.9221,9.9525,9.9593,10.0405,10.098,10.1386,10.169,10.2096,10.2502,0.0,0.0,0.0,0.0,0.0,0.0,0.0,4.3504,4.4993,4.638,4.6616,4.7428,4.9458,4.7259,4.6177,4.7564,0.0,0.0,0.0,0.0,0.0,0.0,0.0,0.0,0.0,5.2435,5.4329,5.5886,5.5987,5.7137,5.9268,5.9302,5.9268,5.9167,5.9133,5.866,0.0,0.0,0.0,0.0,0.0,0.0,0.0,0.0,0.0,0.0,0.0,0.0,0.0,0.0,0.0,0.0,0.0,0.0,0.0,0.0,0.0,0.0,0.0,8.4137,8.575,8.8121,8.6499,8.4833,8.6559,8.5493,0.0,8.5797,8.7085,8.75,8.5775,8.8064,8.9285,8.6471,8.8949,9.0917,9.0279,9.1541,0.0,0.0,9.5432,0.0,9.6886,9.7597,9.8003,9.8003,9.8003,9.8003,9.8003,9.8003,9.8003,9.8003,9.8003,9.8003,9.8003,9.8003,9.8003,9.8003,9.8003,9.8003,9.8003,9.8003,9.8037,0.0,0.0,0.0,0.0,9.9999,10.0303,10.0405,10.1183,10.1487,10.1589,10.2231,10.2502,10.2502,0.0,0.0,0.0,0.0,0.0,0.0,0.0,0.0,0.0,0.0,4.4722,4.5297,4.5805,4.5263,4.4993,0.0,0.0,0.0,0.0,0.0,0.0,0.0,0.0,0.0,0.0,5.345,0.0,5.7374,5.8524,5.9945,6.1603,6.2178,6.1839,6.0723,6.0114,5.9133,0.0,0.0,0.0,0.0,0.0,0.0,0.0,0.0,0.0,0.0,6.2753,6.4968,0.0,0.0,0.0,0.0,0.0,0.0,0.0,0.0,7.8919,8.0324,8.1255,0.0,8.558,8.5362,8.6046,8.7034,0.0,8.7787,8.7735,8.8049,8.9579,9.0129,8.7905,9.0156,9.1433,8.8455,9.0798,9.2318,9.0513,9.2015,0.0,9.5364,9.6176,9.692,9.7664,9.7901,9.8003,9.8003,9.8003,9.8003,9.8003,9.8003,9.8003,9.8003,9.8003,9.8003,9.8003,9.8003,9.8003,9.8003,9.8003,9.8003,9.8003,9.8003,9.8307,0.0,0.0,0.0,9.9999,10.0811,10.1081,10.1183,10.1927,10.2231,10.2299,10.2401,10.2502,10.2502,0.0,0.0,0.0,0.0,0.0,0.0,0.0,0.0,0.0,0.0,0.0,4.4181,4.4553,0.0,0.0,0.0,0.0,0.0,0.0,0.0,0.0,0.0,0.0,0.0,0.0,5.4329,5.619,5.8389,5.9911,6.1434,6.2922,6.3666,6.3226,6.1738,6.025,5.9167,0.0,0.0,0.0,0.0,5.7509,0.0,0.0,0.0,0.0,0.0,6.2614,6.4513,0.0,6.8848,6.9926,7.1149,0.0,0.0,0.0,0.0,7.8552,7.9507,8.0681,8.2147,8.3516,8.4173,8.5513,8.6887,8.7957,8.9276,9.0252,9.0175,9.1653,9.2381,9.0502,9.2373,9.334,9.0587,9.2176,9.3272,9.1976,9.2827,9.4248,9.6074,9.665,9.7191,0.0,9.8003,9.8003,9.8003,9.8003,9.8003,9.8003,9.8003,9.8003,9.8003,9.8003,9.8003,9.8003,9.8003,9.8003,9.8003,9.8003,9.8003,9.8037,9.8341,9.8713,0.0,0.0,0.0,10.0811,10.1589,10.1893,10.1893,10.2299,10.2502,10.2502,10.2502,10.2502,10.2502,0.0,0.0,0.0,0.0,0.0,0.0,0.0,0.0,0.0,0.0,0.0,0.0,0.0,0.0,0.0,0.0,0.0,0.0,0.0,0.0,0.0,0.0,0.0,5.1995,5.3619,5.5243,5.7137,5.937,6.1129,6.2719,6.4208,6.4952,6.4377,6.2618,6.0385,5.9235,0.0,0.0,0.0,0.0,5.7205,0.0,0.0,0.0,0.0,0.0,0.0,0.0,0.0,6.9064,6.9885,7.0713,7.4702,0.0,0.0,0.0,0.0,0.0,8.0534,8.0781,8.1236,8.3929,8.5045,8.606,8.7921,9.0078,9.173,9.2097,9.3308,9.4036,9.3171,9.4306,9.4744,9.2406,9.3049,9.3863,9.3895,9.3892,9.4654,9.665,9.6988,0.0,9.7935,9.8003,9.8003,9.8003,9.8003,9.8003,9.8003,9.8003,9.8003,9.8003,9.8003,9.8003,9.8003,9.8003,9.8003,9.8003,9.8003,9.807,9.8206,9.8815,9.9221,9.9525,0.0,0.0,10.1589,10.2231,10.2502,10.2502,10.2502,10.2502,10.2502,10.2502,10.2502,10.2468,0.0,0.0,0.0,0.0,0.0,0.0,0.0,0.0,0.0,0.0,0.0,0.0,0.0,0.0,0.0,0.0,0.0,0.0,0.0,0.0,0.0,0.0,0.0,5.2232,5.4363,5.6494,5.866,6.096,6.37,6.5764,6.7252,6.803,6.6914,6.4174,6.1941,6.0216,5.8964,0.0,0.0,0.0,5.778,0.0,0.0,0.0,0.0,0.0,0.0,0.0,0.0,6.8633,6.9454,7.0637,7.4015,0.0,0.0,0.0,0.0,0.0,8.0351,8.0955,8.1513,8.3955,8.5646,8.7152,8.8833,9.0041,9.14,9.3492,9.4116,9.4408,9.4915,9.5248,9.5053,9.353,9.3317,9.3796,0.0,0.0,9.5804,9.6785,0.0,9.7867,9.8003,9.8003,0.0,0.0,0.0,9.8003,9.8003,9.8003,9.8003,9.8003,9.8003,9.8003,9.8003,9.8003,9.8003,9.8003,9.8003,9.8341,9.8916,9.9051,9.9796,0.0,0.0,10.1792,10.2299,10.2502,10.2502,10.2502,10.2502,10.2502,10.2502,10.2502,10.2502,10.2759,0.0,0.0,0.0,0.0,0.0,0.0,0.0,0.0,0.0,0.0,0.0,0.0,0.0,0.0,0.0,0.0,0.0,0.0,0.0,0.0,0.0,0.0,0.0,0.0,5.575,5.7949,6.0216,6.2482,6.5425,6.7218,6.7895,6.7861,6.6711,6.4512,6.2279,6.0655,5.9539,5.8866,0.0,5.8564,0.0,0.0,0.0,0.0,0.0,0.0,0.0,0.0,0.0,0.0,6.995,7.1798,7.4184,0.0,0.0,0.0,0.0,0.0,8.0461,8.1342,8.2443,8.5747,8.7435,8.861,8.9784,9.173,9.3455,9.4153,9.463,9.518,9.5988,9.5595,9.4723,9.3593,9.397,9.4647,9.507,9.5875,9.665,0.0,0.0,9.8003,9.8003,0.0,0.0,0.0,0.0,0.0,9.8003,9.8003,9.8003,9.8003,9.8003,9.8003,9.8003,9.8003,9.8003,9.8003,9.8409,9.8781,9.9119,9.9965,10.0675,10.1386,0.0,10.2198,10.2502,10.2502,10.2502,10.2502,10.2502,10.2947,10.3776,10.452,10.4841,10.4959,0.0,0.0,0.0,0.0,0.0,0.0,0.0,0.0,0.0,0.0,0.0,0.0,0.0,0.0,0.0,0.0,0.0,0.0,0.0,0.0,0.0,0.0,0.0,0.0,5.7273,5.9674,6.211,6.4546,6.7354,6.8605,6.8402,6.7692,6.6542,6.5019,6.299,6.1588,6.0591,5.9736,5.9418,5.9443,0.0,0.0,0.0,0.0,0.0,0.0,0.0,0.0,0.0,0.0,0.0,0.0,0.0,0.0,0.0,7.7268,7.7928,7.8993,8.0791,8.2003,8.3728,8.7766,8.8793,8.9271,9.0849,9.2978,9.4703,9.4813,9.5217,9.5804,9.6795,9.5922,9.4661,9.3726,9.4982,9.5758,9.5264,9.6503,9.7575,9.7901,0.0,0.0,0.0,0.0,0.0,0.0,0.0,0.0,9.8003,9.8337,9.8546,9.8546,9.8839,9.8924,9.8924,9.9129,9.8905,9.8273,9.8815,9.9288,9.966,10.0878,10.1708,10.2222,10.2767,10.3166,10.3473,10.3473,10.3473,10.3473,10.3473,10.4263,10.5308,10.6371,10.699,10.7488,0.0,0.0,0.0,0.0,0.0,0.0,0.0,0.0,0.0,0.0,0.0,0.0,0.0,0.0,0.0,0.0,0.0,0.0,0.0,0.0,0.0,0.0,0.0,0.0,5.8761,6.1738,6.4681,6.759,6.9925,7.0703,6.9992,6.9282,6.8132,6.6576,6.5053,6.3563,6.226,6.0809,6.0237,6.0273,6.0335,0.0,0.0,0.0,0.0,0.0,0.0,0.0,0.0,0.0,0.0,0.0,0.0,0.0,7.635,7.7084,7.7928,7.9103,8.1452,8.3251,8.538,8.9417,8.8793,8.8206,9.206,9.2464,9.2905,9.5914,9.5988,9.5988,9.753,9.6759,9.5576,9.4959,9.631,9.7185,9.6861,0.0,9.8653,0.0,0.0,0.0,0.0,0.0,0.0,0.0,0.0,0.0,9.8003,9.9279,9.9986,9.9986,10.1217,10.1858,10.1858,10.2564,10.1708,9.9018,9.9051,9.9829,10.1183,10.1284,10.2507,10.4332,10.4366,10.5158,10.6481,10.6481,10.6481,10.6481,10.6481,10.6627,10.6736,10.6845,10.7698,10.8926,0.0,0.0,0.0,0.0,0.0,0.0,0.0,0.0,0.0,0.0,0.0,0.0,0.0,0.0,0.0,0.0,0.0,0.0,0.0,0.0,0.0,0.0,0.0,5.5446,5.9607,6.2651,6.5662,6.8639,7.0432,7.0939,7.0161,6.8944,6.7826,6.6872,6.5396,6.4516,6.4069,6.3038,6.2307,6.1924,6.251,6.2549,0.0,0.0,0.0,0.0,0.0,0.0,0.0,0.0,6.9412,7.1578,7.2973,7.4992,7.6937,7.7231,7.8993,8.1158,8.2553,8.4499,8.7068,9.1143,9.1069,9.0665,9.3272,9.3969,9.4446,9.5694,9.5327,9.5098,9.6431,9.7051,9.7258,9.6834,9.8021,9.8621,9.7745,9.8832,0.0,0.0,0.0,0.0,0.0,0.0,0.0,0.0,0.0,0.0,9.9279,9.9792,10.0516,10.136,10.1963,10.2384,10.288,10.3163,10.3266,10.3172,10.3172,10.3485,10.4077,10.4496,10.5224,10.5959,10.5959,10.626,10.681,10.681,10.681,10.6918,10.7767,10.8251,10.8353,10.9221,10.9905,11.0444,0.0,0.0,0.0,0.0,0.0,0.0,0.0,0.0,0.0,0.0,0.0,0.0,0.0,0.0,0.0,0.0,0.0,0.0,0.0,4.8071,4.9593,0.0,0.0,5.5716,5.9674,6.2719,6.5831,6.9113,7.0648,7.075,6.9451,6.9062,6.8314,6.7392,0.0,0.0,6.5804,6.4819,6.4049,6.362,6.392,6.3723,0.0,0.0,0.0,0.0,0.0,0.0,0.0,0.0,6.9229,7.1908,7.323,7.5506,7.7818,7.8332,8.0241,8.248,8.3801,8.5747,8.8316,9.2134,9.2648,9.2721,9.463,9.529,9.5584,9.5841,9.5658,9.5721,9.6749,9.7832,9.8734,9.8688,9.9941,10.0411,9.8871,10.0361,0.0,0.0,0.0,0.0,0.0,0.0,0.0,0.0,0.0,0.0,0.0,10.089,10.1893,10.2787,10.3321,10.3912,10.4701,10.4988,10.5777,10.7103,10.7318,10.6842,10.6066,10.6597,10.7061,10.7452,10.7452,10.7803,10.8251,10.8251,10.8251,10.8353,10.9318,10.9643,10.9738,11.0844,11.1221,11.1221,0.0,0.0,0.0,0.0,0.0,0.0,0.0,0.0,0.0,0.0,0.0,0.0,0.0,0.0,0.0,0.0,0.0,0.0,4.7868,4.9255,5.0405,5.1183,5.3382,5.5953,5.893,6.1975,6.5358,6.9113,7.0801,7.0354,6.798,6.9875,6.9906,0.0,0.0,0.0,6.7389,6.5826,6.5238,6.5264,6.442,6.409,6.3929,0.0,0.0,0.0,0.0,0.0,0.0,0.0,7.0477,7.2899,7.5322,7.7231,7.8919,8.0534,8.1599,8.2737,8.5159,8.6995,8.9014,9.2317,9.3125,9.3749,9.6135,9.6061,9.5731,9.6539,9.7346,9.8154,9.8998,9.9341,9.9786,10.0489,10.206,10.2462,10.0412,10.2481,0.0,0.0,0.0,0.0,0.0,0.0,0.0,0.0,0.0,0.0,0.0,10.2822,10.4297,10.4297,10.5699,10.678,10.7587,10.8395,10.9202,10.9973,11.0817,10.9679,10.6774,10.6774,10.7627,10.8953,10.8953,10.9833,11.1221,11.1221,11.1221,11.1221,11.1221,11.1221,11.1221,11.1221,11.1221,11.1221,0.0,0.0,0.0,0.0,0.0,0.0,0.0,0.0,0.0,0.0,0.0,0.0,0.0,0.0,0.0,0.0,0.0,0.0,4.7902,4.8815,4.9898,5.1183,5.2334,5.4397,5.7408,6.2015,6.6308,7.0093,7.0414,7.0388,6.9952,6.991,0.0,6.9408,0.0,0.0,0.0,6.7359,6.6591,6.6109,6.5888,6.5118,6.4053,0.0,0.0,0.0,0.0,0.0,0.0,0.0,0.0,0.0,7.5175,7.7231,7.8919,8.0534,8.2774,8.5123,8.6995,8.9087,0.0,9.4116,9.4813,9.5144,9.6428,9.5658,9.5034,9.6428,9.8668,10.0503,10.0686,10.1799,10.2717,10.3127,10.3945,10.4037,10.2634,10.3516,0.0,0.0,0.0,0.0,0.0,0.0,0.0,0.0,0.0,0.0,0.0,10.3844,10.4779,10.5714,10.6682,10.7587,10.8395,10.9202,11.001,11.0817,11.1111,11.0717,10.9905,10.9905,11.0093,11.0499,11.0499,11.0791,11.1221,11.1221,11.1221,11.1221,11.1221,11.1221,11.1221,11.1221,11.1221,11.1221,0.0,0.0,0.0,0.0,0.0,0.0,0.0,0.0,4.6682,4.6305,4.6636,4.6618,0.0,0.0,0.0,4.741,4.7715,0.0,4.8694,4.9202,5.0255,5.2033,5.2819,5.4761,5.8117,6.2226,6.5994,6.9349,7.0469,7.0566,6.9797,0.0,0.0,7.0843,0.0,7.0821,6.9816,6.8972,6.8201,6.743,6.71,6.6182,6.5007,0.0,0.0,0.0,0.0,0.0,0.0,0.0,0.0,0.0,7.6056,7.8002,7.958,8.215,8.4499,8.6669,8.8436,9.063,0.0,9.4312,9.4911,9.5327,9.6428,9.6208,9.6171,9.7787,9.9916,10.1604,10.1898,10.3293,0.0,10.4143,10.4874,10.5173,10.393,10.4455,0.0,0.0,0.0,0.0,0.0,0.0,0.0,0.0,0.0,0.0,0.0,10.4798,10.572,10.6816,10.7294,10.8101,10.9276,10.979,11.0414,11.1221,11.1221,11.1221,11.1221,11.1221,11.1221,11.1221,11.1221,11.1221,11.1221,11.1221,11.1221,11.1221,11.1221,11.1221,11.1221,11.1221,11.1221,11.1221,0.0,0.0,0.0,0.0,0.0,0.0,0.0,4.7911,4.7578,4.7493,4.7778,4.7951,0.0,0.0,0.0,4.9882,4.886,4.866,4.9941,5.0051,5.111,5.329,5.4287,5.6466,5.9972,6.2298,6.4702,6.7389,7.0318,7.0626,0.0,0.0,7.3775,7.2263,0.0,7.2826,0.0,7.0367,6.9559,6.8862,6.8091,6.7247,6.6329,6.5742,0.0,0.0,0.0,0.0,0.0,0.0,0.0,0.0,7.7635,7.9213,8.0571,8.4535,8.6371,8.7555,8.9603,9.1672,9.3414,9.3815,9.4263,0.0,9.6465,9.753,9.8594,9.9989,10.109,10.1898,10.2705,10.41,10.4908,10.421,10.5385,10.5997,10.4743,0.0,0.0,0.0,0.0,0.0,0.0,0.0,0.0,0.0,0.0,0.0,0.0,10.5823,10.678,10.7587,10.7697,10.8505,10.9973,11.0083,11.0487,0.0,11.1221,11.1221,11.1221,11.1221,11.1221,11.1221,11.1221,11.1221,11.1221,11.1221,11.1221,11.1221,11.1221,11.1221,11.1221,11.1221,11.1221,11.1295,0.0,0.0,0.0,0.0,0.0,0.0,4.8306,4.8779,4.894,4.841,4.9386,4.9727,4.8733,4.9603,0.0,5.0019,4.9722,4.9666,4.9976,5.0034,5.0794,5.2552,5.5038,5.7087,5.8437,6.0838,6.3163,6.5445,6.7398,6.9108,0.0,0.0,0.0,7.1604,0.0,7.2826,0.0,6.9779,6.9082,6.8898,6.8715,6.7393,6.5705,6.6769,6.5778,0.0,0.0,0.0,0.0,0.0,0.0,0.0,7.8295,7.9653,8.0461,8.3838,8.6334,8.8429,9.074,9.3196,9.5141,9.5826,9.6568,9.7199,9.7566,9.9218,10.0613,10.0393,10.1898,10.3403,10.3586,10.443,10.5311,10.5789,10.6192,10.6291,10.5997,10.6169,0.0,0.0,0.0,0.0,0.0,0.0,0.0,0.0,0.0,0.0,10.5997,10.6841,10.7367,10.7587,10.8799,10.9679,10.9973,11.0597,11.1001,0.0,11.1221,11.1221,11.1221,11.1221,11.1221,11.1221,11.1221,11.1221,11.1221,11.1221,11.1221,11.1221,11.1221,11.1221,11.1221,11.1221,11.1588,11.2102,0.0,0.0,0.0,0.0,0.0,0.0,0.0,0.0,4.9621,4.9664,5.0675,5.1109,5.0435,5.103,0.0,0.0,5.0925,5.0662,5.0946,5.0716,5.1419,5.3387,5.5667,5.7382,5.856,6.0192,6.2161,6.4518,6.5682,6.7608,0.0,0.0,0.0,7.1945,0.0,7.323,0.0,0.0,7.0403,7.0073,7.0073,6.8825,6.7173,6.8385,6.7834,6.6549,6.776,0.0,0.0,0.0,0.0,0.0,0.0,0.0,8.0424,8.3654,8.604,8.8175,9.0805,9.3481,9.5804,9.6979,9.7566,9.808,9.8851,10.0613,10.2081,10.2008,10.2999,10.388,10.388,10.4614,10.5201,10.5715,10.6119,10.6376,10.6376,10.6376,0.0,0.0,0.0,0.0,0.0,0.0,0.0,0.0,0.0,10.6376,10.6376,10.7183,10.7771,10.8175,10.9386,11.0193,11.0597,11.1001,11.1221,11.1221,11.1221,11.1221,11.1221,11.1221,11.1221,11.1221,11.1221,11.1221,11.1221,11.1221,11.1221,11.1221,11.1221,11.1221,11.1221,11.1588,11.1992,11.2506,0.0,0.0,0.0,0.0,0.0,0.0,0.0,0.0,0.0,5.0912,5.172,5.2197,5.2197,5.2243,5.2554,0.0,0.0,0.0,5.2065,5.1736,5.2401,5.4494,5.5988,5.747,5.8981,5.988,6.1547,6.387,6.4824,0.0,0.0,0.0,0.0,7.2349,0.0,0.0,0.0,0.0,0.0,0.0,7.2018,7.1101,6.9633,7.0734,7.055,6.9853,7.0807,7.1908,7.3156,7.4771,0.0,0.0,0.0,0.0,8.0571,8.3544,8.5747,8.7774,9.0559,9.3425,9.6098,9.7713,9.8007,9.83,9.9916,10.1494,10.2889,10.3586,10.388,10.41,10.41,10.4687,10.5128,10.5311,10.5899,10.6376,10.6376,10.6376,10.6376,0.0,0.0,0.0,0.0,0.0,0.0,0.0,0.0,10.6486,10.6596,10.7367,10.8175,10.8982,10.979,11.0487,11.1221,11.1221,11.1221,11.1221,11.1221,11.1221,11.1221,11.1221,11.1221,11.1221,11.1221,11.1221,11.1221,11.1221,11.1221,11.1221,11.1221,11.1295,11.1515,11.2212,11.2579,11.291,0.0,0.0,0.0,0.0,0.0,0.0,0.0,0.0,0.0,0.0,5.2527,5.3041,5.3041,5.303,5.3103,5.3225,5.2427,5.2018,5.2112,0.0,0.0,5.4445,5.6004,5.7218,5.8223,5.9625,6.1239,6.2989,6.4567,0.0,0.0,0.0,0.0,0.0,0.0,0.0,0.0,0.0,0.0,0.0,0.0,7.4074,7.2275,7.4478,7.4368,7.3266,7.4771,7.4992,7.4845,7.646,7.6607,0.0,0.0,0.0,8.1195,8.303,8.571,8.861,9.107,9.4114,9.6942,9.8557,9.8411,9.83,9.9916,10.1494,10.2705,10.2815,10.399,10.4908,10.4908,10.5018,10.5311,10.6082,10.6302,10.6376,10.6376,10.6376,10.6376,0.0,0.0,0.0,0.0,0.0,0.0,0.0,10.6376,10.6706,10.7367,10.8175,10.8982,10.979,11.0597,11.1111,11.1221,11.1221,11.1221,11.1221,11.1221,11.1221,11.1221,11.1221,11.1221,11.1221,11.1221,11.1221,11.1221,11.1221,11.1221,11.1221,11.1221,11.1588,11.2286,11.2396,11.3313,11.4488,0.0,0.0,0.0,0.0,0.0,0.0,0.0,0.0,0.0,0.0,0.0,5.3225,5.3225,5.3225,5.3225,5.3225,5.2893,5.2725,5.2725,5.3053,5.3781,5.5057,5.577,5.6722,5.8008,5.9578,6.075,6.1484,0.0,0.0,0.0,6.9486,7.0881,0.0,0.0,0.0,0.0,0.0,0.0,0.0,0.0,7.6166,7.5322,7.6387,7.6937,7.7157,7.7414,7.7561,7.7745,7.8479,7.8479,7.8295,7.9029,0.0,0.0,0.0,8.5049,8.7766,9.206,9.4556,9.6502,9.8594,9.9181,9.9548,10.0686,10.1898,10.3109,10.4504,10.5311,10.5715,10.5201,10.5128,10.5422,10.6302,10.6376,10.6376,10.6376,10.6376,10.6376,0.0,0.0,0.0,0.0,0.0,0.0,0.0,10.678,10.7183,10.7587,10.8799,10.9606,10.9973,11.0817,11.1221,11.1221,11.1221,11.1221,11.1221,11.1221,11.1221,11.1221,11.1221,11.1221,11.1221,11.1221,11.1221,11.1221,11.1221,11.1515,11.1882,11.1882,11.2396,11.3093,11.3607,11.4194,11.4892,0.0,0.0,0.0,0.0,0.0,0.0,0.0,0.0,0.0,0.0,0.0,5.3225,5.3225,0.0,0.0,0.0,5.3225,5.3298,5.3482,5.3518,5.4216,5.5831,5.5904,5.6565,5.796,5.9391,6.0199,6.0419,0.0,0.0,6.7136,6.9155,7.0954,0.0,7.2716,0.0,0.0,0.0,0.0,0.0,0.0,7.8736,7.8589,7.9029,7.9947,8.0938,8.0351,8.0241,8.0388,8.0388,8.0131,7.9837,8.0021,8.1195,0.0,0.0,0.0,8.7986,9.2427,9.4556,9.6061,9.8521,9.9255,9.9769,10.12,10.2008,10.2999,10.5018,10.6082,10.6413,10.5605,10.5605,10.5899,10.6302,10.6376,10.6376,10.6376,10.6376,10.6376,0.0,0.0,0.0,0.0,0.0,0.0,0.0,10.7073,10.7697,10.7881,10.9202,11.0083,11.0304,11.0891,11.1221,11.1221,11.1221,11.1221,11.1221,11.1221,11.1221,11.1221,11.1221,11.1221,11.1221,11.1221,11.1221,11.1221,11.1405,11.1882,11.2396,11.2616,11.3203,11.3974,11.4598,11.4892,11.5185,0.0,0.0,0.0,0.0,0.0,0.0,0.0,0.0,0.0,0.0,0.0,5.3225,5.3225,5.3225,5.3225,5.3225,5.3225,5.3518,5.4289,5.4326,5.506,5.6675,5.6748,0.0,5.796,5.8841,5.9648,0.0,0.0,0.0,6.8788,6.9669,7.2165,7.5799,7.4294,7.4955,7.7268,0.0,0.0,0.0,0.0,0.0,8.2113,8.3654,8.4278,8.4352,0.0,0.0,0.0,8.2076,8.1048,7.991,8.0681,8.2039,8.3508,0.0,0.0,0.0,9.1657,9.3675,9.6098,9.8521,9.797,9.7713,10.0796,10.1494,10.1824,10.2705,10.5385,10.7294,10.6486,10.7,10.7183,10.6486,10.6376,10.6376,10.6376,10.6376,10.6376,10.6376,0.0,0.0,0.0,0.0,0.0,0.0,10.7073,10.7881,10.8688,10.9496,11.0304,11.1111,11.1221,11.1221,11.1221,11.1221,11.1221,11.1221,11.1221,11.1221,11.1221,11.1221,11.1221,11.1221,11.1221,11.1221,11.1295,11.1992,11.2396,11.2506,11.3203,11.4011,11.4708,11.4818,11.5296,11.5883,0.0,0.0,0.0,0.0,0.0,0.0,0.0,0.0,0.0,0.0,0.0,0.0,0.0,5.3665,5.3959,5.3959,5.3959,5.3885,5.3665,5.4106,0.0,5.5978,5.6528,5.7189,5.796,5.8804,0.0,0.0,0.0,6.6476,7.0477,7.1248,7.323,7.6056,7.5506,7.6019,7.7378,7.8222,0.0,0.0,0.0,0.0,0.0,0.0,0.0,0.0,0.0,0.0,0.0,0.0,0.0,0.0,0.0,8.3728,8.4425,8.5747,8.7178,8.8793,9.1143,9.2464,9.3969,9.7456,9.83,9.8814,10.098,10.1494,10.2008,10.3917,10.5605,10.689,10.7073,10.7367,10.7477,10.7183,10.6706,10.6376,10.6376,10.6376,10.6376,10.6376,0.0,0.0,0.0,0.0,0.0,0.0,0.0,10.8505,10.8799,11.0083,11.0891,11.1221,11.1221,11.1221,11.1221,11.1221,11.1221,11.1221,11.1221,11.1221,11.1221,11.1221,11.1221,11.1221,11.1698,11.1992,11.1992,11.2286,11.2983,11.4011,11.4305,11.4892,11.5589,11.5589,11.5773,11.5993,0.0,0.0,0.0,0.0,0.0,0.0,0.0,0.0,0.0,0.0,0.0,0.0,0.0,0.0,5.4803,5.4803,5.506,5.4987,5.4436,5.4913,5.5574,5.6345,5.6932,5.7446,5.7997,0.0,0.0,0.0,0.0,0.0,0.0,0.0,7.367,7.6497,7.624,0.0,0.0,0.0,0.0,8.0351,0.0,0.0,8.4792,0.0,0.0,0.0,0.0,0.0,0.0,0.0,0.0,0.0,0.0,8.604,8.5967,8.6775,8.7215,8.7949,9.0335,9.162,9.3015,9.6282,9.7897,9.9108,10.0686,10.1274,10.1971,10.3586,10.5201,10.6486,10.6706,10.7404,10.7881,10.7587,10.689,10.6376,10.6376,10.6376,10.6376,10.6376,0.0,0.0,0.0,0.0,0.0,0.0,0.0,0.0,10.8799,11.0083,11.0891,11.1221,11.1221,11.1221,11.1221,11.1221,11.1221,11.1221,11.1221,11.1221,11.1221,11.1221,11.1295,11.1588,11.2212,11.2396,11.2396,11.2983,11.3791,11.4818,11.5112,11.5516,11.5993,11.5993,11.5993,11.5993,0.0,0.0,0.0,0.0,0.0,0.0,0.0,0.0,0.0,0.0,0.0,0.0,0.0,0.0,0.0,5.5721,5.6418,5.6859,5.6822,5.6822,5.7189,5.7923,5.7997,0.0,0.0,0.0,0.0,0.0,0.0,0.0,0.0,0.0,7.3487,0.0,7.646,7.7047,7.8626,0.0,8.0241,8.1232,0.0,8.4646,8.5013,0.0,0.0,0.0,8.9271,8.9564,0.0,8.9528,0.0,0.0,0.0,8.8867,8.8059,8.7252,8.7582,8.839,0.0,0.0,0.0,9.507,9.6649,9.8264,9.9879,10.0907,10.1494,10.1494,10.41,10.6082,10.5311,10.711,10.8505,10.7771,10.7,10.6413,10.6413,10.6376,10.6376,10.6376,0.0,0.0,0.0,0.0,0.0,0.0,10.7073,10.7991,10.8799,10.9606,11.0377,11.1221,11.1221,11.1221,11.1221,11.1221,11.1221,11.1221,11.1221,11.1221,11.1221,11.1221,11.1625,11.2396,11.2396,11.2396,11.2579,11.4194,11.4818,11.4892,11.5699,11.5993,11.5993,11.5993,11.5993,11.5993,0.0,0.0,0.0,0.0,0.0,5.6859,5.8033,5.84,0.0,0.0,0.0,0.0,0.0,0.0,0.0,5.9061,5.8767,5.807,5.6895,5.7336,5.7519,5.7152,5.7703,5.8547,5.9722,0.0,0.0,0.0,0.0,0.0,0.0,0.0,0.0,0.0,7.657,7.7231,7.7781,7.9176,0.0,0.0,8.4242,8.582,0.0,0.0,0.0,0.0,0.0,9.2574,9.2097,0.0,9.0739,8.9014,0.0,8.8793,8.883,8.7435,8.7582,8.8243,8.8463,0.0,0.0,0.0,0.0,0.0,9.8924,10.0099,10.098,10.2118,10.3586,10.4908,10.5899,10.6596,10.7404,10.8285,10.7771,10.7294,10.7294,10.678,10.6376,10.6376,0.0,0.0,0.0,0.0,0.0,0.0,10.7073,10.7991,10.8799,11.012,11.1001,11.1221,11.1221,11.1221,11.1221,11.1221,11.1221,11.1221,11.1221,11.1221,11.1221,11.1221,11.1625,11.2396,11.2983,11.3607,11.4194,11.4598,11.5112,11.5699,11.5883,11.5993,11.5993,11.5993,11.5993,11.5993,0.0,0.0,5.6748,5.7226,5.8143,5.9134,6.0052,6.0786,6.152,0.0,0.0,0.0,0.0,0.0,0.0,0.0,6.152,6.0566,5.8914,5.9245,5.9428,5.9318,5.9758,6.0786,6.2401,0.0,0.0,0.0,0.0,0.0,0.0,0.0,0.0,0.0,0.0,0.0,7.7011,0.0,0.0,0.0,8.5013,0.0,0.0,9.1473,9.2427,0.0,0.0,0.0,9.3639,9.4006,9.3161,0.0,0.0,8.9784,8.9601,8.7986,8.7582,8.7766,8.8096,8.905,9.0445,9.2721,0.0,0.0,9.8631,9.9989,10.12,10.2412,10.3293,10.421,10.5201,10.5605,10.6413,10.7991,10.7587,10.7294,10.7991,10.7697,10.7294,10.689,0.0,0.0,0.0,10.7183,10.7294,10.689,10.7294,10.7991,10.8799,11.001,11.0891,11.1221,11.1221,11.1221,11.1221,11.1221,11.1221,11.1221,11.1221,11.1221,11.1221,11.1515,11.2102,11.291,11.3791,11.4598,11.5296,11.5296,11.5589,11.5993,11.5993,11.5993,11.5993,11.5993,11.5993,11.5993,0.0,0.0,5.8217,5.8474,6.0382,6.1924,6.2108,6.3539,6.4897,0.0,0.0,0.0,0.0,0.0,0.0,0.0,6.464,6.3943,6.2365,6.2365,6.2695,6.3319,6.3282,6.4016,6.5668,6.6402,6.754,0.0,0.0,0.0,0.0,0.0,0.0,0.0,7.5836,7.6387,7.6937,8.1379,0.0,8.3141,8.6187,8.7839,0.0,0.0,9.3492,9.2427,9.4006,9.4556,9.4666,9.529,9.5511,0.0,0.0,0.0,9.0665,8.8867,8.7949,8.7655,8.8206,8.9454,9.0812,9.1657,9.4189,0.0,9.8374,9.9952,10.1384,10.2191,10.2999,10.3586,10.3696,10.4394,10.5422,10.7073,10.6706,10.689,10.8578,10.8688,10.8395,10.7771,0.0,0.0,10.7771,10.8395,10.8505,10.7771,10.7697,10.7991,10.8799,10.9569,11.0304,11.1001,11.1184,11.1221,11.1221,11.1221,11.1221,11.1221,11.1221,11.1221,11.1221,11.1992,11.28,11.3607,11.4488,11.5296,11.5993,11.5993,11.5993,11.5993,11.5993,11.5993,11.5993,11.5993,11.5993,11.5993,5.84,5.8767,5.9575,6.152,6.2842,6.4053,6.5338,6.6916,6.8017,0.0,0.0,0.0,0.0,0.0,0.0,0.0,0.0,6.754,6.6549,6.71,6.7247,6.6769,6.6109,6.6549,6.8164,6.8348,6.9229,7.0844,0.0,0.0,0.0,0.0,0.0,0.0,0.0,7.8185,8.0167,0.0,0.0,8.7215,8.9124,0.0,9.0519,9.3969,9.507,9.4923,9.5878,9.6245,9.6171,9.5694,9.5511,9.5217,0.0,0.0,0.0,9.0041,8.9968,9.0629,8.9491,8.9895,9.0812,9.162,9.3308,0.0,9.5988,9.7456,9.8998,10.0503,10.0907,10.1384,10.2705,10.3109,10.3696,10.5311,10.5495,10.6192,10.8505,10.8211,10.7991,10.8505,0.0,0.0,10.8578,10.8688,10.8688,10.8578,10.8578,10.8615,10.8799,10.9569,11.0083,11.0193,11.0891,11.1221,11.1221,11.1221,11.1221,11.1221,11.1221,11.1221,11.1221,11.1992,11.28,11.3607,11.4488,11.5296,11.5993,11.5993,11.5993,11.5993,11.5993,11.5993,11.5993,11.5993,11.5993,11.5993,5.9134,5.9869,6.1043,6.3099,6.4457,6.5962,6.7981,6.8972,0.0,0.0,0.0,0.0,0.0,0.0,0.0,0.0,0.0,0.0,7.0146,7.0477,7.0513,7.011,6.9706,7.0073,7.1284,7.0917,7.1101,7.1908,0.0,0.0,0.0,0.0,0.0,0.0,0.0,0.0,0.0,0.0,8.5159,8.7215,8.9638,0.0,9.2721,9.518,9.5878,9.5621,9.6428,9.6942,9.7236,9.6832,9.6685,0.0,9.4813,9.4299,9.3896,0.0,9.151,9.1546,9.0335,9.0592,9.1216,9.1216,9.2758,0.0,0.0,9.7346,9.8851,10.0099,10.0613,10.109,10.1971,10.1788,10.2191,10.421,10.421,10.4614,10.6706,10.7294,10.7881,10.8688,0.0,0.0,10.9386,10.979,10.979,10.9386,10.9019,10.8982,10.9386,10.979,11.0193,11.0597,11.1001,11.1221,11.1221,11.1221,11.1221,11.1221,11.1221,11.1221,11.1221,11.2396,11.3203,11.3681,11.4892,11.5589,11.5993,11.5993,11.5993,11.5993,11.5993,11.5993,11.5993,11.5993,11.5993,11.5993,5.9795,6.0823,6.2365,6.4016,6.5778,6.7724,7.0,7.0587,0.0,0.0,0.0,0.0,0.0,0.0,0.0,0.0,0.0,0.0,0.0,7.4368,7.4368,7.4368,7.378,7.3744,7.4368,7.3303,7.2716,7.2716,0.0,0.0,0.0,0.0,0.0,0.0,0.0,0.0,0.0,0.0,0.0,8.7215,0.0,9.2501,9.4483,9.6245,9.6539,9.6025,9.6539,9.7199,9.7897,9.7897,9.7897,9.764,9.6208,9.5401,0.0,0.0,9.2941,9.2354,9.1546,9.1803,9.2134,9.1473,9.2941,9.485,0.0,0.0,0.0,9.9475,10.0209,10.0796,10.0796,10.0503,10.0907,10.2705,0.0,10.2889,10.421,10.5789,0.0,10.8395,10.9386,0.0,0.0,11.0707,11.0891,11.0304,10.9496,10.9312,10.9973,11.0083,11.0487,11.1001,11.1295,11.1405,11.1221,11.1221,11.1221,11.1221,11.1221,11.1221,11.1295,11.2873,11.357,11.3681,11.5296,11.5993,11.5993,11.5993,11.5993,11.5993,11.5993,11.5993,11.5993,11.5993,11.5993,11.5993,6.1887,6.2071,6.3209,6.4897,6.71,6.9192,7.0917,7.2386,0.0,0.0,0.0,0.0,0.0,0.0,0.0,0.0,0.0,0.0,8.1085,0.0,8.1085,8.1085,7.8332,7.6827,7.69,7.4698,7.356,7.356,7.2753,0.0,0.0,0.0,0.0,0.0,8.215,0.0,0.0,0.0,9.0482,0.0,9.3125,9.4042,0.0,9.6869,9.7713,9.753,9.6906,9.7199,9.7897,0.0,9.7897,9.775,0.0,9.6979,9.7052,9.4813,9.4593,9.4923,9.4079,9.3932,9.3969,9.3896,9.463,9.5437,9.5584,0.0,9.7016,9.7089,0.0,9.83,9.83,0.0,0.0,9.9732,10.0796,10.1677,10.1898,10.3293,10.5201,10.7477,10.9092,0.0,0.0,11.0707,11.1184,11.1111,11.0304,10.99,10.9973,11.0707,11.0781,11.0193,11.1515,11.1919,11.1221,11.1221,11.1221,11.1221,11.1221,11.1221,11.1295,11.2873,11.357,11.3681,11.5296,11.5993,11.5993,11.5993,11.5993,11.5993,11.5993,11.5993,11.5993,11.5993,11.5993,11.5993,6.4971,6.5485,6.7026,6.9119,7.0697,7.2386,7.4478,7.5799,0.0,0.0,0.0,0.0,0.0,0.0,0.0,0.0,0.0,8.4609,0.0,0.0,8.3471,8.1599,7.9727,7.8295,7.7341,7.5836,7.5102,7.5102,7.4735,7.5175,0.0,0.0,0.0,0.0,8.4462,0.0,8.7142,0.0,9.2794,0.0,0.0,0.0,0.0,9.7163,9.7493,9.8043,9.9108,9.9402,9.9292,0.0,9.9292,0.0,0.0,0.0,0.0,9.6795,9.6612,9.6612,9.5327,9.5694,9.6171,9.5217,9.6318,9.7236,9.5804,9.6135,9.6428,9.5511,0.0,0.0,0.0,0.0,0.0,0.0,10.109,10.1494,10.1494,10.3293,10.5018,10.6009,0.0,0.0,0.0,0.0,0.0,0.0,0.0,11.0193,11.0707,11.1001,11.1295,11.1405,11.2506,11.2689,11.1919,11.1919,11.1698,11.1221,11.1221,11.1221,11.1295,11.2873,11.357,11.3681,11.5296,11.5993,11.5993,11.5993,11.5993,11.5993,11.5993,11.5993,11.5993,11.5993,11.5993,11.5993,6.9229,6.9229,7.0183,7.2165,7.334,7.4845,7.7304,7.8956,0.0,0.0,0.0,0.0,8.6334,8.7582,0.0,0.0,8.8206,8.8206,0.0,0.0,8.6151,8.4058,8.1929,0.0,7.9323,7.7671,7.679,7.679,7.679,7.7194,0.0,0.0,0.0,0.0,0.0,8.7655,8.8977,0.0,9.4116,9.529,9.6539,9.8007,9.9292,9.8117,9.83,9.9402,10.098,10.1274,10.098,10.098,10.098,0.0,10.0319,0.0,9.9585,9.8778,9.8374,9.797,9.6795,0.0,0.0,0.0,0.0,0.0,0.0,9.6759,9.6906,9.529,9.6245,0.0,0.0,0.0,9.9732,10.0686,0.0,10.1384,10.12,10.3109,10.4504,10.4724,0.0,0.0,0.0,0.0,0.0,0.0,0.0,0.0,11.0891,11.1295,11.1698,11.2102,11.3093,11.3277,11.2689,11.2506,11.2102,11.1515,11.1295,11.1221,11.1295,11.2873,11.357,11.3681,11.5296,11.5993,11.5993,11.5993,11.5993,11.5993,11.5993,11.5993,11.5993,11.5993,11.5993,11.5993,7.4955,7.2789,7.1505,7.2349,7.3817,7.5726,7.8185,8.1232,0.0,0.0,0.0,0.0,0.0,0.0,0.0,0.0,0.0,9.2868,9.2831,0.0,9.0739,9.1436,8.6224,8.3618,0.0,8.0534,7.8516,7.8516,7.8516,7.8919,7.9727,8.0534,8.0975,8.1269,8.5233,8.7031,8.7399,9.2207,9.4299,9.452,9.6906,9.8814,10.0283,0.0,10.12,10.2485,10.1788,0.0,0.0,10.2595,10.2595,0.0,0.0,0.0,0.0,0.0,0.0,0.0,0.0,0.0,0.0,9.8814,0.0,0.0,0.0,0.0,9.8594,9.6942,9.7897,9.8778,9.8043,9.9181,9.9989,9.9292,10.0503,0.0,0.0,10.1714,10.3109,10.3806,10.6082,0.0,0.0,0.0,0.0,0.0,0.0,0.0,11.0083,11.1478,11.1992,11.1295,11.28,11.357,11.357,11.28,11.2396,11.2396,11.1588,11.1221,11.1295,11.2873,11.357,11.3681,11.5296,11.5993,11.5993,11.5993,11.5993,11.5993,11.5993,11.5993,11.5993,11.5993,11.5993,11.5993,7.8944,7.7777,7.6827,7.657,7.7855,7.958,8.1489,8.3141,0.0,0.0,0.0,0.0,0.0,9.1289,9.1803,0.0,0.0,9.2868,9.2281,9.1693,0.0,0.0,0.0,8.538,0.0,8.2774,8.0718,8.0204,8.0718,8.0865,8.0608,8.1966,8.259,8.281,8.7362,9.0005,0.0,0.0,0.0,0.0,0.0,10.0099,10.109,0.0,0.0,10.1898,10.2191,10.2485,0.0,10.2705,10.3109,10.3513,10.3513,10.3293,10.2889,10.2118,10.1714,0.0,0.0,0.0,10.1604,10.0209,0.0,0.0,0.0,0.0,9.8484,9.6355,9.6355,9.6979,9.775,9.8778,9.9769,10.0576,10.109,10.1604,0.0,10.2815,10.3586,10.388,10.4614,10.5605,0.0,0.0,0.0,0.0,0.0,0.0,0.0,11.1295,11.1515,11.1221,11.3313,11.3901,11.28,11.3607,11.3497,11.2396,11.2102,11.1698,11.1295,11.2873,11.357,11.3681,11.5296,11.5993,11.5993,11.5993,11.5993,11.5993,11.5993,11.5993,11.5993,11.5993,11.5993,11.5993,8.0576,8.0321,8.0057,7.9543,8.1012,8.2737,0.0,0.0,0.0,0.0,9.0482,0.0,9.2611,0.0,9.3125,0.0,9.3896,9.4263,9.3969,9.3161,0.0,9.3932,9.0115,0.0,0.0,8.6151,8.3948,8.3141,8.281,8.237,8.1893,8.292,8.3728,8.4389,8.7802,9.0739,9.3198,9.4777,9.7273,0.0,0.0,10.0796,0.0,0.0,10.2008,10.2889,0.0,10.399,10.399,10.399,10.4394,10.4798,10.4798,10.4798,10.4687,10.421,10.399,10.3696,10.2412,10.2889,0.0,10.2008,10.2925,0.0,10.0613,0.0,9.9879,9.8007,9.764,9.8117,9.9732,9.9989,10.0393,10.1677,10.1677,10.1788,0.0,10.3109,10.3513,10.3513,10.3696,10.4687,10.6596,0.0,0.0,0.0,0.0,0.0,0.0,0.0,11.1515,11.1221,11.302,11.3717,11.3277,11.4011,11.4011,11.3203,11.2689,11.2102,11.1698,11.2983,11.357,11.3681,11.5296,11.5993,11.5993,11.5993,11.5993,11.5993,11.5993,11.5993,11.5993,11.5993,11.5993,11.5993,8.0555,8.0745,8.1269,8.1305,8.3177,0.0,0.0,0.0,8.9821,0.0,9.217,9.3455,9.4226,9.5034,9.5511,9.5511,9.6245,9.7052,9.7823,9.5658,0.0,0.0,9.4079,9.2721,9.4373,0.0,0.0,8.7068,8.4682,8.3508,8.3398,8.3544,8.4425,8.5967,8.6848,8.9491,9.3272,9.3272,9.5144,9.808,9.808,10.0907,10.4834,10.2595,10.3109,10.5311,10.6009,10.6302,10.6302,10.6302,10.6376,10.6376,10.6376,10.6413,10.6486,10.6486,10.6486,10.6302,10.5495,10.4687,10.41,10.399,0.0,0.0,0.0,0.0,10.2522,10.1677,10.1494,10.1971,10.3476,10.2595,10.1788,10.2522,10.2008,10.1788,10.2522,10.2705,10.2705,10.2705,10.3403,10.4798,10.7183,10.7477,0.0,0.0,0.0,11.1698,0.0,0.0,11.1992,11.1184,11.1992,11.3093,11.4708,11.3974,11.4011,11.4818,11.3203,11.2396,11.2396,11.3203,11.357,11.3681,11.5296,11.5993,11.5993,11.5993,11.5993,11.5993,11.5993,11.5993,11.5993,11.5993,11.5993,11.5993,8.5102,8.4694,8.4756,0.0,8.5967,8.6664,0.0,0.0,0.0,0.0,9.3345,9.4079,9.4263,9.5034,9.5511,9.5511,9.6245,0.0,0.0,0.0,0.0,9.8704,9.4923,9.3822,9.6025,9.151,8.872,8.7876,8.6077,8.4572,8.3471,8.5233,8.6628,8.7655,8.9674,9.2501,9.5768,9.5768,9.764,10.0576,10.0576,10.2412,0.0,0.0,10.4981,10.5899,10.4908,10.4908,10.5422,10.5422,10.5899,10.6376,10.6376,10.678,10.7294,10.7294,10.7697,10.7991,10.7183,10.7183,10.7294,10.6082,10.6082,10.5972,0.0,0.0,0.0,0.0,0.0,0.0,0.0,10.2301,10.2301,10.1898,10.2118,10.2301,10.1898,10.2301,0.0,10.2705,0.0,0.0,0.0,0.0,0.0,0.0,0.0,0.0,11.0891,0.0,0.0,11.0377,11.1698,11.2579,11.2983,11.4011,11.4598,11.4818,11.3791,11.2983,11.2396,11.3203,11.357,11.3681,11.5296,11.5993,11.5993,11.5993,11.5993,11.5993,11.5993,11.5993,11.5993,11.5993,11.5993,11.5993,8.7426,0.0,0.0,8.7435,0.0,0.0,8.9856,0.0,0.0,9.452,9.507,0.0,9.6318,9.6502,9.6685,9.7052,9.7493,0.0,9.8888,0.0,0.0,9.9548,9.7126,9.6355,9.7713,9.4703,0.0,9.0335,8.9087,8.7435,8.5563,8.7252,8.85,8.9307,9.1033,9.3418,9.6245,9.7309,9.9181,10.1494,10.1898,0.0,0.0,10.5789,10.6413,10.7183,10.5605,10.5311,10.5715,10.5715,10.6009,10.6376,10.6376,10.6963,10.7661,10.7991,10.8688,10.9202,10.8799,10.8982,10.8982,10.7807,10.7807,10.7771,10.6486,10.5789,10.5385,0.0,0.0,10.3403,0.0,0.0,10.3513,10.2705,10.2889,10.3109,0.0,0.0,0.0,0.0,10.3513,0.0,0.0,0.0,0.0,0.0,0.0,0.0,0.0,0.0,11.1588,11.1074,11.1588,11.2212,11.291,11.3791,11.4598,11.5296,11.4194,11.3387,11.291,11.3387,11.357,11.3681,11.5296,11.5993,11.5993,11.5993,11.5993,11.5993,11.5993,11.5993,11.5993,11.5993,11.5993,11.5993,8.9273,0.0,0.0,0.0,0.0,0.0,0.0,9.3966,0.0,9.6649,0.0,9.75,9.8778,9.8521,9.8521,9.9365,0.0,9.9916,10.0686,9.9365,9.9108,10.0393,9.9695,9.9255,9.9255,9.8374,9.6465,0.0,9.2758,9.1106,8.8683,8.9638,9.0408,9.1143,9.1913,9.3712,9.6282,9.8594,10.0503,10.2008,10.2889,10.4981,10.7697,10.689,10.7477,10.8615,10.7,10.6376,10.6376,10.6376,10.6376,10.6376,10.6376,10.6963,10.7697,10.8395,10.9276,10.9973,10.9973,11.0083,10.9973,10.9312,10.9019,10.8799,10.8064,10.7771,10.7771,10.7771,10.6596,10.6229,0.0,0.0,10.5091,10.4504,10.41,0.0,0.0,0.0,0.0,0.0,0.0,0.0,0.0,0.0,0.0,0.0,0.0,0.0,0.0,0.0,11.1588,11.2212,11.1588,0.0,11.3387,0.0,11.4378,11.581,11.4378,11.3681,11.357,11.3681,11.3681,11.3681,11.5296,11.5993,11.5993,11.5993,11.5993,11.5993,11.5993,11.5993,11.5993,11.5993,11.5993,11.5993,0.0,0.0,0.0,0.0,0.0,9.7927,9.6922,9.7538,9.8049,9.7723,9.8318,9.8537,9.8121,9.9181,10.0209,10.098,10.1714,0.0,0.0,0.0,0.0,10.1274,10.0503,10.0099,10.0099,9.8631,9.7309,0.0,0.0,9.3602,9.1179,9.2721,9.3529,9.3675,9.4483,9.6575,9.9585,10.131,0.0,10.4504,10.5385,10.689,10.8505,10.7697,10.7991,10.8615,10.7,10.6376,10.6376,10.6376,10.6376,10.6376,10.6376,10.6963,10.7587,10.7771,10.8799,10.9973,10.9973,11.0487,11.1001,11.0817,11.0304,10.979,10.9606,10.9092,10.8578,10.8578,10.8395,10.8101,10.7881,0.0,0.0,0.0,0.0,0.0,0.0,0.0,0.0,0.0,0.0,0.0,0.0,0.0,0.0,0.0,0.0,0.0,0.0,0.0,11.1992,0.0,11.1295,0.0,0.0,0.0,11.4084,11.5002,11.4708,11.4194,11.357,11.4305,11.4194,11.3681,11.5296,11.5993,11.5993,11.5993,11.5993,11.5993,11.5993,11.5993,11.5993,11.5993,11.5993,11.5993,0.0,0.0,0.0,0.0,0.0,0.0,0.0,10.1377,0.0,9.9418,10.0575,10.1315,10.0478,10.1935,10.2825,10.2823,10.3109,10.3513,10.388,10.3513,10.3109,10.2779,10.2008,10.1494,10.1494,10.0393,9.8961,9.7309,0.0,9.6539,9.3749,9.5401,9.6171,9.6208,9.7016,9.8704,10.098,0.0,0.0,10.5201,10.7,10.8101,10.8799,10.8799,10.8799,10.8615,10.7477,10.678,10.6376,10.6376,10.6376,10.6376,10.6376,10.667,10.7073,10.7477,10.8101,10.8799,10.9276,10.9679,11.0083,11.0487,11.0304,11.0083,11.0487,11.0304,11.001,11.001,10.9716,10.9276,10.8872,10.8505,0.0,0.0,0.0,0.0,0.0,0.0,10.6302,0.0,0.0,0.0,0.0,0.0,0.0,0.0,0.0,0.0,0.0,0.0,11.1808,0.0,0.0,0.0,0.0,0.0,0.0,11.4818,11.4818,11.4598,11.4194,11.4598,11.4598,11.4305,11.5479,11.5993,11.5993,11.5993,11.5993,11.5993,11.5993,11.5993,11.5993,11.5993,11.5993,11.5993,0.0,9.8666,0.0,0.0,10.1317,0.0,10.3222,10.4721,10.4797,10.1678,10.2988,10.4016,10.3301,10.4207,10.4727,10.4182,10.421,10.421,10.4394,10.4394,10.432,10.421,10.3513,10.3109,10.2999,10.2301,10.0907,0.0,0.0,0.0,0.0,9.7309,9.8154,9.819,0.0,0.0,0.0,0.0,10.421,10.6119,10.7991,10.8909,10.9092,10.979,10.9606,10.8909,10.7991,10.7183,10.6596,10.6486,10.6376,10.6376,10.6376,10.6376,10.6486,10.7183,10.7477,10.7697,10.8395,10.8688,10.8982,10.9606,10.9679,10.99,11.0524,11.0817,11.0891,11.0891,11.0597,11.0304,11.0304,11.0304,0.0,0.0,0.0,0.0,0.0,0.0,0.0,0.0,0.0,0.0,0.0,0.0,0.0,0.0,0.0,0.0,11.1808,0.0,0.0,0.0,0.0,11.2212,11.2396,0.0,11.3974,0.0,11.5002,11.5002,11.4818,11.5002,11.5002,11.4818,11.5699,11.5993,11.5993,11.5993,11.5993,11.5993,11.5993,11.5993,11.5993,11.5993,11.5993,11.5993,0.0,0.0,0.0,0.0,0.0,0.0,10.5127,10.7018,10.758,10.509,10.4912,10.5103,10.4981,10.4389,10.4281,10.4917,10.5018,10.5311,10.6082,10.6192,10.5789,10.5018,10.4908,10.4504,10.3806,10.3696,10.2889,0.0,0.0,10.0099,0.0,9.7897,9.8998,0.0,0.0,0.0,0.0,10.4834,10.6302,10.8505,10.8688,10.9202,10.99,10.9973,10.9973,10.9679,10.8175,10.7587,10.7367,10.6596,10.6376,10.6376,10.6376,10.6376,10.6376,10.6486,10.7,10.7587,10.7697,10.8211,10.8799,10.8909,10.8909,10.8909,10.9019,10.9606,11.0083,11.0083,11.0597,11.1111,11.1111,11.1111,11.1001,0.0,0.0,0.0,0.0,0.0,10.8799,10.8688,0.0,0.0,0.0,0.0,0.0,0.0,10.9606,0.0,0.0,0.0,0.0,11.1295,11.1295,11.1698,11.2396,11.3203,0.0,11.4818,11.5516,11.5516,11.4818,11.5589,11.5479,11.4818,11.5699,11.5993,11.5993,11.5993,11.5993,11.5993,11.5993,11.5993,11.5993,11.5993,11.5993,11.5993,0.0,0.0,0.0,0.0,0.0,0.0,0.0,10.8713,10.9502,10.8995,10.849,10.7801,10.6762,10.7308,10.7622,10.7394,10.692,10.6686,10.7094,10.6718,10.6192,10.5899,10.5422,10.5201,10.5385,10.4394,10.3586,0.0,0.0,0.0,0.0,0.0,0.0,0.0,0.0,10.5018,10.5201,10.6192,10.7183,10.8175,10.9092,10.9679,10.9973,10.9973,10.9679,10.9092,10.7991,10.7294,10.678,10.6486,10.6376,10.6376,10.6376,10.6376,10.6376,10.6376,10.6596,10.689,10.689,10.711,10.7477,10.7991,10.8101,10.8175,10.8688,10.9386,10.9973,10.9973,11.0597,11.1221,11.1221,11.1221,11.0891,0.0,0.0,0.0,0.0,0.0,0.0,11.0193,0.0,11.1074,0.0,0.0,0.0,0.0,0.0,0.0,0.0,0.0,0.0,11.1919,0.0,11.2579,11.2396,11.3681,11.4488,11.4818,11.5589,11.581,11.5516,11.6397,11.6507,11.6213,11.6103,11.5993,11.5993,11.5993,11.5993,11.5993,11.5993,11.5993,11.5993,11.5993,11.5993,11.5993,10.729,0.0,10.8406,0.0,10.8906,10.9713,10.9713,11.0406,11.1214,11.2099,11.1483,11.0433,10.8914,10.9409,10.9637,10.8994,10.8129,10.7591,10.7591,10.677,10.6376,10.6376,10.5789,0.0,10.6376,10.5495,10.4871,10.4614,10.4284,0.0,0.0,10.1788,0.0,0.0,10.6009,10.6486,10.6302,10.7477,10.8064,10.8395,10.9496,11.0083,11.0377,11.0377,10.99,10.9019,10.8175,10.7404,10.6706,10.6486,10.6376,10.6376,10.6376,10.6376,10.6376,10.6376,10.6376,10.6486,10.6706,10.678,10.689,10.7771,10.7991,10.8101,10.8688,10.9386,11.0083,11.0304,11.1001,11.1515,11.1221,11.1221,11.0817,10.9716,0.0,0.0,0.0,11.0304,11.1001,11.1515,11.2102,11.2102,11.1478,11.1698,0.0,0.0,0.0,0.0,0.0,0.0,0.0,0.0,0.0,0.0,0.0,11.4011,11.4818,11.4818,11.5589,11.5993,11.5993,11.6617,11.7021,11.7204,11.6323,11.5993,11.5993,11.5993,11.5993,11.5993,11.5993,11.5993,11.5993,11.5993,11.5993,11.5993,10.979,11.0175,10.9906,10.8983,11.0291,11.1522,11.1522,11.2214,11.2983,11.3907,11.3214,11.2299,11.1503,10.9909,10.8897,10.8881,10.8129,10.7591,10.7591,10.677,10.6376,0.0,0.0,10.6376,10.6376,10.7183,10.7183,10.6376,0.0,0.0,10.1494,10.1494,10.2779,10.5201,10.678,10.7991,10.8799,10.8799,10.9202,10.9973,10.9973,11.0487,11.1221,11.1221,11.0707,10.99,10.9092,10.8285,10.7477,10.667,10.6376,10.6376,10.6376,10.6376,10.6376,10.6376,10.6376,10.6596,10.7367,10.7587,10.7771,10.8578,10.8799,10.8799,10.8799,10.9386,11.0193,11.1001,11.1808,11.2102,11.1295,11.1221,11.1221,11.1221,0.0,0.0,11.1111,11.0487,11.0597,11.2212,11.2396,11.2983,11.4598,0.0,0.0,0.0,0.0,0.0,0.0,0.0,0.0,11.2396,11.2396,0.0,11.2396,11.4011,11.4818,11.4818,11.5589,11.5993,11.5993,11.5993,11.6397,11.7204,11.6323,11.5993,11.5993,11.5993,11.5993,11.5993,11.5993,11.5993,11.5993,11.5993,11.5993,11.5993,11.1791,11.1906,11.1791,11.1522,11.1906,11.2522,11.3099,11.3407,11.3907,11.4791,11.3599,11.278,11.3097,11.1715,11.0701,0.0,10.9903,10.9081,0.0,10.7702,10.701,10.6376,10.6376,10.6376,10.6376,10.667,10.667,10.6376,0.0,0.0,0.0,10.5678,10.6376,10.7697,10.9312,10.9606,10.8799,10.9386,10.979,10.9973,10.9973,11.0487,11.1111,11.0597,10.99,10.9092,10.8285,10.7771,10.7587,10.7294,10.7587,10.7991,10.7991,10.7697,10.7294,10.7881,10.7991,10.8101,10.8285,10.8395,10.8505,10.8688,10.8799,10.8799,10.8799,10.9386,11.0193,11.1001,11.1405,11.1515,11.1221,11.1221,11.1001,11.0487,11.0597,0.0,10.9716,11.0304,11.0817,11.0781,11.1698,11.2396,0.0,11.2616,0.0,0.0,0.0,0.0,0.0,0.0,0.0,0.0,11.291,0.0,11.2396,11.4488,11.5296,11.4818,11.5589,11.658,11.7608,11.6507,11.669,11.7902,11.658,11.5993,11.5993,11.5993,11.5993,11.5993,11.5993,11.5993,11.5993,11.5993,11.5993,11.5993,11.3599,11.3407,11.3214,11.3214,11.3214,11.3483,11.4407,11.4484,11.4791,11.5599,11.4484,11.3791,11.3984,11.3099,0.0,11.1598,11.0701,11.0014,10.9385,10.8606,10.792,10.7363,10.7289,10.7289,10.7289,0.0,0.0,10.7808,10.8068,10.8432,10.855,10.8808,10.9077,10.9312,11.0597,11.0487,10.9312,11.0083,11.0304,10.9973,11.0304,11.0781,11.1111,11.0597,11.012,10.9606,10.8799,10.8468,10.8468,10.8175,10.8395,10.8909,10.9202,10.8909,10.8505,10.8688,10.8799,10.8909,10.9202,10.9276,10.9312,10.9606,10.9716,10.9716,10.9716,11.0304,11.1001,11.1184,11.1405,11.1698,11.1698,11.1698,11.1588,11.1405,11.1515,11.1295,11.0304,11.0817,11.1001,11.0487,0.0,0.0,0.0,11.2396,0.0,0.0,0.0,0.0,0.0,0.0,0.0,11.28,11.3277,0.0,11.2873,11.4892,11.5589,11.4818,11.5589,11.6801,11.8306,11.669,11.6911,11.8306,11.669,11.5993,11.5993,11.5993,11.5993,11.5993,11.5993,11.5993,11.5993,11.5993,11.5993,11.5993,11.5176,11.4599,0.0,0.0,11.4099,0.0,11.5291,11.5407,11.5715,11.6484,11.5907,11.5215,11.4407,11.4214,11.3483,11.1906,0.0,0.0,0.0,10.9575,10.9107,10.9081,10.9081,10.9081,10.9081,10.9798,11.0138,11.0138,11.0893,11.0945,11.02,11.0983,11.0959,11.0257,11.0979,11.0832,11.0083,11.0891,11.0781,11.0193,11.1001,11.1295,11.1295,11.1295,11.1295,11.1111,11.0377,11.001,10.99,10.9092,10.8909,10.9092,10.979,11.0083,10.99,10.9202,10.8982,10.9092,10.99,11.0083,11.0304,11.1001,11.1221,11.1221,11.1221,11.1808,11.2102,11.1405,11.1808,11.2286,11.2286,11.2396,11.2616,11.3387,11.291,11.2506,11.2396,11.1808,11.1295,0.0,0.0,0.0,0.0,11.3093,11.3497,0.0,0.0,0.0,0.0,0.0,11.2689,11.3497,11.357,11.357,11.357,11.5112,11.5589,11.4892,11.5589,11.6801,11.8306,11.669,11.6911,11.8306,11.669,11.5993,11.5993,11.5993,11.5993,11.5993,11.5993,11.5993,11.5993,11.5993,11.5993,11.5993,0.0,0.0,11.4984,11.4984,11.4984,11.5291,11.6099,11.6792,11.7292,11.7484,11.7292,11.71,11.6907,11.5792,11.4791,11.4407,11.3581,11.28,11.2213,11.188,11.1498,11.0806,11.0806,11.0806,11.0806,11.0364,11.0176,11.0138,11.0327,11.0913,11.2029,11.2217,11.2212,11.1892,11.2078,11.1662,11.0891,11.1111,11.1111,11.1001,11.1808,11.2102,11.2212,11.28,11.2286,11.1221,11.1001,11.0487,10.9973,10.979,11.012,11.0707,11.0891,11.0891,11.0891,11.0707,11.0597,11.0707,11.0891,11.0891,11.1001,11.1184,11.1221,11.1221,11.1221,11.1295,11.1405,11.1221,11.1405,11.1515,11.1515,11.1992,11.2506,11.2689,11.2983,11.3093,11.2506,11.28,11.28,0.0,11.2286,11.2396,11.2396,11.2579,11.291,0.0,0.0,0.0,0.0,11.2689,11.2506,11.2689,11.3277,11.357,11.357,11.4598,11.5296,11.5699,11.5883,11.6801,11.8306,11.669,11.6911,11.8306,11.669,11.5993,11.5993,11.5993,11.5993,11.5993,11.5993,11.5993,11.5993,11.5993,11.5993,11.5993,11.5907,11.5792,11.5984,11.6407,11.6407,11.6715,11.76,11.81,11.8407,11.8407,11.8407,11.8215,11.7792,11.6984,11.6292,11.5907,11.4714,11.3811,11.3326,11.3277,11.3087,11.26,11.26,11.26,11.26,11.2219,11.1914,11.1897,11.2278,11.268,11.3199,11.3995,11.392,11.3105,11.3514,11.314,11.2286,11.2286,11.2286,11.2286,11.28,11.291,11.2983,11.2983,11.2689,11.2212,11.1515,11.1184,11.1001,11.0707,11.0817,11.1221,11.1221,11.1221,11.1221,11.1221,11.1221,11.1221,11.1221,11.1221,11.1221,11.1221,11.1221,11.1221,11.1221,11.1221,11.1221,11.1221,11.1221,11.1295,11.1698,11.2102,11.2616,11.3387,11.3901,11.4011,11.3607,11.3901,11.3681,11.2506,11.2689,11.28,11.2396,11.2396,11.2579,11.2983,0.0,0.0,11.2506,11.28,11.28,11.2396,11.3203,11.3791,11.4084,11.4892,11.5589,11.5993,11.6397,11.7204,11.8379,11.7094,11.7204,11.8306,11.669,11.5993,11.5993,11.5993,11.5993,11.5993,11.5993,11.5993,11.5993,11.5993,11.5993,11.5993,11.6292,11.6484,11.6907,11.7484,11.7792,11.8215,11.8792,11.8985,11.91,11.91,11.91,11.8792,11.81,11.7907,11.7484,11.6792,11.5291,11.4407,11.4407,11.4407,11.4407,11.4407,11.4407,11.4407,11.4407,11.4291,11.4099,11.3984,11.4714,11.4785,11.4115,11.5604,11.5498,11.4123,11.4719,11.4609,11.3802,11.3697,11.357,11.357,11.3681,11.3791,11.3681,11.2983,11.3093,11.3387,11.1919,11.1808,11.2286,11.1588,11.1405,11.1405,11.1405,11.1295,11.1221,11.1221,11.1221,11.1221,11.1221,11.1221,11.1221,11.1221,11.1221,11.1221,11.1221,11.1221,11.1221,11.1221,11.1221,11.1405,11.2102,11.2286,11.291,11.4415,11.4708,11.4818,11.5002,0.0,11.4488,11.3093,11.3387,11.3497,11.28,11.28,11.28,11.28,11.2212,11.1919,0.0,11.2983,11.3387,11.2579,11.3387,11.4084,11.4818,11.5589,11.5993,11.5993,11.6801,11.7608,11.8416,11.7608,11.7608,11.8306,11.669,11.5993,11.5993,11.5993,11.5993,11.5993,11.5993,11.5993,11.5993,11.5993,11.5993,11.5993,11.5484,11.6599,11.7407,11.6792,11.7907,11.8715,11.81,11.86,11.91,11.91,11.91,11.8985,11.8908,11.8215,11.7715,11.76,11.6715,11.6099,11.6099,11.6099,11.6099,11.6099,11.6099,11.6099,11.6099,11.5407,11.4714,11.3984,11.4099,11.4516,11.5118,11.5387,11.5728,11.5985,11.5403,11.4982,11.4684,11.3904,11.357,11.3681,11.4305,11.4598,11.4598,11.4488,11.4084,11.3497,11.2506,11.2286,11.2396,11.2286,11.2212,11.2212,11.2212,11.1698,11.1221,11.1221,11.1221,11.1221,11.1221,11.1221,11.1221,11.1221,11.1221,11.1221,11.1221,11.1221,11.1221,11.1221,11.1221,11.1221,11.1405,11.1919,11.2689,11.3607,11.4378,11.5002,11.5699,0.0,11.5699,11.5479,11.5002,11.4598,11.4415,11.4415,11.4415,11.4415,11.4892,11.5002,11.4305,11.4488,11.4194,11.3387,11.4194,11.4708,11.4818,11.5589,11.5993,11.5993,11.6801,11.7608,11.8416,11.7608,11.7608,11.8306,11.669,11.5993,11.5993,11.5993,11.5993,11.5993,11.5993,11.5993,11.5993,11.5993,11.5993,11.5993,11.5907,11.6599,11.71,11.7215,11.7907,11.8407,11.8484,11.8792,11.91,11.91,11.91,11.91,11.91,11.8292,11.7792,11.7792,11.6984,11.6484,11.6484,11.6484,11.6484,11.6484,11.6484,11.6484,11.6484,11.6099,11.5715,11.5291,11.5291,11.5599,11.5984,11.6407,11.6617,11.6488,11.6897,11.6792,11.6331,11.5761,11.5603,11.5555,11.5016,11.4818,11.4708,11.3791,11.3277,11.28,11.1992,11.1808,11.1808,11.1808,11.1808,11.1808,11.1808,11.1515,11.1221,11.1221,11.1221,11.1221,11.1221,11.1221,11.1221,11.1221,11.1221,11.1221,11.1221,11.1221,11.1221,11.1221,11.1221,11.1221,11.1221,11.1515,11.1992,11.28,11.3607,11.4415,11.5185,11.5699,11.5993,11.5993,11.5699,11.5406,11.5406,11.5112,11.4818,11.4818,11.4708,11.4488,11.4194,11.4598,11.4598,11.4305,11.4598,11.5002,11.5406,11.581,11.6213,11.669,11.7498,11.8306,11.9003,11.8709,11.8489,11.8306,11.7204,11.6397,11.5993,11.5993,11.5993,11.5993,11.5993,11.5993,11.5993,11.5993,11.5993,11.5993,11.6176,11.6484,11.6907,11.7407,11.7792,11.8292,11.8715,11.8792,11.8792,11.8792,11.86,11.8484,11.8484,11.7907,11.7484,11.7484,11.6907,11.6484,11.6484,11.6484,11.6484,11.6484,11.6484,11.6484,11.6484,11.6484,11.6484,11.6484,11.6484,11.6484,11.6484,11.7215,11.728,11.711,11.8089,11.8402,11.8144,11.7793,11.7591,11.7271,11.5912,11.52,11.4598,11.3203,11.2579,11.2286,11.1515,11.1295,11.1515,11.1515,11.1588,11.1808,11.1808,11.1808,11.1808,11.1808,11.1588,11.1405,11.1295,11.1221,11.1221,11.1221,11.1221,11.1221,11.1221,11.1221,11.1221,11.1221,11.1221,11.1221,11.1221,11.1221,11.1515,11.2286,0.0,11.3607,11.4415,11.5075,11.5479,11.5699,11.5699,11.581,11.5993,11.5406,11.5112,11.5112,11.4488,11.4194,11.4194,11.4708,11.5112,11.5112,11.5112,11.5406,11.5993,11.5993,11.6397,11.7204,11.8012,11.8783,11.959,11.959,11.9187,11.8416,11.7535,11.6727,11.5993,11.5993,11.5993,11.5993,11.5993,11.5993,11.5993,11.5993,11.5993,11.5993,11.5407,11.6599,11.7484,11.6676,11.7907,11.8792,11.8023,11.7907,11.7907,11.7907,11.7215,11.6676,11.6676,11.6599,11.6599,11.6599,11.6484,11.6484,11.6484,11.6484,11.6484,11.6484,11.6484,11.6484,11.6484,11.6484,11.6484,11.6484,11.6484,11.6484,11.6484,11.6599,11.7407,11.8892,11.8081,11.8585,11.9898,11.9089,11.8168,11.7389,11.7308,11.6195,11.4708,11.3791,11.2983,11.2286,11.1515,11.1698,11.2286,11.2286,11.28,11.3387,11.3387,11.3387,11.3387,11.3387,11.291,11.2102,11.1405,11.1221,11.1221,11.1221,11.1221,11.1221,11.1221,11.1221,11.1221,11.1221,11.1221,11.1221,11.1221,11.1221,11.1515,11.2286,0.0,0.0,11.357,11.3681,11.4084,11.4818,11.4892,11.5185,11.5883,11.5883,11.5883,11.5883,11.5883,11.581,11.581,11.5883,11.5883,11.5883,11.5883,11.5883,11.5993,11.5993,11.6397,11.7204,11.8012,11.8783,11.959,11.959,11.9187,11.8416,11.7535,11.6727,11.5993,11.5993,11.5993,11.5993,11.5993,11.5993,11.5993,11.5993,11.5993,11.5993,11.5984,11.6599,11.6907,11.6599,11.6984,11.7407,11.6984,11.6984,11.6984,11.6984,11.6676,11.6484,11.6484,11.6484,11.6484,11.6484,11.6484,11.6484,11.6484,11.6484,11.6484,11.6484,11.6484,11.6484,11.6484,11.6484,11.6484,11.6484,11.6484,11.6484,11.6484,11.71,11.7715,11.8331,11.9017,11.9674,12.0211,11.9784,11.952,11.9014,11.7304,11.6289,11.554,11.4059,11.3387,11.3093,11.28,11.2873,11.3093,11.3093,11.3277,11.357,11.357,11.357,11.357,11.357,11.3387,11.3093,11.28,11.1992,11.1221,11.1221,11.1221,11.1221,11.1221,11.1221,11.1221,11.1221,11.1221,11.1221,11.1221,11.1221,11.1295,11.1588,0.0,11.2506,11.28,11.3681,11.4488,11.4782,11.5222,11.5699,11.5993,11.5993,11.5993,11.5993,11.5993,11.5993,11.5993,11.5993,11.5993,11.5993,11.5993,11.5993,11.5993,11.6507,11.7094,11.8012,11.8783,11.959,12.0398,12.0398,11.97,11.8416,11.8085,11.7204,11.5993,11.5993,11.5993,11.5993,11.5993,11.5993,11.5993,11.5993,11.5993,11.5993,11.6484,11.6484,11.6484,11.6484,11.6484,11.6484,11.6484,11.6484,11.6484,11.6484,11.6484,11.6484,11.6484,11.6484,11.6484,11.6484,11.6484,11.6484,11.6484,11.6484,11.6484,11.6484,11.6484,11.6484,11.6484,11.6484,11.6484,11.6484,11.6484,11.6484,11.6484,11.7407,11.7907,11.8292,11.9715,12.0485,12.0669,12.0682,12.0511,12.0033,11.8175,11.7006,11.6079,11.4889,11.4111,11.357,11.357,11.357,11.357,11.357,11.3791,11.3974,11.3974,11.4194,11.4305,11.4084,11.3791,11.357,11.357,11.2579,11.1588,11.1588,11.1405,11.1221,11.1221,11.1221,11.1221,11.1221,11.1221,11.1221,11.1221,11.1221,11.1221,11.1221,11.1698,11.1992,11.1992,11.2983,11.3901,11.4378,11.4892,11.5406,11.5993,11.5993,11.5993,11.5993,11.5993,11.5993,11.5993,11.5993,11.6103,11.6397,11.6397,11.6507,11.6801,11.7094,11.7718,11.8783,11.9297,12.0104,12.0912,12.0912,12.0104,11.8783,11.8489,11.7608,11.6397,11.6103,11.5993,11.5993,11.5993,11.5993,11.5993,11.5993,11.5993,11.5993,11.6484,11.6484,11.6484,11.6484,11.6484,11.6484,11.6484,11.6484,11.6484,11.6484,11.6484,11.6484,11.6484,11.6484,11.6484,11.6484,11.6484,11.6484,11.6484,11.6484,11.6484,11.6484,11.6484,11.6484,11.6484,11.6484,11.6484,11.6484,11.6484,11.6484,11.6484,11.7407,11.8292,11.91,11.9908,12.0793,12.16,12.16,12.1144,12.0168,12.0206,11.856,11.6159,11.6159,11.5095,11.357,11.357,11.357,11.357,11.357,11.4194,11.4818,11.4818,11.5406,11.581,11.5002,11.4194,11.357,11.357,11.2983,11.2396,11.2396,11.1808,11.1221,11.1221,11.1221,11.1221,11.1221,11.1221,11.1221,11.1221,11.1221,11.1221,11.1221,11.1221,11.1221,11.1221,11.1221,11.1808,11.3387,11.357,11.4194,11.581,11.5993,11.5993,11.5993,11.5993,11.5993,11.5993,11.5993,11.6397,11.7204,11.7204,11.7608,11.8416,11.7608,11.8012,11.959,11.959,12.0104,12.0912,12.0912,12.0398,11.959,11.8783,11.8012,11.7131,11.6287,11.5993,11.5993,11.5993,11.5993,11.5993,11.5993,11.5993,11.5993,11.6484,11.6484,11.6484,11.6484,11.6484,11.6484,11.6484,11.6484,11.6484,11.6484,11.6484,11.6676,11.7292,11.7407,11.7715,11.8292,11.8292,11.8292,11.8292,11.8908,11.9177,11.9177,11.7484,11.6484,11.6484,11.6484,11.6484,11.6484,11.6484,11.6792,11.7407,11.7715,11.8292,11.91,11.9908,12.0408,12.0716,12.1293,12.139,12.1067,12.0511,11.968,11.8872,11.8299,11.7717,11.7193,11.7193,11.6766,11.6264,11.6264,11.601,11.5589,11.5589,11.581,11.5993,11.5699,11.5479,11.5296,11.5296,11.4708,11.3901,11.3387,11.3093,11.2689,11.2212,11.1992,11.1919,11.1295,11.1221,11.1221,11.1221,11.1221,11.1221,11.1221,11.1221,11.1221,11.1221,11.1698,11.2212,11.2689,11.3791,11.4598,11.5112,11.5699,11.5993,11.5993,11.5993,11.6213,11.6801,11.6801,11.7204,11.8012,11.8012,11.8416,11.9187,11.9003,11.9113,11.959,12.0214,12.0618,12.0912,12.0912,12.0398,11.959,11.9297,11.8783,11.8012,11.7204,11.6801,11.6801,11.6213,11.5993,11.5993,11.5993,11.5993,11.5993,11.6484,11.6484,11.6484,11.6484,11.6792,11.6984,11.6984,11.7292,11.7484,11.7484,11.7484,11.7715,11.8292,11.8292,11.8484,11.91,11.91,11.91,11.91,11.96,11.9985,12.0292,11.8792,11.8177,11.8484,11.8484,11.8484,11.8484,11.8484,11.8792,11.9292,11.9715,11.9908,12.01,12.0985,12.11,12.0793,12.1408,12.16,12.1592,12.0964,12.049,12.0072,11.9584,11.9119,11.8778,11.8778,11.8424,11.7903,11.7512,11.6788,11.5993,11.5993,11.5993,11.5993,11.5993,11.5773,11.5589,11.5883,11.5406,11.4782,11.4598,11.4084,11.3387,11.2579,11.2396,11.2212,11.1405,11.1221,11.1221,11.1221,11.1221,11.1221,11.1221,11.1221,11.1295,11.1588,11.2102,11.2616,11.3313,11.4194,11.5112,11.5699,11.5883,11.6103,11.6507,11.6801,11.7204,11.7608,11.7718,11.8012,11.8819,11.8893,11.9297,12.0104,12.0104,12.0104,12.0104,12.0618,12.0912,12.0912,12.0912,12.0581,12.0104,11.97,11.9297,11.8783,11.8012,11.7718,11.7608,11.6801,11.6507,11.6397,11.6103,11.5993,11.5993,11.6676,11.6676,11.6676,11.6676,11.7407,11.7907,11.7907,11.86,11.91,11.91,11.91,11.91,11.9215,11.9215,11.9215,11.9292,11.9292,11.9292,11.9292,11.9408,11.9792,12.06,12.0716,12.1177,12.1985,12.1793,12.16,12.16,12.16,12.16,12.1677,12.2408,12.2408,12.1793,12.2485,12.2485,12.1677,12.1793,12.1793,12.1793,12.1793,12.1297,12.0512,12.0512,11.9961,11.9316,11.9316,11.9211,11.9005,11.7976,11.7006,11.6156,11.6176,11.6103,11.6139,11.5956,11.5479,11.5112,11.581,11.5479,11.5112,11.581,11.4892,11.357,11.28,11.2616,11.2396,11.1588,11.1405,11.1295,11.1295,11.1295,11.1295,11.1295,11.1405,11.1698,11.2396,11.2506,11.3093,11.4488,11.4782,11.5406,11.6801,11.6397,11.6287,11.7131,11.7902,11.8416,11.8489,11.8489,11.8893,11.97,11.97,12.0104,12.0912,12.0912,12.0912,12.0912,12.0912,12.0912,12.0912,12.0912,12.0912,12.0875,12.0104,11.97,11.97,11.8819,11.8489,11.8416,11.7608,11.7314,11.7094,11.6397,11.6103,11.5993,11.8407,11.8484,11.8484,11.8484,11.8715,11.8792,11.8792,11.8985,11.91,11.91,11.91,11.9292,11.9985,11.9985,12.0292,12.0985,12.11,12.11,12.11,12.1716,12.2408,12.3216,12.3909,12.4678,12.5601,12.2985,12.16,12.16,12.16,12.1908,12.2601,12.21,12.21,12.2601,12.2793,12.2793,12.2716,12.3293,12.3601,12.3601,12.3601,12.3389,12.3329,12.3329,12.3113,12.2957,12.2957,12.2516,12.1596,11.9948,11.8916,11.8131,11.7308,11.7136,11.7006,11.6193,11.5883,11.581,11.5993,11.5883,11.581,11.5993,11.5699,11.5296,11.4488,11.4305,11.4084,11.3203,11.2579,11.2102,11.2102,11.2102,11.2102,11.2102,11.2689,11.3093,11.3277,11.3277,11.3497,11.3791,11.4415,11.4892,11.5296,11.5699,11.6287,11.7131,11.7388,11.8012,11.9297,11.9297,11.97,12.0581,12.0581,12.0691,12.0912,12.0912,12.0912,12.0912,12.0912,12.0912,12.0912,12.0912,12.0912,12.0912,12.0691,12.0581,12.0581,11.97,11.9297,11.9297,11.8489,11.7792,11.7204,11.7021,11.6507,11.5993,11.8985,11.91,11.91,11.91,11.9408,11.9715,11.9715,11.9985,12.0292,12.0292,12.0292,12.0485,12.0908,12.0908,12.11,12.16,12.16,12.16,12.16,12.1985,12.2716,12.3485,12.4293,12.5216,12.6101,12.4678,12.3985,12.3985,12.3985,12.4293,12.4716,12.4178,12.4101,12.4101,12.4101,12.3909,12.3485,12.3909,12.4101,12.4101,12.4101,12.4101,12.4101,12.4101,12.4101,12.4101,12.4101,12.3508,12.2587,12.1584,12.0737,11.9878,11.9369,11.9023,11.8499,11.8022,11.7184,11.6617,11.6617,11.6287,11.5993,11.5993,11.5993,11.581,11.5002,11.4818,11.4598,11.3791,11.3607,11.3497,11.3497,11.3497,11.3497,11.3497,11.357,11.3681,11.4084,11.4194,11.4305,11.4672,11.5112,11.5406,11.5406,11.6801,11.7718,11.7792,11.8526,11.9297,12.0178,12.0214,12.0398,12.0912,12.0912,12.0912,12.0912,12.0912,12.0912,12.0912,12.0912,12.0912,12.0912,12.0912,12.0912,12.0912,12.0912,12.0912,12.0912,12.0398,12.0214,12.0104,11.9297,11.8709,11.8306,11.7902,11.7314,11.6617,11.9485,11.9485,11.9485,11.9485,12.01,12.0485,12.0485,12.11,12.16,12.16,12.16,12.16,12.16,12.16,12.16,12.16,12.16,12.1677,12.1793,12.1793,12.2293,12.3293,12.3985,12.4716,12.5601,12.6294,12.6678,12.6678,12.6678,12.6678,12.6678,12.6678,12.6294,12.5601,12.5601,12.5216,12.4486,12.4486,12.4486,12.4486,12.4486,12.4486,12.4486,12.4486,12.4486,12.4486,12.4486,12.3906,12.3223,12.3223,12.2481,12.1789,12.1616,12.0981,12.0295,12.0011,11.8762,11.7628,11.7554,11.6911,11.6397,11.6397,11.6397,11.6213,11.5589,11.5296,11.5112,11.4488,11.4818,11.5185,11.5002,11.5002,11.5002,11.4818,11.4378,11.4194,11.4892,11.5002,11.5296,11.5883,11.5993,11.5993,11.5993,11.7792,11.8783,11.8416,11.97,12.0581,12.0912,12.0912,12.0912,12.0912,12.0912,12.0912,12.0912,12.0912,12.0912,12.0912,12.0912,12.0912,12.0912,12.0912,12.0912,12.0912,12.0912,12.0912,12.0912,12.0912,12.0912,12.0802,12.0104,11.97,11.948,11.8709,11.8012,11.7425,12.11,12.1293,12.1293,12.1293,12.1408,12.1408,12.1408,12.1485,12.16,12.16,12.16,12.16,12.16,12.16,12.16,12.16,12.16,12.1908,12.2716,12.2716,12.3408,12.4986,12.5178,12.5601,12.6486,12.6601,12.6678,12.6678,12.6678,12.6678,12.6678,12.6678,12.6601,12.6486,12.6486,12.6486,12.6294,12.6294,12.6294,12.6294,12.6294,12.6294,12.6294,12.6294,12.6294,12.6294,12.6294,12.5783,12.4992,12.4992,12.4405,12.3599,12.2782,12.2367,12.1987,12.0373,11.969,11.9317,11.8474,11.8195,11.8085,11.8085,11.8085,11.8012,11.7902,11.7388,11.7021,11.7608,11.7314,11.669,11.5993,11.581,11.5589,11.4892,11.5296,11.5699,11.581,11.581,11.5883,11.5993,11.5993,11.5993,11.5993,11.6287,11.6984,11.8306,11.8599,11.9407,12.0802,12.0912,12.0912,12.0912,12.0912,12.0912,12.0912,12.0912,12.0912,12.0912,12.0912,12.0912,12.0912,12.0912,12.0912,12.0912,12.0912,12.0912,12.0912,12.0912,12.0912,12.0912,12.0802,12.0288,11.948,11.8709,11.8306,11.8195,12.1485,12.16,12.16,12.16,12.16,12.16,12.16,12.16,12.16,12.16,12.16,12.16,12.16,12.16,12.16,12.16,12.16,12.1793,12.21,12.2601,12.3216,12.3985,12.4909,12.5601,12.5986,12.6486,12.6678,12.6678,12.6678,12.6678,12.6678,12.6678,12.6678,12.6678,12.6678,12.6678,12.6678,12.6678,12.6678,12.6678,12.6678,12.6678,12.6678,12.6678,12.6678,12.6678,12.6678,12.6486,12.6101,12.6101,12.5909,12.5514,12.5095,12.4484,12.3899,12.3084,12.207,12.1281,12.0771,11.997,11.9157,11.9157,11.8822,11.8489,11.9003,11.8783,11.8489,11.8416,11.8489,11.8416,11.8085,11.8012,11.7718,11.6911,11.669,11.6507,11.6103,11.5993,11.5993,11.5993,11.5993,11.5993,11.5993,11.6397,11.7204,11.8306,11.8783,11.959,12.0802,12.0912,12.0912,12.0912,12.0912,12.0912,12.0912,12.0912,12.0912,12.0912,12.0912,12.0912,12.0912,12.0912,12.0912,12.0912,12.0912,12.0912,12.0912,12.0912,12.0912,12.0912,12.0912,12.0691,12.0288,11.9921,11.948,11.9076]},{"header":{"parameterUnit":"m.s-1","parameterCategory":1,"la1":30.6,"la2":28.766,"lo1":-90.7593,"lo2":-88.6598,"dx":0.0162,"dy":0.0183,"nx":116,"ny":114,"refTime":"2022-12-20T00:00:00:Z","depth":0,"parameterNumber":3,"parameterNumberName":"V-component_of_WINDS"},"data":[0.0,0.0,0.0,0.0,0.0,0.0,0.0,0.0,0.0,0.0,0.0,0.0,0.0,0.0,0.0,0.0,0.0,0.0,0.0,0.0,0.0,0.0,0.0,0.0,0.0,0.0,0.0,0.0,0.0,0.0,0.0,0.0,0.0,0.0,0.0,0.0,0.0,0.0,0.0,0.0,0.0,0.0,0.0,0.0,0.0,0.0,0.0,0.0,0.0,0.0,0.0,0.0,0.0,0.0,0.0,0.0,0.0,0.0,0.0,0.0,0.0,0.0,0.0,0.0,0.0,0.0,0.0,0.0,0.0,0.0,0.0,0.0,0.0,0.0,0.0,0.0,0.0,0.0,0.0,0.0,0.0,0.0,0.0,0.0,0.0,0.0,0.0,0.0,0.0,0.0,0.0,0.0,0.0,0.0,0.0,0.0,0.0,0.0,0.0,0.0,0.0,0.0,0.0,0.0,0.0,0.0,0.0,0.0,0.0,0.0,0.0,0.0,0.0,0.0,0.0,0.0,0.0,0.0,0.0,0.0,0.0,0.0,0.0,0.0,0.0,0.0,0.0,0.0,0.0,0.0,0.0,0.0,0.0,0.0,0.0,0.0,0.0,0.0,0.0,0.0,0.0,0.0,0.0,0.0,0.0,0.0,0.0,0.0,0.0,0.0,0.0,0.0,0.0,0.0,0.0,0.0,0.0,0.0,0.0,0.0,0.0,0.0,0.0,0.0,0.0,0.0,0.0,0.0,0.0,0.0,0.0,0.0,0.0,0.0,0.0,0.0,0.0,0.0,0.0,0.0,0.0,0.0,0.0,0.0,0.0,0.0,0.0,0.0,0.0,0.0,0.0,0.0,0.0,0.0,0.0,0.0,0.0,0.0,0.0,0.0,0.0,0.0,0.0,0.0,0.0,0.0,0.0,0.0,0.0,0.0,0.0,0.0,0.0,0.0,0.0,0.0,0.0,0.0,0.0,0.0,0.0,0.0,0.0,0.0,0.0,0.0,0.0,0.0,0.0,0.0,0.0,0.0,0.0,0.0,0.0,0.0,0.0,0.0,0.0,0.0,0.0,0.0,0.0,0.0,0.0,0.0,0.0,0.0,0.0,0.0,0.0,0.0,0.0,0.0,0.0,0.0,0.0,0.0,0.0,0.0,0.0,0.0,0.0,0.0,0.0,0.0,0.0,0.0,0.0,0.0,0.0,0.0,0.0,0.0,0.0,0.0,0.0,0.0,0.0,0.0,0.0,0.0,0.0,0.0,0.0,0.0,0.0,0.0,0.0,0.0,0.0,0.0,0.0,0.0,0.0,0.0,0.0,0.0,0.0,0.0,0.0,0.0,0.0,0.0,0.0,0.0,0.0,0.0,0.0,0.0,0.0,0.0,0.0,0.0,0.0,0.0,0.0,0.0,0.0,0.0,0.0,0.0,0.0,0.0,0.0,0.0,0.0,0.0,0.0,0.0,0.0,0.0,0.0,0.0,0.0,0.0,0.0,0.0,0.0,0.0,0.0,0.0,0.0,0.0,0.0,0.0,0.0,0.0,0.0,0.0,0.0,0.0,0.0,0.0,0.0,0.0,0.0,0.0,0.0,0.0,0.0,0.0,0.0,0.0,0.0,0.0,0.0,0.0,0.0,0.0,0.0,0.0,0.0,0.0,0.0,0.0,0.0,0.0,0.0,0.0,0.0,0.0,0.0,0.0,0.0,0.0,0.0,0.0,0.0,0.0,0.0,0.0,0.0,0.0,0.0,0.0,0.0,0.0,0.0,0.0,0.0,0.0,0.0,0.0,0.0,0.0,0.0,0.0,0.0,0.0,0.0,0.0,0.0,0.0,0.0,0.0,0.0,0.0,0.0,0.0,0.0,0.0,0.0,0.0,0.0,0.0,0.0,0.0,0.0,0.0,0.0,0.0,0.0,0.0,0.0,0.0,0.0,0.0,0.0,0.0,0.0,0.0,0.0,0.0,0.0,0.0,0.0,0.0,0.0,0.0,0.0,0.0,0.0,0.0,0.0,0.0,0.0,0.0,0.0,0.0,0.0,0.0,0.0,0.0,0.0,0.0,0.0,0.0,0.0,0.0,0.0,0.0,0.0,0.0,0.0,0.0,0.0,0.0,0.0,0.0,0.0,0.0,0.0,0.0,0.0,0.0,0.0,0.0,0.0,0.0,0.0,0.0,0.0,0.0,0.0,0.0,0.0,0.0,0.0,0.0,0.0,0.0,0.0,0.0,0.0,0.0,0.0,0.0,0.0,0.0,0.0,0.0,0.0,0.0,0.0,0.0,0.0,0.0,0.0,0.0,0.0,0.0,0.0,0.0,0.0,0.0,0.0,0.0,0.0,0.0,0.0,0.0,0.0,0.0,0.0,0.0,0.0,0.0,0.0,0.0,0.0,0.0,0.0,0.0,0.0,0.0,0.0,0.0,0.0,0.0,0.0,0.0,0.0,0.0,0.0,0.0,0.0,0.0,0.0,0.0,0.0,0.0,0.0,0.0,0.0,0.0,0.0,0.0,0.0,0.0,0.0,0.0,0.0,0.0,0.0,0.0,0.0,0.0,0.0,0.0,0.0,0.0,0.0,0.0,0.0,0.0,0.0,0.0,0.0,0.0,0.0,0.0,0.0,0.0,0.0,0.0,0.0,0.0,0.0,0.0,0.0,0.0,0.0,0.0,0.0,0.0,0.0,0.0,0.0,0.0,0.0,0.0,0.0,0.0,0.0,0.0,0.0,0.0,0.0,0.0,0.0,0.0,0.0,0.0,0.0,0.0,0.0,0.0,0.0,0.0,0.0,0.0,0.0,0.0,0.0,0.0,0.0,0.0,0.0,0.0,0.0,0.0,0.0,0.0,0.0,0.0,0.0,0.0,0.0,0.0,0.0,0.0,0.0,0.0,0.0,0.0,0.0,0.0,0.0,0.0,0.0,0.0,0.0,0.0,0.0,0.0,0.0,0.0,0.0,0.0,0.0,0.0,0.0,0.0,0.0,0.0,0.0,0.0,0.0,0.0,0.0,0.0,0.0,0.0,0.0,0.0,0.0,0.0,0.0,0.0,0.0,0.0,0.0,0.0,0.0,0.0,0.0,0.0,0.0,0.0,0.0,0.0,0.0,0.0,0.0,0.0,0.0,0.0,0.0,0.0,0.0,0.0,0.0,0.0,0.0,0.0,0.0,0.0,0.0,0.0,0.0,0.0,0.0,0.0,0.0,0.0,0.0,0.0,0.0,0.0,0.0,0.0,0.0,0.0,0.0,0.0,0.0,0.0,0.0,0.0,0.0,0.0,0.0,0.0,0.0,0.0,0.0,0.0,0.0,0.0,0.0,0.0,0.0,0.0,0.0,0.0,0.0,0.0,0.0,0.0,0.0,0.0,0.0,0.0,0.0,0.0,0.0,0.0,0.0,0.0,0.0,0.0,0.0,0.0,0.0,0.0,0.0,0.0,0.0,0.0,0.0,0.0,0.0,0.0,0.0,0.0,0.0,0.0,0.0,0.0,0.0,0.0,0.0,0.0,0.0,0.0,0.0,0.0,0.0,0.0,0.0,0.0,0.0,0.0,0.0,0.0,0.0,0.0,0.0,0.0,0.0,0.0,0.0,0.0,0.0,0.0,0.0,0.0,0.0,0.0,0.0,0.0,0.0,0.0,0.0,0.0,0.0,0.0,0.0,0.0,0.0,0.0,0.0,0.0,0.0,0.0,0.0,0.0,0.0,0.0,0.0,0.0,0.0,0.0,0.0,0.0,0.0,0.0,0.0,0.0,0.0,0.0,0.0,0.0,0.0,0.0,0.0,0.0,0.0,0.0,0.0,0.0,0.0,0.0,0.0,0.0,0.0,0.0,0.0,0.0,0.0,0.0,0.0,0.0,0.0,0.0,0.0,0.0,0.0,0.0,0.0,0.0,0.0,0.0,0.0,0.0,0.0,0.0,0.0,0.0,0.0,0.0,0.0,0.0,0.0,0.0,0.0,0.0,0.0,0.0,0.0,0.0,0.0,0.0,0.0,0.0,0.0,0.0,0.0,0.0,0.0,0.0,0.0,0.0,0.0,0.0,0.0,0.0,0.0,0.0,0.0,0.0,0.0,0.0,0.0,0.0,0.0,0.0,0.0,0.0,0.0,0.0,0.0,0.0,0.0,0.0,0.0,0.0,0.0,0.0,0.0,0.0,0.0,0.0,0.0,0.0,0.0,0.0,0.0,0.0,0.0,0.0,0.0,0.0,0.0,0.0,0.0,0.0,0.0,0.0,0.0,0.0,0.0,0.0,0.0,0.0,0.0,0.0,0.0,0.0,0.0,0.0,0.0,0.0,0.0,0.0,0.0,0.0,0.0,0.0,0.0,0.0,0.0,0.0,0.0,0.0,0.0,0.0,0.0,0.0,0.0,0.0,0.0,0.0,0.0,0.0,0.0,0.0,0.0,0.0,0.0,0.0,0.0,0.0,0.0,0.0,0.0,0.0,0.0,0.0,0.0,0.0,0.0,0.0,0.0,0.0,0.0,0.0,0.0,0.0,0.0,0.0,0.0,0.0,0.0,0.0,0.0,0.0,0.0,0.0,0.0,0.0,0.0,0.0,0.0,0.0,0.0,0.0,0.0,0.0,0.0,0.0,0.0,0.0,0.0,0.0,0.0,0.0,0.0,0.0,0.0,0.0,0.0,0.0,0.0,0.0,0.0,0.0,0.0,0.0,0.0,0.0,0.0,0.0,0.0,0.0,0.0,0.0,0.0,0.0,0.0,0.0,0.0,0.0,0.0,0.0,0.0,0.0,0.0,0.0,0.0,0.0,0.0,0.0,0.0,0.0,0.0,0.0,0.0,0.0,0.0,0.0,0.0,0.0,0.0,0.0,0.0,0.0,0.0,0.0,0.0,0.0,0.0,0.0,0.0,0.0,0.0,0.0,0.0,0.0,0.0,0.0,0.0,0.0,0.0,0.0,0.0,0.0,0.0,0.0,0.0,0.0,0.0,0.0,0.0,0.0,0.0,0.0,0.0,0.0,0.0,0.0,0.0,0.0,0.0,0.0,0.0,0.0,0.0,0.0,0.0,0.0,0.0,0.0,0.0,0.0,0.0,0.0,0.0,0.0,0.0,0.0,0.0,0.0,0.0,0.0,0.0,0.0,0.0,0.0,0.0,0.0,0.0,0.0,0.0,0.0,0.0,0.0,0.0,0.0,0.0,0.0,0.0,0.0,0.0,0.0,0.0,0.0,0.0,0.0,0.0,0.0,0.0,0.0,0.0,0.0,0.0,0.0,0.0,0.0,0.0,0.0,0.0,0.0,0.0,0.0,0.0,0.0,0.0,0.0,0.0,0.0,0.0,0.0,0.0,0.0,0.0,0.0,0.0,0.0,0.0,0.0,0.0,0.0,0.0,0.0,0.0,0.0,0.0,0.0,0.0,0.0,0.0,0.0,0.0,0.0,0.0,0.0,0.0,0.0,0.0,0.0,0.0,0.0,0.0,0.0,0.0,0.0,0.0,0.0,0.0,0.0,0.0,0.0,0.0,0.0,0.0,0.0,0.0,0.0,0.0,0.0,0.0,0.0,0.0,0.0,0.0,0.0,0.0,0.0,0.0,0.0,0.0,0.0,0.0,0.0,0.0,0.0,0.0,0.0,0.0,0.0,0.0,0.0,0.0,0.0,0.0,0.0,0.0,0.0,0.0,0.0,0.0,0.0,0.0,0.0,0.0,0.0,0.0,0.0,0.0,0.0,0.0,0.0,0.0,0.0,0.0,0.0,0.0,0.0,0.0,0.0,0.0,0.0,0.0,0.0,0.0,0.0,0.0,0.0,0.0,0.0,0.0,0.0,0.0,0.0,0.0,0.0,0.0,0.0,0.0,0.0,0.0,0.0,0.0,0.0,0.0,0.0,0.0,0.0,0.0,0.0,0.0,0.0,0.0,0.0,0.0,0.0,0.0,0.0,0.0,0.0,0.0,0.0,0.0,0.0,0.0,0.0,0.0,0.0,0.0,0.0,0.0,0.0,0.0,0.0,0.0,0.0,0.0,0.0,0.0,0.0,0.0,0.0,0.0,0.0,0.0,0.0,0.0,0.0,0.0,0.0,0.0,0.0,0.0,0.0,0.0,0.0,0.0,0.0,-3.8008,0.0,0.0,0.0,0.0,0.0,0.0,0.0,0.0,0.0,0.0,0.0,0.0,0.0,0.0,0.0,0.0,0.0,0.0,0.0,0.0,0.0,0.0,0.0,0.0,-1.8496,-1.8633,-1.8633,-1.8633,0.0,0.0,0.0,0.0,0.0,0.0,0.0,0.0,0.0,0.0,0.0,0.0,-2.5684,-2.8828,-2.7226,-2.584,-2.4609,0.0,0.0,0.0,0.0,0.0,0.0,0.0,0.0,0.0,0.0,0.0,0.0,0.0,0.0,0.0,0.0,0.0,0.0,0.0,0.0,0.0,0.0,0.0,0.0,0.0,0.0,0.0,0.0,0.0,0.0,0.0,0.0,0.0,0.0,0.0,0.0,0.0,0.0,0.0,0.0,0.0,0.0,0.0,0.0,0.0,0.0,0.0,0.0,0.0,0.0,0.0,0.0,0.0,0.0,0.0,0.0,0.0,0.0,0.0,0.0,0.0,0.0,0.0,0.0,0.0,0.0,0.0,0.0,0.0,0.0,0.0,-3.873,0.0,0.0,0.0,0.0,0.0,0.0,0.0,0.0,0.0,0.0,0.0,0.0,0.0,0.0,0.0,0.0,0.0,0.0,0.0,0.0,0.0,-1.8887,-1.8965,-1.9297,-1.9512,-1.9512,-1.9512,-1.9512,-1.9512,-1.959,0.0,0.0,0.0,0.0,0.0,0.0,0.0,0.0,0.0,0.0,-3.209,-3.2519,0.0,0.0,0.0,0.0,0.0,0.0,0.0,0.0,0.0,0.0,0.0,0.0,0.0,0.0,0.0,0.0,0.0,0.0,0.0,0.0,0.0,0.0,0.0,0.0,0.0,0.0,0.0,0.0,0.0,0.0,0.0,0.0,0.0,0.0,0.0,0.0,0.0,0.0,0.0,0.0,0.0,0.0,0.0,0.0,0.0,0.0,0.0,0.0,0.0,0.0,0.0,0.0,0.0,0.0,0.0,0.0,0.0,0.0,0.0,0.0,0.0,0.0,0.0,0.0,0.0,0.0,-4.3359,-4.3613,-4.3984,-4.4336,-4.4531,-4.4492,-4.2578,-4.2344,-4.3086,0.0,0.0,0.0,0.0,0.0,0.0,0.0,0.0,0.0,0.0,0.0,0.0,0.0,0.0,0.0,0.0,0.0,0.0,0.0,0.0,-1.9883,-2.0273,-2.0352,-2.0391,-2.0391,-2.0391,-2.0391,-2.0391,-2.0762,0.0,0.0,0.0,0.0,0.0,0.0,0.0,0.0,0.0,0.0,-3.4297,-3.4746,-3.4746,-3.4277,0.0,0.0,0.0,0.0,0.0,0.0,0.0,0.0,0.0,0.0,0.0,0.0,0.0,0.0,0.0,0.0,0.0,0.0,0.0,0.0,0.0,0.0,0.0,0.0,0.0,0.0,0.0,0.0,0.0,0.0,0.0,0.0,0.0,0.0,0.0,0.0,0.0,0.0,0.0,0.0,0.0,0.0,0.0,0.0,-3.3574,-3.4902,0.0,0.0,0.0,0.0,0.0,0.0,0.0,0.0,0.0,0.0,0.0,0.0,0.0,-4.1953,-4.2558,-4.4551,-4.5801,-4.6348,-4.709,-4.748,-4.7539,-4.7598,-4.7812,-4.8125,-4.709,0.0,-4.416,-4.3301,0.0,0.0,0.0,0.0,0.0,0.0,0.0,0.0,0.0,0.0,0.0,0.0,0.0,0.0,0.0,0.0,0.0,0.0,0.0,0.0,0.0,-2.2656,-2.3398,-2.4121,-2.4629,-2.4492,-2.3535,-2.3887,0.0,0.0,0.0,0.0,0.0,0.0,0.0,0.0,-3.5098,-3.6719,-3.7246,-3.7949,-3.8144,-3.7891,-3.7187,-3.4648,-3.0918,-3.041,0.0,0.0,0.0,0.0,0.0,0.0,0.0,0.0,0.0,0.0,0.0,0.0,0.0,0.0,0.0,0.0,0.0,0.0,0.0,0.0,0.0,0.0,0.0,0.0,0.0,0.0,0.0,0.0,0.0,0.0,0.0,0.0,0.0,0.0,0.0,0.0,0.0,0.0,0.0,-3.3203,-3.5098,-3.6641,-3.6973,-3.6855,0.0,0.0,0.0,0.0,0.0,0.0,0.0,0.0,0.0,-4.2773,-4.3301,-4.4433,-4.6308,-4.7031,-4.7715,-4.8398,-4.9023,-4.9316,-4.9336,-4.9805,-5.0,-4.9941,-4.9805,-4.9082,-4.7891,-4.6465,-4.5508,-4.4785,0.0,0.0,0.0,0.0,-4.0703,-4.1113,0.0,0.0,0.0,0.0,0.0,0.0,0.0,0.0,0.0,0.0,0.0,0.0,-2.3965,-2.5391,-2.666,-2.7734,-2.8418,-2.8144,-2.666,-2.7051,-2.6816,0.0,0.0,0.0,0.0,0.0,0.0,0.0,-3.7324,-3.8613,-3.9551,-4.0332,-4.0527,-4.0234,-4.0547,-3.8008,-3.3476,-3.3359,-3.2324,0.0,0.0,0.0,0.0,0.0,0.0,0.0,0.0,0.0,0.0,0.0,0.0,0.0,0.0,0.0,0.0,0.0,0.0,0.0,0.0,0.0,0.0,0.0,0.0,0.0,0.0,0.0,0.0,0.0,0.0,0.0,0.0,0.0,0.0,0.0,0.0,0.0,0.0,-3.5566,-3.7422,-3.8906,-3.9473,-3.9531,0.0,0.0,0.0,0.0,0.0,0.0,-4.1933,-4.1992,-4.332,-4.623,-4.6035,-4.6953,-4.918,-4.9082,-4.9355,-5.0019,-5.0351,-5.0566,-5.0683,-5.1308,-5.1484,-5.1308,-5.1504,-5.1426,-5.0976,-4.9043,-4.7988,-4.7519,-4.6758,-4.5879,-4.498,-4.4433,-4.4433,-4.4844,0.0,0.0,0.0,0.0,0.0,0.0,0.0,0.0,0.0,0.0,0.0,-2.582,-2.6719,-2.832,-2.9531,-3.0,-3.0078,-2.9726,-2.8809,-2.9551,-2.9609,-2.873,0.0,0.0,0.0,0.0,0.0,-3.6601,-3.9121,-4.0391,-4.0469,-4.0918,-4.1133,-4.1113,-4.1133,-4.0273,-3.8711,-3.7109,-3.6133,-3.5332,0.0,0.0,0.0,0.0,0.0,0.0,0.0,0.0,0.0,0.0,0.0,0.0,0.0,0.0,0.0,0.0,0.0,0.0,0.0,0.0,0.0,0.0,0.0,0.0,0.0,0.0,0.0,0.0,0.0,0.0,0.0,0.0,0.0,0.0,0.0,0.0,0.0,0.0,0.0,-4.209,-4.3672,0.0,0.0,0.0,0.0,-4.1738,-4.2773,-4.3691,-4.4199,-4.5371,-4.6641,-4.8027,-4.9258,-4.9961,-5.0117,-5.0879,-5.1289,-5.1328,-5.1367,-5.1582,-5.1992,-5.2031,-5.2266,-5.2598,-5.2207,-5.2031,-5.1914,-5.0586,-4.9785,-4.9238,-4.7558,-4.6855,-4.6836,-4.7226,-4.7363,-4.7637,0.0,0.0,0.0,-1.8008,-1.8223,-1.8555,-1.8984,-1.9785,-2.0742,-2.1914,-2.4453,-2.668,-2.8086,-3.0527,-3.2324,-3.3027,-3.3867,-3.375,-3.2324,-3.2519,-3.207,-3.0644,0.0,0.0,0.0,0.0,-3.7402,-3.9141,-4.0625,-4.1348,-4.1367,-4.207,-4.2246,-4.1992,-4.2266,-4.1973,-4.1191,-3.9746,-3.873,-3.7871,-3.5664,-3.3672,0.0,0.0,0.0,0.0,0.0,0.0,0.0,0.0,0.0,0.0,0.0,0.0,0.0,0.0,0.0,0.0,0.0,0.0,0.0,0.0,0.0,0.0,0.0,0.0,0.0,0.0,0.0,0.0,0.0,0.0,0.0,0.0,0.0,0.0,0.0,0.0,0.0,-4.1953,-4.3555,0.0,-4.4551,-4.4961,-4.5176,-4.5117,-4.6035,-4.7051,-4.8066,-4.8281,-4.8965,-5.0234,-5.0469,-5.084,-5.1406,-5.1699,-5.1992,-5.2266,-5.2539,-5.2754,-5.291,-5.3203,-5.3418,-5.3555,-5.3398,-5.3164,-5.2871,-5.2422,-5.1816,-5.1113,-5.0488,-5.0254,-5.0234,-5.0098,-5.0234,-5.0566,0.0,0.0,0.0,-1.8008,-1.8359,-1.8887,-1.9609,-2.0449,-2.168,-2.3574,-2.6074,-2.8398,-3.0234,-3.2891,-3.4805,-3.5508,-3.6504,-3.6289,-3.4414,-3.457,-3.3906,-3.2031,0.0,0.0,0.0,-3.7851,-3.9199,-4.0957,-4.1816,-4.2226,-4.2246,-4.2949,-4.3144,-4.2871,-4.3164,-4.3125,-4.2793,-4.1797,-4.0879,-3.9941,-3.8359,-3.6601,-3.4668,0.0,0.0,0.0,0.0,0.0,0.0,0.0,0.0,0.0,0.0,0.0,0.0,0.0,0.0,0.0,0.0,0.0,0.0,0.0,0.0,0.0,0.0,0.0,0.0,0.0,0.0,0.0,0.0,0.0,0.0,0.0,0.0,0.0,0.0,0.0,-4.2187,-4.2617,-4.4199,-4.541,-4.584,-4.6269,-4.6758,-4.7324,-4.8164,-4.9101,-5.0117,-5.0176,-5.0625,-5.1621,-5.166,-5.1933,-5.25,-5.2656,-5.2871,-5.3164,-5.3437,-5.3437,-5.3144,-5.3457,-5.3418,-5.3144,-5.3144,-5.2988,-5.2715,-5.2871,-5.2598,-5.209,-5.2246,-5.2285,-5.2266,-5.1973,-5.1953,-5.2051,0.0,0.0,-1.8008,-1.8008,-1.8379,-1.9102,-2.0371,-2.1348,-2.3008,-2.6035,-2.8672,-3.1094,-3.3203,-3.541,-3.6855,-3.7246,-3.7676,-3.7031,-3.4902,-3.5586,-3.5117,0.0,0.0,0.0,-3.9883,-3.957,-4.0195,-4.1875,-4.2715,-4.3144,-4.3144,-4.3555,-4.375,-4.3769,-4.3769,-4.3769,-4.373,-4.334,-4.2656,-4.1699,-3.9551,-3.8418,-3.7598,0.0,0.0,0.0,0.0,0.0,0.0,0.0,0.0,0.0,0.0,0.0,0.0,0.0,0.0,0.0,0.0,0.0,0.0,0.0,0.0,0.0,0.0,0.0,0.0,0.0,0.0,0.0,0.0,0.0,0.0,0.0,0.0,0.0,-4.1875,-4.2969,-4.3945,-4.4433,-4.5937,-4.7129,-4.7578,-4.7988,-4.8242,-4.8281,-4.9082,-4.9766,-5.0234,-5.0996,-5.1641,-5.209,-5.291,-5.334,-5.334,-5.3808,-5.4023,-5.4004,-5.4004,-5.3555,-5.2715,-5.2695,-5.2246,-5.1465,-5.1465,-5.1465,-5.1504,-5.1933,-5.2109,-5.2148,-5.2558,-5.2715,-5.2715,-5.2695,-5.2422,-5.1992,-1.8008,-1.8008,-1.8008,-1.8008,-1.8867,-1.9785,-2.0469,-2.1855,-2.3887,-2.6914,-2.957,-3.1855,-3.3691,-3.6094,-3.7383,-3.6894,-3.7793,-3.7754,-3.623,-3.6641,-3.668,0.0,0.0,0.0,-4.123,-4.2383,-4.3203,-4.3691,-4.4219,-4.4492,-4.4492,-4.4609,-4.4824,-4.5137,-4.5137,-4.5137,-4.5117,-4.5019,-4.4473,-4.3555,-4.1992,-4.0742,-3.9648,0.0,0.0,0.0,0.0,0.0,0.0,0.0,0.0,0.0,0.0,0.0,0.0,0.0,0.0,0.0,0.0,0.0,0.0,0.0,0.0,0.0,0.0,0.0,0.0,0.0,0.0,0.0,0.0,0.0,0.0,0.0,0.0,-4.3691,-4.3691,-4.4531,-4.5527,-4.6582,-4.7109,-4.7695,-4.8437,-4.8613,-4.9062,-5.0019,-5.0312,-5.0898,-5.1953,-5.1641,-5.1777,-5.2519,-5.2773,-5.2891,-5.2891,-5.3652,-5.3867,-5.3535,-5.3535,-5.3242,-5.2695,-5.2402,-5.2285,-5.2344,-5.2031,-5.207,-5.2363,-5.248,-5.2539,-5.2558,-5.2656,-5.2715,-5.2676,-5.2363,-5.1992,-5.1582,-1.8008,-1.8008,-1.8008,-1.8008,-1.8926,-1.998,-2.0977,-2.2285,-2.457,-2.8496,-3.0488,-3.2441,-3.4902,-3.6816,-3.7734,-3.7246,-3.7559,-3.7461,-3.6719,-3.707,-3.7871,0.0,0.0,-4.1894,-4.3125,-4.4141,-4.4668,-4.4668,-4.5098,-4.5293,-4.5312,-4.5488,-4.5703,-4.5937,-4.5937,-4.5937,-4.5937,-4.5937,-4.5547,-4.4863,-4.4101,-4.2793,-4.1211,-4.0254,-3.9004,-3.7676,-3.7207,-3.6836,-3.6445,-3.5762,0.0,0.0,0.0,0.0,0.0,0.0,0.0,0.0,0.0,0.0,0.0,0.0,0.0,0.0,0.0,0.0,0.0,0.0,0.0,0.0,0.0,0.0,0.0,0.0,-4.4355,-4.5859,-4.6211,-4.6387,-4.6953,-4.8242,-4.8223,-4.8457,-4.9336,-4.9414,-4.9805,-5.0742,-5.0801,-5.1289,-5.2383,-5.2148,-5.2187,-5.2695,-5.2891,-5.2812,-5.2461,-5.3125,-5.3262,-5.2832,-5.3008,-5.2676,-5.1894,-5.166,-5.1387,0.0,-5.084,-5.0976,-5.1387,-5.1387,-5.1484,0.0,0.0,0.0,0.0,0.0,-5.2031,-5.1914,-1.8008,-1.8008,-1.8008,-1.8008,-1.875,-1.9922,-2.1621,-2.2598,-2.5019,-3.0273,-3.1289,-3.2851,-3.6367,-3.7461,-3.7949,-3.7988,-3.7226,-3.6777,-3.6875,-3.7461,0.0,-4.1816,-4.248,-4.3535,-4.5137,-4.5176,-4.5195,-4.5234,-4.5625,-4.584,-4.5898,-4.623,-4.6406,-4.6445,-4.6445,-4.6445,-4.6445,-4.6504,-4.625,-4.582,-4.5762,-4.4531,-4.2558,-4.1055,-4.0156,-3.9512,-3.8008,-3.7617,-3.7734,-3.7266,0.0,0.0,0.0,0.0,0.0,0.0,0.0,0.0,0.0,0.0,0.0,0.0,0.0,0.0,0.0,0.0,0.0,0.0,0.0,0.0,0.0,0.0,0.0,0.0,-4.6133,-4.8086,-4.8887,-4.8359,-4.8301,-4.9453,-4.9297,-4.9394,-5.0176,-5.0254,-5.043,-5.084,-5.0918,-5.1308,-5.2109,0.0,0.0,0.0,0.0,-5.2715,-5.1953,-5.2402,-5.2422,-5.2012,-5.2441,-5.2012,-5.0879,-5.082,-5.0195,-4.9141,-4.9101,-4.9336,-4.9746,-4.9785,-5.0078,-5.0605,-5.1953,-5.25,-5.2441,-5.207,-5.2148,0.0,-1.8008,-1.8008,-1.8008,-1.8008,-1.9004,-2.0273,-2.168,-2.2598,-2.5117,-3.0664,-3.1465,-3.2969,-3.6758,-3.7617,-3.8066,-3.8418,-3.7676,-3.7461,-3.8164,0.0,-4.1504,-4.2773,-4.4258,-4.5371,-4.6035,-4.6055,-4.623,-4.6562,-4.6641,-4.6875,-4.7207,-4.6933,-4.6992,-4.7324,-4.7324,-4.7324,-4.7363,-4.7695,-4.7383,-4.666,-4.6308,-4.5508,-4.4492,-4.416,-4.3535,-4.2793,-4.2461,-4.1738,-4.082,-4.0039,-3.9355,-3.8769,-3.8437,-3.8398,0.0,0.0,0.0,0.0,0.0,0.0,0.0,0.0,0.0,0.0,0.0,0.0,0.0,0.0,0.0,0.0,0.0,0.0,0.0,-4.582,-4.7676,-4.9336,-4.9844,-4.9785,-4.9766,-5.0019,-5.0273,-5.0488,-5.0664,-5.0683,-5.0859,-5.1269,-5.1641,-5.2051,-5.2558,-5.2012,-5.1836,-5.2187,-5.1621,-5.1211,-5.1055,-5.1816,-5.1992,-5.1562,0.0,0.0,-5.1308,-5.0957,-5.0859,-5.0918,-5.0566,-5.0664,-5.1094,-5.1445,-5.1836,-5.2148,-5.1445,-5.1172,-5.1172,-5.1074,-5.0898,-5.0703,-1.8008,-1.8008,-1.8008,-1.8008,-1.8887,-2.0039,-2.1367,-2.2285,-2.4531,-2.9277,-3.0078,-3.1445,-3.4687,-3.5605,-3.6172,-3.6601,-3.7441,-3.8027,0.0,-4.1074,-4.3144,-4.4023,-4.5293,-4.6094,-4.6289,-4.6504,-4.6719,-4.6933,-4.7148,-4.7363,-4.7578,-4.7363,-4.7383,-4.7578,-4.7578,-4.7578,-4.7598,-4.7793,-4.7637,-4.7246,-4.7246,-4.6738,-4.5898,-4.5273,-4.4746,-4.4336,-4.4121,-4.3633,-4.3008,-4.2344,-4.1816,-4.1426,-4.1211,-4.084,-4.0176,0.0,0.0,0.0,0.0,0.0,0.0,0.0,0.0,0.0,0.0,0.0,0.0,0.0,0.0,-4.3652,-4.4531,0.0,-4.6836,-4.75,-4.8867,-5.0,-5.043,-5.0664,-5.0801,-5.0801,-5.0801,-5.0879,-5.1094,-5.1308,-5.1348,-5.1133,-5.1504,-5.166,-5.1465,-5.1445,-5.1445,-5.1445,-5.1445,-5.123,-5.0801,-5.1445,-5.1543,-5.1133,-5.1777,-5.1855,-5.1426,-5.1445,-5.1445,-5.1426,-5.1211,-5.1367,-5.1777,-5.1992,-5.2207,-5.2324,-5.1699,-5.1582,-5.1758,-5.1758,-5.1621,-5.1465,-1.8008,-1.8008,-1.8027,-1.8125,-1.8769,-1.9727,-2.1035,-2.1894,-2.373,-2.7441,-2.8359,-2.9668,-3.2266,-3.3379,-3.4082,-3.4414,-3.6973,-3.8359,0.0,-4.1348,-4.3848,-4.4726,-4.5586,-4.6094,-4.6172,-4.6504,-4.6758,-4.6933,-4.7285,-4.75,-4.7578,-4.75,-4.7461,-4.7461,-4.7461,-4.7461,-4.7461,-4.7539,-4.7578,-4.7598,-4.7851,-4.7539,-4.6816,-4.5703,-4.5215,-4.5098,-4.4668,-4.4414,-4.4199,-4.373,-4.3574,-4.3574,-4.3574,-4.2988,-4.209,-4.0976,-3.9707,0.0,0.0,0.0,0.0,0.0,0.0,0.0,0.0,-4.2187,-4.3086,-4.4531,-4.4844,-4.5195,-4.6348,-4.6894,-4.7637,-4.9043,-4.9922,-5.0547,-5.0879,-5.1289,-5.1504,-5.1328,-5.1152,-5.1113,-5.1289,-5.1699,-5.1601,-5.0742,-5.1074,-5.1055,-5.0449,-5.1055,-5.1308,-5.1055,-5.1562,-5.1543,-5.0937,-5.1269,-5.1308,-5.1055,-5.1836,-5.2012,-5.1699,-5.2051,-5.2012,-5.168,-5.168,-5.1933,-5.2324,-5.2324,-5.2383,-5.2461,-5.2461,-5.2676,-5.2949,-5.2773,-5.2715,-5.2715,-1.8008,-1.8008,-1.8125,-1.8496,-1.8965,-1.9727,-2.1035,-2.1641,-2.3066,-2.6191,-2.7305,-2.8789,-3.1387,-3.2754,-3.3516,-3.3555,-3.6641,0.0,-3.7422,-4.0644,-4.2949,-4.3808,-4.4707,-4.5351,-4.5742,-4.5781,-4.6191,-4.6933,-4.6973,-4.7207,-4.7578,-4.7187,-4.6992,-4.6992,-4.6992,-4.6992,-4.7031,-4.7422,-4.7578,-4.7558,-4.7207,-4.7012,-4.6875,-4.6348,-4.5937,-4.5547,-4.5117,-4.4453,-4.3711,-4.3281,-4.3144,-4.3144,-4.3144,-4.3594,-4.3711,-4.1699,-4.123,-4.1016,-3.9375,-3.9492,-4.0273,-4.1094,-4.1641,-4.2637,0.0,-4.5723,-4.6387,-4.8457,-4.8867,-4.9043,-4.957,-5.0019,-5.0371,-5.0566,-5.0976,-5.1308,-5.1367,-5.1738,-5.1719,-5.0957,-5.1504,-5.166,-5.0937,-5.125,-5.1152,-5.0312,-5.0644,-5.0996,-5.1269,-5.1387,-5.1582,-5.1933,-5.1289,-5.1074,-5.1367,-5.1406,-5.1601,-5.1953,-5.2422,-5.2617,-5.2578,-5.2617,-5.2617,-5.2558,-5.2558,-5.2812,-5.3223,-5.3223,-5.3457,-5.3808,-5.3808,-5.3848,-5.3789,-5.3008,-5.2715,-5.2754,-1.875,-1.875,-1.8887,-1.9316,-1.9336,-1.9648,-2.0684,-2.1445,-2.2617,-2.4609,-2.541,-2.6562,-2.8672,-3.0488,-3.1543,-3.1543,-3.4726,-3.668,-3.6562,-3.9785,-4.2187,-4.3301,-4.4199,-4.4863,-4.5293,-4.5547,-4.584,-4.6191,-4.6191,-4.6289,-4.6465,-4.6016,-4.582,-4.582,-4.582,-4.582,-4.584,-4.6289,-4.6621,-4.6855,-4.7187,-4.7148,-4.6914,-4.6738,-4.625,-4.5625,-4.5176,-4.4785,0.0,-4.3672,-4.3437,-4.3437,-4.3437,-4.3691,-4.3769,-4.2617,-4.2402,-4.2383,-4.166,-4.1914,-4.2519,-4.3164,-4.3633,-4.4492,-4.6562,-4.6855,-4.7285,-4.9453,-4.9707,-4.9726,-5.043,-5.0488,-5.0605,-5.1094,-5.1113,-5.125,-5.1738,-5.1543,-5.1289,-5.1172,-5.1484,-5.1465,-5.0859,-5.1191,-5.1191,-5.0586,-5.0937,-5.1035,-5.0723,-5.1172,-5.1523,-5.1699,-5.1836,-5.1992,-5.2168,-5.2168,-5.2266,-5.2461,-5.2891,-5.3086,-5.3105,-5.3359,-5.3476,-5.3476,-5.3476,-5.3574,-5.375,-5.375,-5.3867,-5.4023,-5.4023,-5.4023,-5.3984,-5.3613,-5.3476,-5.3496,-1.9297,-1.9297,-1.9414,-1.9844,-1.9668,-1.9707,-2.0449,-2.1211,-2.2031,-2.2969,-2.3652,-2.4863,-2.6973,-2.8672,-2.9824,-3.0176,-3.2949,-3.4902,0.0,-3.8613,-4.1035,-4.2324,-4.3437,0.0,-4.4648,-4.5098,-4.5371,-4.5508,-4.5508,-4.5508,-4.5488,-4.5176,-4.5019,-4.5019,-4.5019,-4.5019,-4.5039,-4.5371,-4.5742,-4.6191,-4.6797,-4.6855,-4.6582,-4.6582,-4.6133,-4.5449,-4.5137,-4.4961,-4.4766,-4.4121,-4.3808,-4.3711,-4.3711,-4.3789,-4.3848,-4.3535,-4.3613,-4.3769,-4.3652,-4.418,-4.4863,-4.5195,-4.5781,-4.6621,-4.7988,-4.8223,-4.8652,-5.0351,-5.0254,-5.0137,-5.0996,-5.0723,-5.0586,-5.1308,-5.1172,-5.1152,-5.166,-5.1289,-5.0996,-5.1074,-5.1289,-5.1308,-5.1016,-5.125,-5.125,-5.084,-5.1094,-5.1094,-5.0723,-5.1289,-5.166,-5.1777,-5.2383,-5.2773,-5.2891,-5.2891,-5.2949,-5.3086,-5.3398,-5.3555,-5.3555,-5.4004,-5.4199,-5.4219,-5.4336,-5.4375,-5.4375,-5.4375,-5.4375,-5.4375,-5.4375,-5.4375,-5.4375,-5.4375,-5.4316,-5.4219,-1.9297,-1.9297,-1.9414,-1.9844,-1.9902,-2.0039,-2.0488,-2.0957,-2.1269,-2.1309,-2.2402,-2.4316,-2.7324,-2.8066,-2.8848,-3.0078,-3.1836,-3.3223,-3.4082,-3.6973,-3.9238,-4.0547,-4.2226,-4.332,-4.373,-4.4199,-4.4629,-4.5039,-4.5039,-4.5039,-4.5039,-4.5039,-4.5019,-4.5019,-4.5019,-4.5019,-4.5019,-4.5039,-4.5293,-4.5703,-4.5723,-4.5723,-4.5723,-4.5723,-4.543,-4.5039,-4.5039,-4.4766,-4.4414,-4.4394,-4.4082,-4.3711,-4.3711,-4.4023,-4.4375,-4.4355,-4.4941,-4.5508,-4.5078,-4.6191,-4.7461,-4.748,-4.8437,-4.9512,-5.0,-5.0723,-5.1426,-5.1914,-5.1348,-5.1035,-5.1894,-5.1348,-5.0937,-5.1367,-5.1426,-5.1269,-5.0898,-5.1172,-5.1113,-5.0312,-5.0937,-5.1426,0.0,-5.1426,-5.125,-5.084,-5.082,-5.1172,-5.1992,-5.2051,-5.2246,-5.2656,-5.2695,-5.291,-5.334,-5.334,-5.3555,-5.3984,-5.4004,-5.4004,-5.4023,-5.4473,-5.4668,-5.4687,-5.5098,-5.5273,-5.5273,-5.5273,-5.5273,-5.5273,-5.5273,-5.5273,-5.5273,-5.5273,-5.5019,-5.4726,-2.0137,-2.0137,-2.0176,-2.0332,-2.0352,-2.0391,-2.0547,-2.0937,-2.123,-2.123,-2.2598,0.0,0.0,0.0,0.0,0.0,-3.0195,-3.2012,-3.3144,-3.5781,-3.8144,-4.0019,-4.1465,-4.2558,-4.3281,-4.3437,-4.373,-4.4141,-4.4141,-4.4141,-4.4141,-4.4141,-4.4141,-4.4141,-4.4141,-4.4141,-4.416,-4.4473,-4.4687,-4.4844,-4.5137,-4.5254,-4.5215,-4.4941,-4.4746,-4.457,0.0,-4.4258,-4.4355,-4.4043,-4.4043,-4.416,-4.416,-4.4473,-4.4922,-4.5488,-4.6269,-4.6973,-4.709,-4.8203,-4.9316,-4.9316,-5.0058,-5.0898,-5.1348,-5.166,-5.1992,-5.2402,-5.1601,-5.1074,-5.1933,-5.0918,-5.0195,-5.0898,-5.1016,-5.1055,-5.1211,-5.1094,-5.1133,-5.1406,-5.1445,-5.1543,0.0,0.0,0.0,-5.2031,-5.207,-5.2187,-5.248,-5.2773,-5.2988,-5.3144,-5.3437,-5.3652,-5.3808,-5.3808,-5.4023,-5.4473,-5.4746,-5.4883,-5.4883,-5.5039,-5.5098,-5.5098,-5.5254,-5.5312,-5.5312,-5.5312,-5.5312,-5.5312,-5.5312,-5.5312,-5.5332,-5.5625,-5.5625,-5.5488,-2.0566,-2.0566,-2.0566,-2.0566,-2.0566,0.0,0.0,0.0,0.0,0.0,0.0,0.0,0.0,0.0,0.0,0.0,0.0,-3.0801,-3.2246,-3.4766,-3.7031,-3.8887,-4.0488,-4.168,-4.2383,-4.2695,-4.3047,-4.3476,-4.3476,-4.3555,-4.3711,-4.3711,-4.3711,-4.3711,-4.3711,-4.3711,-4.373,-4.4023,-4.4258,-4.4414,-4.4687,-4.4805,-4.4766,-4.4492,-4.4297,0.0,0.0,-4.3887,-4.4101,-4.3808,-4.3906,-4.418,-4.4355,-4.4902,-4.5683,-4.668,-4.748,-4.8164,-4.875,-4.9746,-5.0664,-5.082,-5.1387,-5.2012,-5.2441,-5.2539,-5.2656,-5.3086,-5.2148,-5.1426,-5.1992,-5.0937,-5.0058,-5.0312,-5.0469,-5.0625,-5.0742,-5.0781,-5.1074,-5.1758,-5.1875,-5.207,-5.25,0.0,0.0,-5.2891,-5.2949,-5.3008,-5.3183,-5.3437,-5.3594,-5.3594,-5.3887,-5.4101,-5.4258,-5.4258,-5.4473,-5.4902,-5.5176,-5.5312,-5.5312,-5.5469,-5.5527,-5.5547,-5.5703,-5.5762,-5.5762,-5.5762,-5.5762,-5.5762,-5.5762,-5.5762,-5.5801,-5.6074,-5.6172,-5.6133,-2.0566,-2.0566,-2.0566,0.0,0.0,0.0,0.0,0.0,0.0,0.0,0.0,0.0,0.0,0.0,0.0,0.0,0.0,0.0,-3.1348,0.0,0.0,-3.7168,-3.9277,-4.0644,-4.1133,-4.1953,-4.2598,-4.3047,-4.3047,-4.3262,-4.3672,-4.3672,-4.3691,-4.3711,-4.3711,-4.3711,-4.3711,-4.3711,-4.3965,-4.4355,-4.4355,-4.4355,-4.4355,-4.4336,0.0,0.0,-4.3652,-4.3633,-4.3652,-4.3691,-4.373,-4.3848,-4.4336,-4.5371,-4.6641,-4.791,-4.8613,-4.918,-5.0039,-5.0898,-5.1641,-5.2051,-5.2461,-5.2891,-5.3301,-5.3379,-5.3476,-5.3887,-5.293,-5.2031,-5.2051,-5.1308,-5.0449,-4.9687,-4.9902,-5.0039,-4.9648,-5.0332,-5.1035,-5.1484,0.0,0.0,0.0,0.0,0.0,-5.3398,0.0,-5.3574,-5.4004,-5.4023,-5.4043,-5.4062,-5.4062,-5.4277,-5.4707,-5.4726,-5.4941,-5.5332,-5.5371,-5.5371,-5.539,-5.5781,-5.5976,-5.5996,-5.6406,-5.6582,-5.6582,-5.6582,-5.6582,-5.6582,-5.6582,-5.6582,-5.6582,-5.6582,-5.6582,-5.6582,0.0,0.0,0.0,0.0,0.0,0.0,0.0,0.0,0.0,0.0,0.0,0.0,0.0,0.0,0.0,0.0,0.0,0.0,-3.043,0.0,0.0,0.0,0.0,-3.957,-4.0664,-4.1211,-4.1855,-4.2598,-4.2598,-4.2812,-4.3242,-4.3242,-4.3398,-4.3711,-4.3711,-4.3711,-4.3711,-4.3711,-4.3769,-4.3887,0.0,-4.3887,-4.3848,0.0,0.0,0.0,-4.2871,-4.2754,-4.2851,-4.3496,-4.4141,-4.4824,-4.5586,-4.6699,-4.791,-4.8906,-4.9941,-5.0898,-5.1445,-5.2226,-5.2891,-5.3008,-5.3359,-5.373,-5.3828,-5.3594,-5.3301,-5.3086,-5.2031,-5.123,-5.1543,-5.0371,-4.9492,-4.9941,-5.0098,-5.0254,-5.0449,-5.1211,-5.2031,-5.2773,0.0,-5.3379,-5.3808,-5.3867,0.0,0.0,-5.3867,-5.3906,-5.4023,-5.4023,-5.418,-5.4512,-5.4512,-5.4707,-5.5137,-5.5449,-5.5664,-5.5781,-5.6113,-5.6269,-5.6269,-5.6367,-5.6426,-5.6426,-5.6543,-5.6582,-5.6582,-5.6582,-5.6582,-5.6582,-5.6582,-5.6582,-5.6582,-5.6582,-5.6582,-5.6582,0.0,0.0,0.0,0.0,0.0,0.0,0.0,0.0,0.0,0.0,0.0,0.0,0.0,0.0,0.0,0.0,0.0,0.0,0.0,0.0,0.0,0.0,-3.709,-3.8613,-3.9922,-4.0566,-4.1308,-4.2148,0.0,0.0,-4.2793,-4.2793,-4.291,-4.3144,-4.3144,-4.3144,-4.3144,-4.3144,0.0,0.0,0.0,0.0,0.0,0.0,0.0,-4.2754,-4.2519,-4.2422,-4.2539,-4.3203,-4.4023,-4.4902,-4.5762,-4.7168,-4.8711,-4.9766,-5.0859,-5.1855,-5.248,-5.2988,-5.3398,-5.3613,-5.3848,-5.3926,-5.3535,-5.3398,-5.3125,-5.2324,-5.1719,-5.1328,-5.1191,-5.0371,-4.9687,-4.9609,-4.9922,-5.0195,-5.0234,-5.1308,-5.2324,-5.2988,-5.3418,-5.375,-5.4004,-5.4023,-5.4101,0.0,-5.4141,-5.4121,-5.4316,-5.4316,-5.4512,-5.4941,-5.4961,-5.5156,-5.5586,-5.5996,-5.6211,-5.623,-5.6465,-5.6582,-5.6582,-5.6582,-5.6582,-5.6582,0.0,-5.6582,-5.6582,-5.6582,-5.6582,-5.6582,-5.6582,-5.6582,-5.6582,-5.6582,-5.6582,-5.6582,0.0,0.0,0.0,0.0,0.0,0.0,0.0,0.0,0.0,-2.248,-2.2559,-2.2695,-2.2754,-2.3047,0.0,0.0,0.0,0.0,0.0,0.0,0.0,0.0,-3.6035,-3.7578,-3.8926,-3.9863,-4.0762,-4.1641,-4.1699,0.0,0.0,0.0,0.0,0.0,0.0,0.0,0.0,0.0,0.0,0.0,0.0,0.0,0.0,0.0,0.0,-4.2344,-4.2285,-4.2266,-4.2324,-4.2754,-4.3574,-4.4551,-4.5469,-4.7226,-4.9199,-5.0508,-5.1543,-5.2422,-5.3223,-5.3457,-5.3535,-5.3926,-5.4023,-5.3808,-5.2988,-5.3008,-5.2832,-5.1601,-5.1601,-5.1582,-5.0781,-5.0644,-5.0293,-4.9199,-4.9687,-5.0078,-4.9824,-5.1152,-5.2324,-5.2754,-5.3535,-5.4023,-5.4023,-5.4082,-5.4277,-5.4648,-5.4375,-5.4355,-5.4746,-5.4765,-5.4961,-5.5371,-5.5449,-5.5644,-5.6015,-5.6406,-5.6582,-5.6582,-5.6582,-5.6582,-5.6582,-5.6582,-5.6582,-5.6582,0.0,0.0,-5.6582,-5.6582,-5.6582,-5.6582,-5.6582,-5.6582,-5.6582,-5.6582,-5.6582,-5.6582,0.0,0.0,0.0,0.0,0.0,0.0,0.0,0.0,0.0,0.0,-2.4199,-2.3691,-2.4043,-2.3848,0.0,0.0,0.0,0.0,0.0,0.0,0.0,-3.2539,-3.4238,-3.5937,-3.7598,-3.8809,-3.9863,-4.0742,-4.1113,-4.1504,0.0,0.0,0.0,0.0,0.0,0.0,0.0,0.0,0.0,0.0,0.0,0.0,0.0,0.0,0.0,0.0,-4.1523,-4.1387,-4.1465,-4.1399,-4.276,-4.4609,-4.582,-4.7676,-4.9668,-5.0957,-5.2187,-5.3262,-5.3769,-5.3906,-5.3926,-5.4004,-5.4023,-5.3887,-5.3359,-5.2754,-5.2051,-5.1113,-5.0703,-5.0351,-4.9844,-4.9746,-4.9785,-4.9922,-5.0078,-5.0391,-5.1016,-5.1973,-5.2754,-5.3203,-5.3711,-5.4023,-5.4023,-5.4355,0.0,0.0,-5.4941,-5.5117,-5.5195,-5.5195,-5.539,-5.582,-5.6172,-5.6406,-5.6465,-5.6543,-5.6582,-5.6582,-5.6582,-5.6582,-5.6582,-5.6582,-5.6582,-5.6582,-5.6582,0.0,-5.6582,-5.6582,-5.6582,-5.6582,-5.6582,-5.6582,-5.6582,-5.6582,-5.6582,-5.6582,0.0,0.0,0.0,0.0,0.0,0.0,0.0,-2.5449,-2.5918,-2.7226,-2.666,-2.5957,-2.5488,-2.4844,-2.4531,0.0,0.0,0.0,0.0,0.0,0.0,0.0,-3.3242,-3.4844,-3.6601,-3.7891,-3.8965,-3.9824,0.0,-4.0723,-4.1133,-4.1133,-4.1367,-4.1777,-4.1777,-4.1777,-4.1777,-4.1777,-4.1777,-4.1777,-4.1777,-4.1777,0.0,0.0,0.0,0.0,0.0,-4.0511,-4.0644,-4.0941,-4.202,-4.3299,-4.5144,-4.7392,-4.9602,-5.0605,-5.2168,-5.3652,-5.3418,-5.3672,-5.4023,-5.4023,-5.4199,-5.4023,-5.2676,-5.2383,-5.1855,-4.9863,-4.9668,-4.9707,-4.9258,-4.9551,-4.9863,-4.9844,-5.0215,-5.0566,-5.0762,-5.1699,-5.2539,-5.2969,-5.3613,-5.4121,-5.4355,-5.4551,-5.4863,-5.5293,-5.5527,-5.5625,-5.5625,-5.5859,-5.6074,-5.6269,-5.6484,-5.6582,-5.6582,-5.6582,-5.6582,-5.6582,-5.6582,-5.6582,-5.6582,-5.6582,-5.6582,-5.6582,-5.6582,0.0,-5.6582,-5.6582,-5.6582,-5.6582,-5.6582,-5.6582,-5.6582,-5.6582,-5.6582,-5.6582,0.0,0.0,0.0,0.0,0.0,0.0,0.0,-2.6816,-2.7344,-2.9219,-2.8945,-2.8262,-2.7441,-2.6309,-2.5469,0.0,0.0,0.0,0.0,0.0,0.0,0.0,0.0,-3.3828,-3.5566,0.0,0.0,-3.8789,-3.9336,0.0,0.0,0.0,0.0,0.0,-4.0898,-4.0898,-4.0898,-4.0898,-4.0898,0.0,0.0,-4.0898,0.0,0.0,0.0,0.0,0.0,-3.9719,-3.9726,-4.0302,-4.094,-4.1858,-4.369,-4.6485,-4.9278,-5.0005,-5.1953,-5.3633,-5.3125,-5.3496,-5.4043,-5.4141,-5.4355,-5.4043,-5.2148,-5.2012,-5.1543,-4.8906,-4.875,-4.9023,-4.8769,-4.9355,-4.9844,-4.9687,-5.0234,-5.0625,-5.0469,-5.1387,-5.2246,-5.2656,-5.3496,-5.4199,-5.4629,-5.4765,0.0,-5.5879,-5.6015,-5.6074,-5.6074,-5.6406,-5.6582,-5.6582,-5.6582,-5.6582,-5.6582,-5.6582,-5.6582,-5.6582,-5.6582,-5.6582,-5.6582,-5.6582,-5.6582,-5.6582,-5.6582,0.0,0.0,-5.6582,-5.6582,-5.6582,-5.6582,-5.6582,-5.6582,-5.6582,-5.6582,-5.6601,0.0,0.0,0.0,0.0,0.0,0.0,0.0,-2.7324,-2.8457,-3.0957,-3.0215,-2.9707,-3.041,-2.8652,-2.6797,0.0,0.0,0.0,0.0,0.0,0.0,0.0,0.0,0.0,0.0,0.0,0.0,-3.7461,-3.8301,0.0,0.0,0.0,0.0,0.0,0.0,-4.0019,-4.0019,-4.0019,0.0,0.0,0.0,0.0,0.0,0.0,0.0,0.0,0.0,-3.9146,-3.8788,-3.8761,-3.9664,-4.0768,-4.1841,-4.4706,-4.8158,-4.9722,-5.1347,-5.2988,-5.3711,-5.3965,-5.4121,-5.4531,-5.4355,-5.3828,-5.2832,-5.1758,-5.0566,-4.9141,-4.8262,-4.7851,-4.8203,-4.8652,-4.9238,-5.0,-5.0176,-5.0488,-5.1211,-5.1758,-5.2246,-5.2656,-5.3496,-5.4199,-5.4629,-5.5019,-5.5449,-5.5898,-5.6308,-5.6523,-5.6523,-5.6562,-5.6582,-5.6582,-5.6582,-5.6582,-5.6582,-5.6582,-5.6582,-5.6582,-5.6582,-5.6582,-5.6582,-5.6582,-5.6582,-5.6582,-5.6582,0.0,0.0,-5.6582,-5.6582,-5.6582,-5.6582,-5.6582,-5.6582,-5.6582,-5.6582,-5.664,0.0,0.0,0.0,0.0,0.0,0.0,-2.709,-2.7324,-2.8301,-3.1152,-3.084,-3.0508,-3.0859,-2.9863,-2.8398,-2.6406,0.0,0.0,0.0,0.0,0.0,0.0,0.0,0.0,0.0,0.0,-3.5137,-3.5742,-3.6601,0.0,0.0,0.0,0.0,0.0,0.0,-3.9101,-3.9101,-3.9101,0.0,0.0,0.0,0.0,0.0,0.0,0.0,0.0,0.0,0.0,-3.7294,-3.7788,-3.7989,-3.8434,-4.0036,-4.2297,-4.4883,-4.7366,-5.0126,-5.2344,-5.2441,-5.3418,-5.4394,-5.4316,-5.4355,-5.3926,-5.1992,-5.1172,-5.0215,-4.8144,-4.7637,-4.7539,-4.7461,-4.8223,-4.8965,-4.9336,-4.9824,-5.0469,-5.1308,-5.1797,-5.2344,-5.3027,-5.3887,-5.459,-5.5019,-5.5449,-5.5859,-5.6289,-5.6484,-5.6582,-5.6582,-5.6582,-5.6582,-5.6582,-5.6582,-5.6582,-5.6582,-5.6582,-5.6582,-5.6582,-5.6582,-5.6582,-5.6582,-5.6582,-5.6582,-5.6582,-5.6582,0.0,0.0,-5.6582,-5.6582,-5.6582,-5.6582,-5.6738,-5.6953,-5.6953,-5.7129,-5.7383,0.0,0.0,0.0,0.0,0.0,-2.5059,-2.6992,-2.7344,-2.8379,-3.1152,-3.1152,-3.0996,-3.125,-3.0293,-2.9023,-2.7519,-2.6777,0.0,0.0,0.0,0.0,0.0,0.0,0.0,0.0,0.0,-3.3711,-3.4141,-3.4883,-3.5684,0.0,0.0,-3.6992,-3.7812,0.0,0.0,0.0,0.0,0.0,0.0,0.0,0.0,0.0,0.0,0.0,0.0,0.0,0.0,0.0,0.0,0.0,-3.5935,-3.7927,-3.9387,-4.1323,-4.5102,-4.8602,-5.1172,-5.1387,-5.2734,-5.4121,-5.4199,-5.3965,-5.3242,-5.1406,-5.0391,-4.9336,-4.75,-4.6594,-4.6255,-4.6951,-4.7405,-4.7973,-4.9004,-4.9687,-5.0508,-5.1484,-5.1894,-5.2402,-5.3262,-5.4023,-5.4707,-5.5254,-5.5801,-5.625,-5.6562,-5.6582,-5.6582,-5.6582,-5.6582,-5.6582,-5.6582,-5.6582,-5.6582,-5.6582,-5.6582,-5.6582,-5.6582,-5.6582,-5.6582,-5.6582,-5.6582,-5.6582,-5.6582,-5.6582,0.0,0.0,-5.6582,-5.6582,-5.6601,-5.6719,-5.6953,-5.7226,-5.7363,-5.7598,-5.7871,0.0,0.0,0.0,0.0,0.0,0.0,-2.6191,-2.7461,-2.9062,-3.123,-3.1152,-3.1211,-3.207,-2.9863,-2.8301,-2.8281,-2.7129,0.0,0.0,0.0,0.0,0.0,0.0,0.0,0.0,0.0,-3.2402,-3.2812,-3.3242,-3.3887,-3.4726,-3.4726,-3.5195,-3.6055,0.0,0.0,0.0,0.0,0.0,0.0,0.0,0.0,0.0,0.0,0.0,0.0,0.0,0.0,0.0,0.0,0.0,0.0,0.0,-3.594,-3.7075,-4.3138,-4.6762,-4.9258,-5.0976,-5.207,-5.3047,-5.4355,-5.3047,-5.1465,-5.1426,-4.9453,-4.7598,-4.7578,-4.5036,-4.3609,-4.7044,-4.6032,-4.563,-4.8982,-4.9883,-5.0625,-5.1894,-5.209,-5.2402,-5.3262,-5.3769,-5.4375,-5.5234,-5.6074,-5.6582,-5.6582,-5.6582,0.0,-5.6582,-5.6582,-5.6582,-5.6582,-5.6582,-5.6582,-5.6582,-5.6582,-5.6582,-5.6582,-5.6582,-5.6582,-5.6582,-5.6582,-5.6582,0.0,0.0,0.0,0.0,-5.6582,-5.6582,-5.6621,-5.7051,-5.7207,-5.7265,-5.7695,-5.7871,-5.793,0.0,0.0,0.0,0.0,0.0,0.0,0.0,-2.6094,-2.7207,-2.9062,-2.8945,-2.9121,-3.0273,-2.8887,-2.7871,-2.7871,-2.668,0.0,0.0,0.0,0.0,0.0,0.0,0.0,0.0,0.0,-3.207,-3.2793,-3.3223,-3.3867,-3.4707,-3.4707,-3.4844,-3.5117,-3.5117,-3.5117,0.0,0.0,0.0,0.0,0.0,0.0,0.0,0.0,0.0,0.0,0.0,0.0,0.0,0.0,0.0,0.0,0.0,0.0,0.0,-3.7229,-4.0221,-4.3438,-4.6204,-4.6707,-4.6751,-4.87,-4.8656,-4.7674,-4.4796,-4.475,-4.5206,-4.4832,-4.2473,-4.1891,-4.6722,-4.4288,-4.3216,-4.8569,-4.831,-4.8606,-5.1698,-5.2324,-5.2715,-5.3281,-5.4277,-5.5234,0.0,0.0,-5.6582,-5.6582,-5.6582,-5.6582,-5.6582,-5.6582,-5.6582,-5.6582,-5.6582,-5.6582,-5.6582,-5.6582,-5.6582,-5.6582,-5.6582,-5.6582,-5.6582,-5.6582,-5.6582,0.0,0.0,0.0,0.0,-5.6894,-5.7012,-5.7051,-5.748,-5.7851,-5.8125,-5.8262,-5.8496,-5.8789,0.0,0.0,0.0,0.0,0.0,0.0,0.0,-2.5332,-2.623,-2.7637,-2.7578,-2.791,-2.918,-2.8047,-2.7305,-2.7637,-2.6484,0.0,0.0,0.0,0.0,0.0,0.0,0.0,0.0,0.0,-3.1699,-3.2559,-3.2812,-3.3476,-3.4453,-3.4453,-3.4453,-3.4453,-3.4453,-3.4375,0.0,0.0,0.0,0.0,0.0,0.0,-3.4277,0.0,0.0,0.0,0.0,0.0,0.0,0.0,0.0,0.0,0.0,0.0,0.0,0.0,-3.4204,-3.7099,-4.1534,-4.3432,-4.4129,-4.4781,-4.5412,-4.4845,-4.171,-4.1595,-4.218,-4.2189,-4.0091,-3.9835,-4.546,-4.2446,-4.1314,-4.8382,-4.7964,-4.7968,-5.154,-5.2578,-5.3183,-5.3789,-5.4707,0.0,0.0,-5.6484,-5.6582,-5.6582,-5.6582,-5.6582,-5.6582,-5.6582,-5.6582,-5.6582,-5.6582,-5.6582,-5.6582,-5.6582,-5.6582,-5.6582,-5.6582,-5.6582,-5.6582,-5.6582,-5.6582,0.0,0.0,0.0,0.0,-5.7285,-5.7461,-5.75,-5.7969,-5.8301,-5.8535,-5.8711,-5.8945,-5.918,0.0,0.0,0.0,0.0,0.0,0.0,0.0,-2.5117,-2.5977,-2.6777,-2.6914,-2.7383,-2.8555,-2.7285,-2.666,-2.7461,0.0,0.0,0.0,0.0,0.0,0.0,0.0,0.0,0.0,-3.0273,-3.1367,-3.2266,-3.2324,-3.2988,-3.4219,-3.4238,-3.4219,-3.416,-3.4141,-3.3867,0.0,0.0,0.0,0.0,0.0,0.0,0.0,0.0,0.0,0.0,0.0,0.0,0.0,0.0,0.0,0.0,0.0,0.0,0.0,0.0,0.0,0.0,0.0,-4.1264,-4.3456,-4.2268,-4.2657,-4.2759,-4.0824,-3.9413,0.0,-3.978,-3.7865,-3.7593,-4.3234,-4.0366,-3.9752,-4.7932,-4.7794,-4.8088,-5.1599,-5.2851,0.0,0.0,-5.5098,0.0,-5.5937,-5.6348,-5.6582,-5.6582,-5.6582,-5.6582,-5.6582,-5.6582,-5.6582,-5.6582,-5.6582,-5.6582,-5.6582,-5.6582,-5.6582,-5.6582,-5.6582,-5.6582,-5.6582,-5.6582,-5.6601,0.0,0.0,0.0,0.0,-5.7734,-5.791,-5.7969,-5.8418,-5.8594,-5.8652,-5.9023,-5.918,-5.918,0.0,0.0,0.0,0.0,0.0,0.0,0.0,0.0,0.0,0.0,-2.582,-2.6152,-2.6445,-2.6133,-2.5977,0.0,0.0,0.0,0.0,0.0,0.0,0.0,0.0,0.0,0.0,-3.0859,0.0,-3.3125,-3.3789,-3.4609,-3.5566,-3.5898,-3.5703,-3.5059,-3.4707,-3.4141,0.0,0.0,0.0,0.0,0.0,0.0,0.0,0.0,0.0,0.0,-3.1974,-3.0468,0.0,0.0,0.0,0.0,0.0,0.0,0.0,0.0,-2.8724,-2.9434,-3.1394,0.0,-3.4794,-3.6234,-3.7414,-3.7393,0.0,-3.5691,-3.7241,-3.7602,-3.5738,-3.573,-4.0991,-3.8037,-3.7406,-4.5802,-4.3552,-4.354,-5.0949,-5.3125,0.0,-5.5058,-5.5527,-5.5957,-5.6387,-5.6523,-5.6582,-5.6582,-5.6582,-5.6582,-5.6582,-5.6582,-5.6582,-5.6582,-5.6582,-5.6582,-5.6582,-5.6582,-5.6582,-5.6582,-5.6582,-5.6582,-5.6582,-5.6582,-5.6758,0.0,0.0,0.0,-5.7734,-5.8203,-5.8359,-5.8418,-5.8848,-5.9023,-5.9062,-5.9121,-5.918,-5.918,0.0,0.0,0.0,0.0,0.0,0.0,0.0,0.0,0.0,0.0,0.0,-2.5508,-2.5723,0.0,0.0,0.0,0.0,0.0,0.0,0.0,0.0,0.0,0.0,0.0,0.0,-3.1367,-3.2441,-3.3711,-3.459,-3.5469,-3.6328,-3.6758,-3.6504,-3.5644,-3.4785,-3.416,0.0,0.0,0.0,0.0,-3.3203,0.0,0.0,0.0,0.0,0.0,-3.1731,-3.0426,0.0,-2.8342,-2.8075,-2.7311,0.0,0.0,0.0,0.0,-2.8591,-2.8938,-2.9366,-3.0918,-3.2478,-3.2945,-3.4333,-3.5105,-3.2667,-3.3601,-3.5097,-3.5294,-3.4496,-3.5,-3.9117,-3.6853,-3.6532,-4.3451,-4.2738,-4.399,-5.1773,-5.3594,-5.4414,-5.5469,-5.5801,-5.6113,0.0,-5.6582,-5.6582,-5.6582,-5.6582,-5.6582,-5.6582,-5.6582,-5.6582,-5.6582,-5.6582,-5.6582,-5.6582,-5.6582,-5.6582,-5.6582,-5.6582,-5.6582,-5.6601,-5.6777,-5.6992,0.0,0.0,0.0,-5.8203,-5.8652,-5.8828,-5.8828,-5.9062,-5.918,-5.918,-5.918,-5.918,-5.918,0.0,0.0,0.0,0.0,0.0,0.0,0.0,0.0,0.0,0.0,0.0,0.0,0.0,0.0,0.0,0.0,0.0,0.0,0.0,0.0,0.0,0.0,0.0,-3.0019,-3.0957,-3.1894,-3.2988,-3.4277,-3.5293,-3.6211,-3.707,-3.75,-3.7168,-3.6152,-3.4863,-3.4199,0.0,0.0,0.0,0.0,-3.3027,0.0,0.0,0.0,0.0,0.0,0.0,0.0,0.0,-2.8431,-2.8591,-2.8212,-2.7744,0.0,0.0,0.0,0.0,0.0,-2.9312,-3.1211,-3.2615,-3.1171,-3.2859,-3.4334,-3.2654,-3.2786,-3.3387,-3.3521,-3.3961,-3.4925,-3.7171,-3.6201,-3.6369,-4.1384,-4.3637,-4.6798,-5.2584,-5.3936,-5.4648,-5.5801,-5.5996,0.0,-5.6543,-5.6582,-5.6582,-5.6582,-5.6582,-5.6582,-5.6582,-5.6582,-5.6582,-5.6582,-5.6582,-5.6582,-5.6582,-5.6582,-5.6582,-5.6582,-5.6582,-5.6621,-5.6699,-5.7051,-5.7285,-5.7461,0.0,0.0,-5.8652,-5.9023,-5.918,-5.918,-5.918,-5.918,-5.918,-5.918,-5.918,-5.916,0.0,0.0,0.0,0.0,0.0,0.0,0.0,0.0,0.0,0.0,0.0,0.0,0.0,0.0,0.0,0.0,0.0,0.0,0.0,0.0,0.0,0.0,0.0,-3.0156,-3.1387,-3.2617,-3.3867,-3.5195,-3.6777,-3.7969,-3.8828,-3.9277,-3.8633,-3.7051,-3.5762,-3.4766,-3.4043,0.0,0.0,0.0,-3.3359,0.0,0.0,0.0,0.0,0.0,0.0,0.0,0.0,-2.773,-2.7359,-2.6235,-2.7122,0.0,0.0,0.0,0.0,0.0,-2.9245,-2.9866,-3.0274,-3.0765,-3.1597,-3.2368,-3.2552,-3.2772,-3.3267,-3.4028,-3.4255,-3.4595,-3.5251,-3.5139,-3.5775,-3.8981,-4.426,-4.8568,0.0,0.0,-5.5312,-5.5879,0.0,-5.6504,-5.6582,-5.6582,0.0,0.0,0.0,-5.6582,-5.6582,-5.6582,-5.6582,-5.6582,-5.6582,-5.6582,-5.6582,-5.6582,-5.6582,-5.6582,-5.6582,-5.6777,-5.7109,-5.7187,-5.7617,0.0,0.0,-5.8769,-5.9062,-5.918,-5.918,-5.918,-5.918,-5.918,-5.918,-5.918,-5.918,-5.8732,0.0,0.0,0.0,0.0,0.0,0.0,0.0,0.0,0.0,0.0,0.0,0.0,0.0,0.0,0.0,0.0,0.0,0.0,0.0,0.0,0.0,0.0,0.0,0.0,-3.2187,-3.3457,-3.4766,-3.6074,-3.7773,-3.8809,-3.9199,-3.918,-3.8516,-3.7246,-3.5957,-3.5019,-3.4375,-3.263,0.0,-3.1963,0.0,0.0,0.0,0.0,0.0,0.0,0.0,0.0,0.0,0.0,-2.7378,-2.6132,-2.7001,0.0,0.0,0.0,0.0,0.0,-2.9285,-2.9606,-3.0007,-3.1209,-3.1824,-3.2251,-3.2679,-3.3387,-3.4015,-3.4269,-3.4442,-3.4643,-3.4937,-3.6218,-3.8752,-4.3395,-4.7108,-5.006,-5.2157,-5.4243,-5.5801,0.0,0.0,-5.6582,-5.6582,0.0,0.0,0.0,0.0,0.0,-5.6582,-5.6582,-5.6582,-5.6582,-5.6582,-5.6582,-5.6582,-5.6582,-5.6582,-5.6582,-5.6816,-5.7031,-5.7226,-5.7715,-5.8125,-5.8535,0.0,-5.9004,-5.918,-5.918,-5.918,-5.918,-5.918,-5.8244,-5.6346,-5.47,-5.3997,-5.3768,0.0,0.0,0.0,0.0,0.0,0.0,0.0,0.0,0.0,0.0,0.0,0.0,0.0,0.0,0.0,0.0,0.0,0.0,0.0,0.0,0.0,0.0,0.0,0.0,-3.3066,-3.4453,-3.5859,-3.7266,-3.8887,-3.9609,-3.9492,-3.9082,-3.8418,-3.7539,-3.6367,-3.52,-3.4107,-3.193,-3.0602,-3.0125,0.0,0.0,0.0,0.0,0.0,0.0,0.0,0.0,0.0,0.0,0.0,0.0,0.0,0.0,0.0,-2.8123,-2.8364,-2.8751,-2.9406,-2.9847,-3.0474,-3.1944,-3.2318,-3.2492,-3.3066,-3.3841,-3.4469,-3.4509,-3.4656,-3.487,-3.5231,-3.7543,-4.1405,-4.6986,-4.8396,-5.0381,-5.4448,-5.4877,-5.5205,-5.6523,0.0,0.0,0.0,0.0,0.0,0.0,0.0,0.0,-5.6582,-5.592,-5.5471,-5.5471,-5.4787,-5.4553,-5.4553,-5.4666,-5.539,-5.6738,-5.7051,-5.7324,-5.7539,-5.8242,-5.8131,-5.7541,-5.7847,-5.7776,-5.7061,-5.7061,-5.7061,-5.7061,-5.7061,-5.5438,-5.308,-5.0736,-4.9323,-4.842,0.0,0.0,0.0,0.0,0.0,0.0,0.0,0.0,0.0,0.0,0.0,0.0,0.0,0.0,0.0,0.0,0.0,0.0,0.0,0.0,0.0,0.0,0.0,0.0,-3.3926,-3.5644,-3.7344,-3.9023,-4.0371,-4.082,-4.041,-4.0,-3.9336,-3.8437,-3.7559,-3.5597,-3.2757,-3.1824,-3.0197,-2.8427,-2.8295,0.0,0.0,0.0,0.0,0.0,0.0,0.0,0.0,0.0,0.0,0.0,0.0,0.0,-2.7789,-2.8056,-2.8364,-2.8791,-2.9646,-3.0301,-3.1076,-3.2545,-3.2318,-3.2104,-3.3507,-3.3654,-3.3814,-3.491,-3.4937,-3.4937,-3.5498,-3.7871,-4.1063,-4.4533,-4.5423,-4.819,-5.4801,0.0,-5.3008,0.0,0.0,0.0,0.0,0.0,0.0,0.0,0.0,0.0,-5.6582,-5.3904,-5.2327,-5.2327,-4.964,-4.8311,-4.8311,-4.8646,-5.1544,-5.7168,-5.7187,-5.7637,-5.8418,-5.8476,-5.7113,-5.4891,-5.491,-5.3292,-5.0504,-5.0504,-5.0504,-5.0504,-5.0504,-5.0288,-5.0056,-4.9823,-4.795,-4.5397,0.0,0.0,0.0,0.0,0.0,0.0,0.0,0.0,0.0,0.0,0.0,0.0,0.0,0.0,0.0,0.0,0.0,0.0,0.0,0.0,0.0,0.0,0.0,-3.2012,-3.4414,-3.6172,-3.791,-3.9629,-4.0664,-4.0957,-4.0508,-3.9805,-3.8374,-3.6309,-3.5507,-3.3585,-3.0903,-2.9061,-2.7741,-2.6765,-2.5574,-2.4639,0.0,0.0,0.0,0.0,0.0,0.0,0.0,0.0,-2.5264,-2.6052,-2.656,-2.7295,-2.8003,-2.811,-2.8751,-2.9539,-3.0047,-3.0755,-3.169,-3.3173,-3.3146,-3.3,-3.3948,-3.4202,-3.4376,-3.483,-3.4696,-3.5319,-3.7743,-3.9458,-4.2289,-4.7753,-4.728,-4.8634,-5.5301,-5.3662,0.0,0.0,0.0,0.0,0.0,0.0,0.0,0.0,0.0,0.0,-5.3904,-5.2781,-5.1216,-4.9437,-4.8089,-4.7743,-4.7974,-4.8106,-4.9532,-5.2285,-5.2285,-5.2444,-5.2744,-5.2956,-5.2463,-5.168,-5.168,-5.0968,-4.9806,-4.9806,-4.9806,-4.9573,-4.7699,-4.6788,-4.6552,-4.4683,-4.3293,-4.2119,0.0,0.0,0.0,0.0,0.0,0.0,0.0,0.0,0.0,0.0,0.0,0.0,0.0,0.0,0.0,0.0,0.0,0.0,0.0,-2.7754,-2.8633,0.0,0.0,-3.2168,-3.4453,-3.6211,-3.8008,-3.9902,-3.9971,-4.0029,-4.0098,-3.8085,-3.6515,-3.5082,0.0,0.0,-2.9298,-2.7347,-2.604,-2.5221,-2.3899,-2.3193,0.0,0.0,0.0,0.0,0.0,0.0,0.0,0.0,-2.5197,-2.6172,-2.6653,-2.7482,-2.8323,-2.8511,-2.9205,-3.002,-3.0501,-3.1209,-3.2144,-3.3534,-3.3721,-3.3748,-3.4442,-3.4683,-3.479,-3.4883,-3.4817,-3.5551,-3.811,-4.0024,-4.2419,-4.7336,-4.6603,-4.7625,-5.4243,-5.169,0.0,0.0,0.0,0.0,0.0,0.0,0.0,0.0,0.0,0.0,0.0,-5.0302,-4.8328,-4.6302,-4.5194,-4.4913,-4.5254,-4.5378,-4.5719,-4.6292,-4.6385,-4.7569,-4.9459,-4.9707,-4.9356,-4.8404,-4.8404,-4.7715,-4.6788,-4.6788,-4.6788,-4.6552,-4.4445,-4.3743,-4.3504,-4.1167,-4.0481,-4.0481,0.0,0.0,0.0,0.0,0.0,0.0,0.0,0.0,0.0,0.0,0.0,0.0,0.0,0.0,0.0,0.0,0.0,0.0,-2.7637,-2.8437,-2.9101,-2.9551,-3.082,-3.2305,-3.4023,-3.5781,-3.7734,-3.9902,-3.8242,-3.8001,-3.9051,-3.5029,-3.3907,0.0,0.0,0.0,-2.8086,-2.7266,-2.5698,-2.3754,-2.3447,-2.3327,-2.3426,0.0,0.0,0.0,0.0,0.0,0.0,0.0,-2.5651,-2.6533,-2.7415,-2.811,-2.8724,-2.9312,-2.97,-3.0114,-3.0996,-3.1664,-3.2398,-3.3601,-3.3895,-3.4122,-3.499,-3.4963,-3.4843,-3.5137,-3.5431,-3.5725,-3.6032,-3.8882,-4.1333,-4.1881,-4.2274,-4.4818,-5.1162,-4.6974,0.0,0.0,0.0,0.0,0.0,0.0,0.0,0.0,0.0,0.0,0.0,-4.6318,-4.3201,-4.3201,-4.031,-3.8865,-3.9159,-3.9452,-3.9746,-4.0027,-4.0334,-4.3758,-4.979,-4.979,-4.7919,-4.513,-4.513,-4.3264,-4.0481,-4.0481,-4.0481,-4.0481,-4.0481,-4.0481,-4.0481,-4.0481,-4.0481,-4.0481,0.0,0.0,0.0,0.0,0.0,0.0,0.0,0.0,0.0,0.0,0.0,0.0,0.0,0.0,0.0,0.0,0.0,0.0,-2.7656,-2.8184,-2.8809,-2.9551,-3.0215,-3.1406,-3.3144,-3.4199,-3.5628,-3.7662,-3.9031,-3.8019,-3.4877,-3.5047,0.0,-3.0902,0.0,0.0,0.0,-2.552,-2.4898,-2.4062,-2.3981,-2.3701,-2.3313,0.0,0.0,0.0,0.0,0.0,0.0,0.0,0.0,0.0,-2.7362,-2.811,-2.8724,-2.9312,-3.0127,-3.0982,-3.1664,-3.2425,0.0,-3.4255,-3.4509,-3.4629,-3.5097,-3.4817,-3.4589,-3.5097,-3.5912,-3.658,-3.6647,-3.7808,-3.9687,-4.2453,-4.0945,-4.177,-4.8405,-4.5818,0.0,0.0,0.0,0.0,0.0,0.0,0.0,0.0,0.0,0.0,0.0,-4.4079,-4.2333,-4.0051,-3.9357,-3.9159,-3.9452,-3.9746,-4.004,-4.0334,-4.0441,-4.1396,-4.3293,-4.3293,-4.2813,-4.1864,-4.1864,-4.1423,-4.0481,-4.0481,-4.0481,-4.0481,-4.0481,-4.0481,-4.0481,-4.0481,-4.0481,-4.0481,0.0,0.0,0.0,0.0,0.0,0.0,0.0,0.0,-2.1151,-2.1963,-2.1995,-2.2486,0.0,0.0,0.0,-2.5076,-2.6721,0.0,-2.7131,-2.7979,-2.8578,-2.8842,-2.9278,-3.0043,-3.1064,-3.2738,-3.3444,-3.3264,-3.5327,-3.5568,-3.4042,0.0,0.0,-2.9344,0.0,-2.7186,-2.5411,-2.5104,-2.4823,-2.4543,-2.4422,-2.4088,-2.3661,0.0,0.0,0.0,0.0,0.0,0.0,0.0,0.0,0.0,-2.7682,-2.839,-2.8965,-2.99,-3.0755,-3.1759,-3.3726,-3.3885,0.0,-3.5967,-3.5486,-3.4696,-3.5097,-3.5017,-3.5004,-3.5591,-3.6366,-3.6981,-3.7088,-3.7595,0.0,-4.0761,-3.9733,-4.0372,-4.546,-4.3534,0.0,0.0,0.0,0.0,0.0,0.0,0.0,0.0,0.0,0.0,0.0,-4.2076,-4.0582,-3.8878,-3.9052,-3.9346,-3.9773,-3.996,-4.0187,-4.0481,-4.0481,-4.0481,-4.0481,-4.0481,-4.0481,-4.0481,-4.0481,-4.0481,-4.0481,-4.0481,-4.0481,-4.0481,-4.0481,-4.0481,-4.0481,-4.0481,-4.0481,-4.0481,0.0,0.0,0.0,0.0,0.0,0.0,0.0,-1.8632,-1.9465,-1.9672,-2.0898,-2.1852,0.0,0.0,0.0,-2.326,-2.5843,-2.7112,-2.6136,-2.7744,-2.8331,-2.7741,-2.811,-2.8307,-2.8605,-3.123,-3.1209,-2.8086,-2.9487,-3.1815,0.0,0.0,-2.8319,-2.938,0.0,-2.6507,0.0,-2.5611,-2.5317,-2.5064,-2.4783,-2.4476,-2.4142,-2.3928,0.0,0.0,0.0,0.0,0.0,0.0,0.0,0.0,-2.8257,-2.8831,-2.9325,-3.0768,-3.1436,-3.2518,-3.6202,-3.5649,-3.4694,-3.7666,-3.642,0.0,-3.511,-3.5498,-3.5885,-3.6393,-3.6794,-3.7088,-3.7382,-3.7889,-3.8183,-3.7929,-3.8357,-3.9631,-4.2319,0.0,0.0,0.0,0.0,0.0,0.0,0.0,0.0,0.0,0.0,0.0,0.0,-4.0093,-3.8865,-3.9159,-3.9199,-3.9493,-4.0027,-4.0067,-4.0214,0.0,-4.0481,-4.0481,-4.0481,-4.0481,-4.0481,-4.0481,-4.0481,-4.0481,-4.0481,-4.0481,-4.0481,-4.0481,-4.0481,-4.0481,-4.0481,-4.0481,-4.0481,-4.0508,0.0,0.0,0.0,0.0,0.0,0.0,-1.7582,-1.7995,-1.8786,-1.9805,-1.9578,-2.0091,-2.2209,-2.2084,0.0,-2.3059,-2.5198,-2.6408,-2.6155,-2.6464,-2.6865,-2.7211,-2.7142,-2.7843,-2.9775,-2.8047,-2.8122,-2.9997,-3.0893,-3.0228,0.0,0.0,0.0,-2.6772,0.0,-2.6507,0.0,-2.5398,-2.5144,-2.5077,-2.501,-2.4529,-2.3915,-2.4302,-2.3941,0.0,0.0,0.0,0.0,0.0,0.0,0.0,-2.8497,-2.8991,-2.9285,-3.0515,-3.1423,-3.2404,-3.3926,-3.4382,-3.4864,-3.5828,-3.5626,-3.5378,-3.5511,-3.6112,-3.662,-3.654,-3.7088,-3.7635,-3.7702,-3.801,-3.833,-3.8504,-3.8651,-3.895,-3.9631,-3.9168,0.0,0.0,0.0,0.0,0.0,0.0,0.0,0.0,0.0,0.0,-3.9631,-3.9151,-3.9078,-3.9159,-3.9599,-3.992,-4.0027,-4.0254,-4.0401,0.0,-4.0481,-4.0481,-4.0481,-4.0481,-4.0481,-4.0481,-4.0481,-4.0481,-4.0481,-4.0481,-4.0481,-4.0481,-4.0481,-4.0481,-4.0481,-4.0481,-4.0615,-4.0802,0.0,0.0,0.0,0.0,0.0,0.0,0.0,0.0,-1.8306,-1.9189,-1.8947,-1.9236,-2.0633,-2.1137,0.0,0.0,-2.3612,-2.471,-2.4028,-2.4599,-2.494,-2.4895,-2.5076,-2.5548,-2.6072,-2.555,-2.5907,-2.7055,-2.7712,-2.7659,0.0,0.0,0.0,-2.6186,0.0,-2.6653,0.0,0.0,-2.5625,-2.5504,-2.5504,-2.505,-2.4449,-2.489,-2.469,-2.4222,-2.4663,0.0,0.0,0.0,0.0,0.0,0.0,0.0,-2.9272,-3.0448,-3.1316,-3.253,-3.4857,-3.5184,-3.487,-3.5297,-3.5511,-3.5698,-3.5979,-3.662,-3.7155,-3.7128,-3.7489,-3.7809,-3.7809,-3.8076,-3.829,-3.8477,-3.8624,-3.8718,-3.8718,-3.8718,0.0,0.0,0.0,0.0,0.0,0.0,0.0,0.0,0.0,-3.8718,-3.8718,-3.9012,-3.9225,-3.9372,-3.9813,-4.0107,-4.0254,-4.0401,-4.0481,-4.0481,-4.0481,-4.0481,-4.0481,-4.0481,-4.0481,-4.0481,-4.0481,-4.0481,-4.0481,-4.0481,-4.0481,-4.0481,-4.0481,-4.0481,-4.0481,-4.0615,-4.0762,-4.0949,0.0,0.0,0.0,0.0,0.0,0.0,0.0,0.0,0.0,-1.8531,-1.8824,-1.8998,-1.8998,-2.0316,-2.0702,0.0,0.0,0.0,-2.1699,-2.2765,-2.3194,-2.2572,-2.3048,-2.2928,-2.2052,-2.3738,-2.4089,-2.3247,-2.3594,0.0,0.0,0.0,0.0,-2.6333,0.0,0.0,0.0,0.0,0.0,0.0,-2.6213,-2.5879,-2.5344,-2.5745,-2.5678,-2.5424,-2.5772,-2.6172,-2.6627,-2.7215,0.0,0.0,0.0,0.0,-2.9325,-3.0408,-3.1209,-3.2599,-3.6129,-3.6097,-3.4977,-3.5565,-3.5672,-3.5778,-3.6366,-3.6941,-3.7448,-3.7702,-3.7809,-3.7889,-3.7889,-3.8103,-3.8263,-3.833,-3.8544,-3.8718,-3.8718,-3.8718,-3.8718,0.0,0.0,0.0,0.0,0.0,0.0,0.0,0.0,-3.8758,-3.8798,-3.9078,-3.9372,-3.9666,-3.996,-4.0214,-4.0481,-4.0481,-4.0481,-4.0481,-4.0481,-4.0481,-4.0481,-4.0481,-4.0481,-4.0481,-4.0481,-4.0481,-4.0481,-4.0481,-4.0481,-4.0481,-4.0481,-4.0508,-4.0588,-4.0842,-4.0976,-4.1096,0.0,0.0,0.0,0.0,0.0,0.0,0.0,0.0,0.0,0.0,-1.9118,-1.9305,-1.9305,-1.9564,-1.9591,-1.9372,-2.0916,-2.1813,-2.1586,0.0,0.0,-2.2691,-2.1638,-2.1964,-2.3672,-2.2888,-2.2592,-2.2926,-2.35,0.0,0.0,0.0,0.0,0.0,0.0,0.0,0.0,0.0,0.0,0.0,0.0,-2.6961,-2.6306,-2.7108,-2.7068,-2.6667,-2.7215,-2.7295,-2.7241,-2.7829,-2.7883,0.0,0.0,0.0,-2.9553,-3.0221,-3.1196,-3.2251,-3.3598,-3.4488,-3.5284,-3.5872,-3.5819,-3.5778,-3.6366,-3.6941,-3.7382,-3.7422,-3.7849,-3.8183,-3.8183,-3.8223,-3.833,-3.8611,-3.8691,-3.8718,-3.8718,-3.8718,-3.8718,0.0,0.0,0.0,0.0,0.0,0.0,0.0,-3.8718,-3.8838,-3.9078,-3.9372,-3.9666,-3.996,-4.0254,-4.0441,-4.0481,-4.0481,-4.0481,-4.0481,-4.0481,-4.0481,-4.0481,-4.0481,-4.0481,-4.0481,-4.0481,-4.0481,-4.0481,-4.0481,-4.0481,-4.0481,-4.0481,-4.0615,-4.0869,-4.0909,-4.1243,-4.167,0.0,0.0,0.0,0.0,0.0,0.0,0.0,0.0,0.0,0.0,0.0,-1.9372,-1.9372,-1.9372,-1.9372,-1.9372,-2.004,-2.0371,-2.0371,-2.0498,-2.0779,-2.1272,-2.0713,-2.1067,-2.2413,-2.2127,-2.2111,-2.2378,0.0,0.0,0.0,-2.5291,-2.5798,0.0,0.0,0.0,0.0,0.0,0.0,0.0,0.0,-2.7722,-2.7415,-2.7802,-2.8003,-2.8083,-2.8177,-2.823,-2.8297,-2.8564,-2.8564,-2.8497,-2.8764,0.0,0.0,0.0,-3.0955,-3.1944,-3.3507,-3.4416,-3.5124,-3.5885,-3.6099,-3.6233,-3.6647,-3.7088,-3.7529,-3.8036,-3.833,-3.8477,-3.829,-3.8263,-3.837,-3.8691,-3.8718,-3.8718,-3.8718,-3.8718,-3.8718,0.0,0.0,0.0,0.0,0.0,0.0,0.0,-3.8865,-3.9012,-3.9159,-3.9599,-3.9893,-4.0027,-4.0334,-4.0481,-4.0481,-4.0481,-4.0481,-4.0481,-4.0481,-4.0481,-4.0481,-4.0481,-4.0481,-4.0481,-4.0481,-4.0481,-4.0481,-4.0481,-4.0588,-4.0722,-4.0722,-4.0909,-4.1163,-4.135,-4.1563,-4.1817,0.0,0.0,0.0,0.0,0.0,0.0,0.0,0.0,0.0,0.0,0.0,-1.9372,-1.9372,0.0,0.0,0.0,-1.9372,-1.9399,-1.9466,-1.9479,-1.9733,-2.0321,-2.0347,-2.0588,-2.1096,-2.1617,-2.1911,-2.1991,0.0,0.0,-2.4436,-2.517,-2.5825,0.0,-2.6466,0.0,0.0,0.0,0.0,0.0,0.0,-2.8657,-2.8604,-2.8764,-2.9098,-2.9459,-2.9245,-2.9205,-2.9259,-2.9259,-2.9165,-2.9058,-2.9125,-2.9553,0.0,0.0,0.0,-3.2024,-3.3641,-3.4416,-3.4963,-3.5859,-3.6126,-3.6313,-3.6834,-3.7128,-3.7489,-3.8223,-3.8611,-3.8731,-3.8437,-3.8437,-3.8544,-3.8691,-3.8718,-3.8718,-3.8718,-3.8718,-3.8718,0.0,0.0,0.0,0.0,0.0,0.0,0.0,-3.8972,-3.9199,-3.9265,-3.9746,-4.0067,-4.0147,-4.0361,-4.0481,-4.0481,-4.0481,-4.0481,-4.0481,-4.0481,-4.0481,-4.0481,-4.0481,-4.0481,-4.0481,-4.0481,-4.0481,-4.0481,-4.0548,-4.0722,-4.0909,-4.0989,-4.1203,-4.1483,-4.171,-4.1817,-4.1924,0.0,0.0,0.0,0.0,0.0,0.0,0.0,0.0,0.0,0.0,0.0,-1.9372,-1.9372,-1.9372,-1.9372,-1.9372,-1.9372,-1.9479,-1.976,-1.9773,-2.004,-2.0628,-2.0655,0.0,-2.1096,-2.1416,-2.171,0.0,0.0,0.0,-2.5037,-2.5358,-2.6266,-2.7589,-2.7041,-2.7281,-2.8123,0.0,0.0,0.0,0.0,0.0,-2.9887,-3.0448,-3.0675,-3.0702,0.0,0.0,0.0,-2.9873,-2.9499,-2.9085,-2.9366,-2.986,-3.0394,0.0,0.0,0.0,-3.336,-3.4095,-3.4977,-3.5859,-3.5658,-3.5565,-3.6687,-3.6941,-3.7061,-3.7382,-3.8357,-3.9052,-3.8758,-3.8945,-3.9012,-3.8758,-3.8718,-3.8718,-3.8718,-3.8718,-3.8718,-3.8718,0.0,0.0,0.0,0.0,0.0,0.0,-3.8972,-3.9265,-3.9559,-3.9853,-4.0147,-4.0441,-4.0481,-4.0481,-4.0481,-4.0481,-4.0481,-4.0481,-4.0481,-4.0481,-4.0481,-4.0481,-4.0481,-4.0481,-4.0481,-4.0481,-4.0508,-4.0762,-4.0909,-4.0949,-4.1203,-4.1497,-4.175,-4.179,-4.1964,-4.2178,0.0,0.0,0.0,0.0,0.0,0.0,0.0,0.0,0.0,0.0,0.0,0.0,0.0,-1.9533,-1.9639,-1.9639,-1.9639,-1.9613,-1.9533,-1.9693,0.0,-2.0374,-2.0575,-2.0815,-2.1096,-2.1403,0.0,0.0,0.0,-2.4195,-2.5651,-2.5932,-2.6653,-2.7682,-2.7482,-2.7669,-2.8163,-2.847,0.0,0.0,0.0,0.0,0.0,0.0,0.0,0.0,0.0,0.0,0.0,0.0,0.0,0.0,0.0,-3.0474,-3.0728,-3.1209,-3.173,-3.2318,-3.3173,-3.3654,-3.4202,-3.5471,-3.5778,-3.5965,-3.6754,-3.6941,-3.7128,-3.7823,-3.8437,-3.8905,-3.8972,-3.9078,-3.9118,-3.9012,-3.8838,-3.8718,-3.8718,-3.8718,-3.8718,-3.8718,0.0,0.0,0.0,0.0,0.0,0.0,0.0,-3.9493,-3.9599,-4.0067,-4.0361,-4.0481,-4.0481,-4.0481,-4.0481,-4.0481,-4.0481,-4.0481,-4.0481,-4.0481,-4.0481,-4.0481,-4.0481,-4.0481,-4.0655,-4.0762,-4.0762,-4.0869,-4.1122,-4.1497,-4.1603,-4.1817,-4.2071,-4.2071,-4.2138,-4.2218,0.0,0.0,0.0,0.0,0.0,0.0,0.0,0.0,0.0,0.0,0.0,0.0,0.0,0.0,-1.9947,-1.9947,-2.004,-2.0013,-1.9813,-1.9987,-2.0227,-2.0508,-2.0722,-2.0909,-2.1109,0.0,0.0,0.0,0.0,0.0,0.0,0.0,-2.6814,-2.7843,-2.7749,0.0,0.0,0.0,0.0,-2.9245,0.0,0.0,-3.0862,0.0,0.0,0.0,0.0,0.0,0.0,0.0,0.0,0.0,0.0,-3.1316,-3.1289,-3.1583,-3.1744,-3.2011,-3.2879,-3.3347,-3.3855,-3.5044,-3.5631,-3.6072,-3.6647,-3.6861,-3.7114,-3.7702,-3.829,-3.8758,-3.8838,-3.9092,-3.9265,-3.9159,-3.8905,-3.8718,-3.8718,-3.8718,-3.8718,-3.8718,0.0,0.0,0.0,0.0,0.0,0.0,0.0,0.0,-3.9599,-4.0067,-4.0361,-4.0481,-4.0481,-4.0481,-4.0481,-4.0481,-4.0481,-4.0481,-4.0481,-4.0481,-4.0481,-4.0481,-4.0508,-4.0615,-4.0842,-4.0909,-4.0909,-4.1122,-4.1416,-4.179,-4.1897,-4.2044,-4.2218,-4.2218,-4.2218,-4.2218,0.0,0.0,0.0,0.0,0.0,0.0,0.0,0.0,0.0,0.0,0.0,0.0,0.0,0.0,0.0,-2.0281,-2.0535,-2.0695,-2.0681,-2.0681,-2.0815,-2.1082,-2.1109,0.0,0.0,0.0,0.0,0.0,0.0,0.0,0.0,0.0,-2.6747,0.0,-2.7829,-2.8043,-2.8617,0.0,-2.9205,-2.9566,0.0,-3.0808,-3.0942,0.0,0.0,0.0,-3.2492,-3.2599,0.0,-3.2585,0.0,0.0,0.0,-3.2345,-3.2051,-3.1757,-3.1877,-3.2171,0.0,0.0,0.0,-3.4603,-3.5177,-3.5765,-3.6353,-3.6727,-3.6941,-3.6941,-3.7889,-3.8611,-3.833,-3.8985,-3.9493,-3.9225,-3.8945,-3.8731,-3.8731,-3.8718,-3.8718,-3.8718,0.0,0.0,0.0,0.0,0.0,0.0,-3.8972,-3.9306,-3.9599,-3.9893,-4.0174,-4.0481,-4.0481,-4.0481,-4.0481,-4.0481,-4.0481,-4.0481,-4.0481,-4.0481,-4.0481,-4.0481,-4.0628,-4.0909,-4.0909,-4.0909,-4.0976,-4.1563,-4.179,-4.1817,-4.2111,-4.2218,-4.2218,-4.2218,-4.2218,-4.2218,0.0,0.0,0.0,0.0,0.0,-2.0695,-2.1122,-2.1256,0.0,0.0,0.0,0.0,0.0,0.0,0.0,-2.1496,-2.139,-2.1136,-2.0708,-2.0869,-2.0935,-2.0802,-2.1002,-2.1309,-2.1737,0.0,0.0,0.0,0.0,0.0,0.0,0.0,0.0,0.0,-2.7869,-2.811,-2.831,-2.8818,0.0,0.0,-3.0662,-3.1236,0.0,0.0,0.0,0.0,0.0,-3.3694,-3.3521,0.0,-3.3026,-3.2398,0.0,-3.2318,-3.2332,-3.1824,-3.1877,-3.2118,-3.2198,0.0,0.0,0.0,0.0,0.0,-3.6006,-3.6433,-3.6754,-3.7168,-3.7702,-3.8183,-3.8544,-3.8798,-3.9092,-3.9412,-3.9225,-3.9052,-3.9052,-3.8865,-3.8718,-3.8718,0.0,0.0,0.0,0.0,0.0,0.0,-3.8972,-3.9306,-3.9599,-4.008,-4.0401,-4.0481,-4.0481,-4.0481,-4.0481,-4.0481,-4.0481,-4.0481,-4.0481,-4.0481,-4.0481,-4.0481,-4.0628,-4.0909,-4.1122,-4.135,-4.1563,-4.171,-4.1897,-4.2111,-4.2178,-4.2218,-4.2218,-4.2218,-4.2218,-4.2218,0.0,0.0,-2.0655,-2.0828,-2.1162,-2.1523,-2.1857,-2.2124,-2.2392,0.0,0.0,0.0,0.0,0.0,0.0,0.0,-2.2392,-2.2044,-2.1443,-2.1563,-2.163,-2.159,-2.175,-2.2124,-2.2712,0.0,0.0,0.0,0.0,0.0,0.0,0.0,0.0,0.0,0.0,0.0,-2.803,0.0,0.0,0.0,-3.0942,0.0,0.0,-3.3293,-3.3641,0.0,0.0,0.0,-3.4082,-3.4215,-3.3908,0.0,0.0,-3.2679,-3.2612,-3.2024,-3.1877,-3.1944,-3.2064,-3.2412,-3.2919,-3.3748,0.0,0.0,-3.5899,-3.6393,-3.6834,-3.7275,-3.7595,-3.7929,-3.829,-3.8437,-3.8731,-3.9306,-3.9159,-3.9052,-3.9306,-3.9199,-3.9052,-3.8905,0.0,0.0,0.0,-3.9012,-3.9052,-3.8905,-3.9052,-3.9306,-3.9599,-4.004,-4.0361,-4.0481,-4.0481,-4.0481,-4.0481,-4.0481,-4.0481,-4.0481,-4.0481,-4.0481,-4.0481,-4.0588,-4.0802,-4.1096,-4.1416,-4.171,-4.1964,-4.1964,-4.2071,-4.2218,-4.2218,-4.2218,-4.2218,-4.2218,-4.2218,-4.2218,0.0,0.0,-2.1189,-2.1283,-2.1977,-2.2539,-2.2605,-2.3126,-2.3621,0.0,0.0,0.0,0.0,0.0,0.0,0.0,-2.3527,-2.3273,-2.2699,-2.2699,-2.2819,-2.3046,-2.3033,-2.33,-2.3901,-2.4168,-2.4583,0.0,0.0,0.0,0.0,0.0,0.0,0.0,-2.7602,-2.7802,-2.8003,-2.9619,0.0,-3.0261,-3.137,-3.1971,0.0,0.0,-3.4028,-3.3641,-3.4215,-3.4416,-3.4456,-3.4683,-3.4763,0.0,0.0,0.0,-3.3,-3.2345,-3.2011,-3.1904,-3.2104,-3.2559,-3.3053,-3.336,-3.4282,0.0,-3.5805,-3.638,-3.6901,-3.7195,-3.7489,-3.7702,-3.7742,-3.7996,-3.837,-3.8972,-3.8838,-3.8905,-3.9519,-3.9559,-3.9452,-3.9225,0.0,0.0,-3.9225,-3.9452,-3.9493,-3.9225,-3.9199,-3.9306,-3.9599,-3.988,-4.0147,-4.0401,-4.0468,-4.0481,-4.0481,-4.0481,-4.0481,-4.0481,-4.0481,-4.0481,-4.0481,-4.0762,-4.1056,-4.135,-4.167,-4.1964,-4.2218,-4.2218,-4.2218,-4.2218,-4.2218,-4.2218,-4.2218,-4.2218,-4.2218,-4.2218,-2.1256,-2.139,-2.1683,-2.2392,-2.2873,-2.3313,-2.3781,-2.4356,-2.4756,0.0,0.0,0.0,0.0,0.0,0.0,0.0,0.0,-2.4583,-2.4222,-2.4422,-2.4476,-2.4302,-2.4062,-2.4222,-2.481,-2.4877,-2.5197,-2.5785,0.0,0.0,0.0,0.0,0.0,0.0,0.0,-2.8457,-2.9179,0.0,0.0,-3.1744,-3.2438,0.0,-3.2946,-3.4202,-3.4603,-3.4549,-3.4897,-3.503,-3.5004,-3.483,-3.4763,-3.4656,0.0,0.0,0.0,-3.2772,-3.2746,-3.2986,-3.2572,-3.2719,-3.3053,-3.3347,-3.3961,0.0,-3.4937,-3.5471,-3.6032,-3.658,-3.6727,-3.6901,-3.7382,-3.7529,-3.7742,-3.833,-3.8397,-3.8651,-3.9493,-3.9386,-3.9306,-3.9493,0.0,0.0,-3.9519,-3.9559,-3.9559,-3.9519,-3.9519,-3.9533,-3.9599,-3.988,-4.0067,-4.0107,-4.0361,-4.0481,-4.0481,-4.0481,-4.0481,-4.0481,-4.0481,-4.0481,-4.0481,-4.0762,-4.1056,-4.135,-4.167,-4.1964,-4.2218,-4.2218,-4.2218,-4.2218,-4.2218,-4.2218,-4.2218,-4.2218,-4.2218,-4.2218,-2.1523,-2.179,-2.2218,-2.2966,-2.346,-2.4008,-2.4743,-2.5104,0.0,0.0,0.0,0.0,0.0,0.0,0.0,0.0,0.0,0.0,-2.5531,-2.5651,-2.5665,-2.5518,-2.5371,-2.5504,-2.5945,-2.5812,-2.5879,-2.6172,0.0,0.0,0.0,0.0,0.0,0.0,0.0,0.0,0.0,0.0,-3.0996,-3.1744,-3.2625,0.0,-3.3748,-3.4643,-3.4897,-3.4803,-3.5097,-3.5284,-3.5391,-3.5244,-3.5191,0.0,-3.4509,-3.4322,-3.4175,0.0,-3.3307,-3.332,-3.2879,-3.2973,-3.32,-3.32,-3.3761,0.0,0.0,-3.5431,-3.5979,-3.6433,-3.662,-3.6794,-3.7114,-3.7048,-3.7195,-3.7929,-3.7929,-3.8076,-3.8838,-3.9052,-3.9265,-3.9559,0.0,0.0,-3.9813,-3.996,-3.996,-3.9813,-3.968,-3.9666,-3.9813,-3.996,-4.0107,-4.0254,-4.0401,-4.0481,-4.0481,-4.0481,-4.0481,-4.0481,-4.0481,-4.0481,-4.0481,-4.0909,-4.1203,-4.1376,-4.1817,-4.2071,-4.2218,-4.2218,-4.2218,-4.2218,-4.2218,-4.2218,-4.2218,-4.2218,-4.2218,-4.2218,-2.1764,-2.2138,-2.2699,-2.33,-2.3941,-2.4649,-2.5478,-2.5692,0.0,0.0,0.0,0.0,0.0,0.0,0.0,0.0,0.0,0.0,0.0,-2.7068,-2.7068,-2.7068,-2.6854,-2.6841,-2.7068,-2.668,-2.6466,-2.6466,0.0,0.0,0.0,0.0,0.0,0.0,0.0,0.0,0.0,0.0,0.0,-3.1744,0.0,-3.3668,-3.4389,-3.503,-3.5137,-3.495,-3.5137,-3.5378,-3.5631,-3.5631,-3.5631,-3.5538,-3.5017,-3.4723,0.0,0.0,-3.3828,-3.3614,-3.332,-3.3414,-3.3534,-3.3293,-3.3828,-3.4523,0.0,0.0,0.0,-3.6206,-3.6473,-3.6687,-3.6687,-3.658,-3.6727,-3.7382,0.0,-3.7448,-3.7929,-3.8504,0.0,-3.9452,-3.9813,0.0,0.0,-4.0294,-4.0361,-4.0147,-3.9853,-3.9786,-4.0027,-4.0067,-4.0214,-4.0401,-4.0508,-4.0548,-4.0481,-4.0481,-4.0481,-4.0481,-4.0481,-4.0481,-4.0508,-4.1082,-4.1336,-4.1376,-4.1964,-4.2218,-4.2218,-4.2218,-4.2218,-4.2218,-4.2218,-4.2218,-4.2218,-4.2218,-4.2218,-4.2218,-2.2525,-2.2592,-2.3006,-2.3621,-2.4422,-2.5184,-2.5812,-2.6346,0.0,0.0,0.0,0.0,0.0,0.0,0.0,0.0,0.0,0.0,-2.9513,0.0,-2.9513,-2.9513,-2.8511,-2.7963,-2.7989,-2.7188,-2.6774,-2.6774,-2.648,0.0,0.0,0.0,0.0,0.0,-2.99,0.0,0.0,0.0,-3.2933,0.0,-3.3895,-3.4229,0.0,-3.5257,-3.5565,-3.5498,-3.5271,-3.5378,-3.5631,0.0,-3.5631,-3.5578,0.0,-3.5297,-3.5324,-3.4509,-3.4429,-3.4549,-3.4242,-3.4189,-3.4202,-3.4175,-3.4442,-3.4736,-3.479,0.0,-3.5311,-3.5338,0.0,-3.5778,-3.5778,0.0,0.0,-3.6299,-3.6687,-3.7008,-3.7088,-3.7595,-3.829,-3.9118,-3.9706,0.0,0.0,-4.0294,-4.0468,-4.0441,-4.0147,-4.0,-4.0027,-4.0294,-4.0321,-4.0107,-4.0588,-4.0735,-4.0481,-4.0481,-4.0481,-4.0481,-4.0481,-4.0481,-4.0508,-4.1082,-4.1336,-4.1376,-4.1964,-4.2218,-4.2218,-4.2218,-4.2218,-4.2218,-4.2218,-4.2218,-4.2218,-4.2218,-4.2218,-4.2218,-2.3647,-2.3834,-2.4396,-2.5157,-2.5732,-2.6346,-2.7108,-2.7589,0.0,0.0,0.0,0.0,0.0,0.0,0.0,0.0,0.0,-3.0795,0.0,0.0,-3.0381,-2.97,-2.9018,-2.8497,-2.815,-2.7602,-2.7335,-2.7335,-2.7201,-2.7362,0.0,0.0,0.0,0.0,-3.0742,0.0,-3.1717,0.0,-3.3774,0.0,0.0,0.0,0.0,-3.5364,-3.5485,-3.5685,-3.6072,-3.6179,-3.6139,0.0,-3.6139,0.0,0.0,0.0,0.0,-3.5231,-3.5164,-3.5164,-3.4696,-3.483,-3.5004,-3.4656,-3.5057,-3.5391,-3.487,-3.499,-3.5097,-3.4763,0.0,0.0,0.0,0.0,0.0,0.0,-3.6794,-3.6941,-3.6941,-3.7595,-3.8223,-3.8584,0.0,0.0,0.0,0.0,0.0,0.0,0.0,-4.0107,-4.0294,-4.0401,-4.0508,-4.0548,-4.0949,-4.1016,-4.0735,-4.0735,-4.0655,-4.0481,-4.0481,-4.0481,-4.0508,-4.1082,-4.1336,-4.1376,-4.1964,-4.2218,-4.2218,-4.2218,-4.2218,-4.2218,-4.2218,-4.2218,-4.2218,-4.2218,-4.2218,-4.2218,-2.5197,-2.5197,-2.5545,-2.6266,-2.6694,-2.7241,-2.8136,-2.8738,0.0,0.0,0.0,0.0,-3.1423,-3.1877,0.0,0.0,-3.2104,-3.2104,0.0,0.0,-3.1356,-3.0595,-2.982,0.0,-2.8871,-2.827,-2.7949,-2.7949,-2.7949,-2.8096,0.0,0.0,0.0,0.0,0.0,-3.1904,-3.2385,0.0,-3.4255,-3.4683,-3.5137,-3.5672,-3.6139,-3.5712,-3.5778,-3.6179,-3.6754,-3.6861,-3.6754,-3.6754,-3.6754,0.0,-3.6513,0.0,-3.6246,-3.5952,-3.5805,-3.5658,-3.5231,0.0,0.0,0.0,0.0,0.0,0.0,-3.5217,-3.5271,-3.4683,-3.503,0.0,0.0,0.0,-3.6299,-3.6647,0.0,-3.6901,-3.6834,-3.7529,-3.8036,-3.8116,0.0,0.0,0.0,0.0,0.0,0.0,0.0,0.0,-4.0361,-4.0508,-4.0655,-4.0802,-4.1163,-4.1229,-4.1016,-4.0949,-4.0802,-4.0588,-4.0508,-4.0481,-4.0508,-4.1082,-4.1336,-4.1376,-4.1964,-4.2218,-4.2218,-4.2218,-4.2218,-4.2218,-4.2218,-4.2218,-4.2218,-4.2218,-4.2218,-4.2218,-2.7281,-2.6493,-2.6026,-2.6333,-2.6867,-2.7562,-2.8457,-2.9566,0.0,0.0,0.0,0.0,0.0,0.0,0.0,0.0,0.0,-3.3801,-3.3788,0.0,-3.3026,-3.328,-3.1383,-3.0434,0.0,-2.9312,-2.8577,-2.8577,-2.8577,-2.8724,-2.9018,-2.9312,-2.9472,-2.9579,-3.1022,-3.1677,-3.181,-3.3561,-3.4322,-3.4402,-3.5271,-3.5965,-3.65,0.0,-3.6834,-3.7301,-3.7048,0.0,0.0,-3.7342,-3.7342,0.0,0.0,0.0,0.0,0.0,0.0,0.0,0.0,0.0,0.0,-3.5965,0.0,0.0,0.0,0.0,-3.5885,-3.5284,-3.5631,-3.5952,-3.5685,-3.6099,-3.6393,-3.6139,-3.658,0.0,0.0,-3.7021,-3.7529,-3.7782,-3.8611,0.0,0.0,0.0,0.0,0.0,0.0,0.0,-4.0067,-4.0575,-4.0762,-4.0508,-4.1056,-4.1336,-4.1336,-4.1056,-4.0909,-4.0909,-4.0615,-4.0481,-4.0508,-4.1082,-4.1336,-4.1376,-4.1964,-4.2218,-4.2218,-4.2218,-4.2218,-4.2218,-4.2218,-4.2218,-4.2218,-4.2218,-4.2218,-4.2218,-2.6032,-2.7161,-2.7963,-2.7869,-2.8337,-2.8965,-2.9659,-3.0261,0.0,0.0,0.0,0.0,0.0,-3.3227,-3.3414,0.0,0.0,-3.3801,-3.3587,-3.3374,0.0,0.0,0.0,-3.1076,0.0,-3.0127,-2.9379,-2.9192,-2.9379,-2.9432,-2.9339,-2.9833,-3.006,-3.014,-3.1797,-3.2759,0.0,0.0,0.0,0.0,0.0,-3.6433,-3.6794,0.0,0.0,-3.7088,-3.7195,-3.7301,0.0,-3.7382,-3.7529,-3.7676,-3.7676,-3.7595,-3.7448,-3.7168,-3.7021,0.0,0.0,0.0,-3.6981,-3.6473,0.0,0.0,0.0,0.0,-3.5845,-3.507,-3.507,-3.5297,-3.5578,-3.5952,-3.6313,-3.6607,-3.6794,-3.6981,0.0,-3.7422,-3.7702,-3.7809,-3.8076,-3.8437,0.0,0.0,0.0,0.0,0.0,0.0,0.0,-4.0508,-4.0588,-4.0481,-4.1243,-4.1456,-4.1056,-4.135,-4.131,-4.0909,-4.0802,-4.0655,-4.0508,-4.1082,-4.1336,-4.1376,-4.1964,-4.2218,-4.2218,-4.2218,-4.2218,-4.2218,-4.2218,-4.2218,-4.2218,-4.2218,-4.2218,-4.2218,-2.657,-2.8049,-2.9138,-2.8951,-2.9486,-3.0114,0.0,0.0,0.0,0.0,-3.2933,0.0,-3.3708,0.0,-3.3895,0.0,-3.4175,-3.4309,-3.4202,-3.3908,0.0,-3.4189,-3.2799,0.0,0.0,-3.1356,-3.0555,-3.0261,-3.014,-2.998,-2.9806,-3.0181,-3.0474,-3.0715,-3.1957,-3.3026,-3.3921,-3.4496,-3.5404,0.0,0.0,-3.6687,0.0,0.0,-3.7128,-3.7448,0.0,-3.7849,-3.7849,-3.7849,-3.7996,-3.8143,-3.8143,-3.8143,-3.8103,-3.7929,-3.7849,-3.7742,-3.7275,-3.7448,0.0,-3.7128,-3.7462,0.0,-3.662,0.0,-3.6353,-3.5672,-3.5538,-3.5712,-3.6299,-3.6393,-3.654,-3.7008,-3.7008,-3.7048,0.0,-3.7529,-3.7676,-3.7676,-3.7742,-3.8103,-3.8798,0.0,0.0,0.0,0.0,0.0,0.0,0.0,-4.0588,-4.0481,-4.1136,-4.139,-4.1229,-4.1497,-4.1497,-4.1203,-4.1016,-4.0802,-4.0655,-4.1122,-4.1336,-4.1376,-4.1964,-4.2218,-4.2218,-4.2218,-4.2218,-4.2218,-4.2218,-4.2218,-4.2218,-4.2218,-4.2218,-4.2218,-2.8328,-2.9189,-2.9579,-2.9593,-3.0274,0.0,0.0,0.0,-3.2692,0.0,-3.3547,-3.4015,-3.4295,-3.4589,-3.4763,-3.4763,-3.503,-3.5324,-3.5605,-3.4817,0.0,0.0,-3.4242,-3.3748,-3.4349,0.0,0.0,-3.169,-3.0822,-3.0394,-3.0354,-3.0408,-3.0728,-3.1289,-3.161,-3.2572,-3.3948,-3.3948,-3.4629,-3.5698,-3.5698,-3.6727,-3.8157,-3.7342,-3.7529,-3.833,-3.8584,-3.8691,-3.8691,-3.8691,-3.8718,-3.8718,-3.8718,-3.8731,-3.8758,-3.8758,-3.8758,-3.8691,-3.8397,-3.8103,-3.7889,-3.7849,0.0,0.0,0.0,0.0,-3.7315,-3.7008,-3.6941,-3.7114,-3.7662,-3.7342,-3.7048,-3.7315,-3.7128,-3.7048,-3.7315,-3.7382,-3.7382,-3.7382,-3.7635,-3.8143,-3.9012,-3.9118,0.0,0.0,0.0,-4.0655,0.0,0.0,-4.0762,-4.0468,-4.0762,-4.1163,-4.175,-4.1483,-4.1497,-4.179,-4.1203,-4.0909,-4.0909,-4.1203,-4.1336,-4.1376,-4.1964,-4.2218,-4.2218,-4.2218,-4.2218,-4.2218,-4.2218,-4.2218,-4.2218,-4.2218,-4.2218,-4.2218,-2.4202,-2.7928,-3.0849,0.0,-3.1289,-3.1543,0.0,0.0,0.0,0.0,-3.3975,-3.4242,-3.4309,-3.4589,-3.4763,-3.4763,-3.503,0.0,0.0,0.0,0.0,-3.5925,-3.4549,-3.4148,-3.495,-3.3307,-3.2291,-3.1984,-3.133,-3.0782,-3.0381,-3.1022,-3.153,-3.1904,-3.2639,-3.3668,-3.4857,-3.4857,-3.5538,-3.6607,-3.6607,-3.7275,0.0,0.0,-3.821,-3.8544,-3.8183,-3.8183,-3.837,-3.837,-3.8544,-3.8718,-3.8718,-3.8865,-3.9052,-3.9052,-3.9199,-3.9306,-3.9012,-3.9012,-3.9052,-3.8611,-3.8611,-3.8571,0.0,0.0,0.0,0.0,0.0,0.0,0.0,-3.7235,-3.7235,-3.7088,-3.7168,-3.7235,-3.7088,-3.7235,0.0,-3.7382,0.0,0.0,0.0,0.0,0.0,0.0,0.0,0.0,-4.0361,0.0,0.0,-4.0174,-4.0655,-4.0976,-4.1122,-4.1497,-4.171,-4.179,-4.1416,-4.1122,-4.0909,-4.1203,-4.1336,-4.1376,-4.1964,-4.2218,-4.2218,-4.2218,-4.2218,-4.2218,-4.2218,-4.2218,-4.2218,-4.2218,-4.2218,-4.2218,-2.4451,0.0,0.0,-3.1824,0.0,0.0,-3.2483,0.0,0.0,-3.4402,-3.4603,0.0,-3.5057,-3.5124,-3.5191,-3.5324,-3.5485,0.0,-3.5992,0.0,0.0,-3.6233,-3.5351,-3.507,-3.5565,-3.4469,0.0,-3.2879,-3.2425,-3.1824,-3.1142,-3.1757,-3.2211,-3.2505,-3.3133,-3.4002,-3.503,-3.5418,-3.6099,-3.6941,-3.7088,0.0,0.0,-3.8504,-3.8731,-3.9012,-3.8437,-3.833,-3.8477,-3.8477,-3.8584,-3.8718,-3.8718,-3.8931,-3.9185,-3.9306,-3.9559,-3.9746,-3.9599,-3.9666,-3.9666,-3.9239,-3.9239,-3.9225,-3.8758,-3.8504,-3.8357,0.0,0.0,-3.7635,0.0,0.0,-3.7676,-3.7382,-3.7448,-3.7529,0.0,0.0,0.0,0.0,-3.7676,0.0,0.0,0.0,0.0,0.0,0.0,0.0,0.0,0.0,-4.0615,-4.0428,-4.0615,-4.0842,-4.1096,-4.1416,-4.171,-4.1964,-4.1563,-4.1269,-4.1096,-4.1269,-4.1336,-4.1376,-4.1964,-4.2218,-4.2218,-4.2218,-4.2218,-4.2218,-4.2218,-4.2218,-4.2218,-4.2218,-4.2218,-4.2218,-2.581,0.0,0.0,0.0,0.0,0.0,0.0,-3.2814,0.0,-3.5177,0.0,-3.5006,-3.5952,-3.5859,-3.5859,-3.6166,0.0,-3.6366,-3.6647,-3.6166,-3.6072,-3.654,-3.6286,-3.6126,-3.6126,-3.5805,-3.511,0.0,-3.3761,-3.316,-3.2278,-3.2625,-3.2906,-3.3173,-3.3454,-3.4108,-3.5044,-3.5885,-3.658,-3.7128,-3.7448,-3.821,-3.9199,-3.8905,-3.9118,-3.9533,-3.8945,-3.8718,-3.8718,-3.8718,-3.8718,-3.8718,-3.8718,-3.8931,-3.9199,-3.9452,-3.9773,-4.0027,-4.0027,-4.0067,-4.0027,-3.9786,-3.968,-3.9599,-3.9332,-3.9225,-3.9225,-3.9225,-3.8798,-3.8664,0.0,0.0,-3.825,-3.8036,-3.7889,0.0,0.0,0.0,0.0,0.0,0.0,0.0,0.0,0.0,0.0,0.0,0.0,0.0,0.0,0.0,-4.0615,-4.0842,-4.0615,0.0,-4.1269,0.0,-4.163,-4.2151,-4.163,-4.1376,-4.1336,-4.1376,-4.1376,-4.1376,-4.1964,-4.2218,-4.2218,-4.2218,-4.2218,-4.2218,-4.2218,-4.2218,-4.2218,-4.2218,-4.2218,-4.2218,0.0,0.0,0.0,0.0,0.0,-2.6928,-2.7335,-2.7739,-2.9743,-3.4846,-3.3374,-3.297,-3.5471,-3.6099,-3.6473,-3.6754,-3.7021,0.0,0.0,0.0,0.0,-3.6861,-3.658,-3.6433,-3.6433,-3.5899,-3.5418,0.0,0.0,-3.4068,-3.3187,-3.3748,-3.4042,-3.4095,-3.4389,-3.5151,-3.6246,-3.6874,0.0,-3.8036,-3.8357,-3.8905,-3.9493,-3.9199,-3.9306,-3.9533,-3.8945,-3.8718,-3.8718,-3.8718,-3.8718,-3.8718,-3.8718,-3.8931,-3.9159,-3.9225,-3.9599,-4.0027,-4.0027,-4.0214,-4.0401,-4.0334,-4.0147,-3.996,-3.9893,-3.9706,-3.9519,-3.9519,-3.9452,-3.9346,-3.9265,0.0,0.0,0.0,0.0,0.0,0.0,0.0,0.0,0.0,0.0,0.0,0.0,0.0,0.0,0.0,0.0,0.0,0.0,0.0,-4.0762,0.0,-4.0508,0.0,0.0,0.0,-4.1523,-4.1857,-4.175,-4.1563,-4.1336,-4.1603,-4.1563,-4.1376,-4.1964,-4.2218,-4.2218,-4.2218,-4.2218,-4.2218,-4.2218,-4.2218,-4.2218,-4.2218,-4.2218,-4.2218,0.0,0.0,0.0,0.0,0.0,0.0,0.0,-2.4338,0.0,-3.2543,-3.1229,-3.1217,-3.6075,-3.5348,-3.5405,-3.7171,-3.7529,-3.7676,-3.7809,-3.7676,-3.7529,-3.7408,-3.7128,-3.6941,-3.6941,-3.654,-3.6019,-3.5418,0.0,-3.5137,-3.4122,-3.4723,-3.5004,-3.5017,-3.5311,-3.5925,-3.6754,0.0,0.0,-3.829,-3.8945,-3.9346,-3.9599,-3.9599,-3.9599,-3.9533,-3.9118,-3.8865,-3.8718,-3.8718,-3.8718,-3.8718,-3.8718,-3.8825,-3.8972,-3.9118,-3.9346,-3.9599,-3.9773,-3.992,-4.0067,-4.0214,-4.0147,-4.0067,-4.0214,-4.0147,-4.004,-4.004,-3.9933,-3.9773,-3.9626,-3.9493,0.0,0.0,0.0,0.0,0.0,0.0,-3.8691,0.0,0.0,0.0,0.0,0.0,0.0,0.0,0.0,0.0,0.0,0.0,-4.0695,0.0,0.0,0.0,0.0,0.0,0.0,-4.179,-4.179,-4.171,-4.1563,-4.171,-4.171,-4.1603,-4.2031,-4.2218,-4.2218,-4.2218,-4.2218,-4.2218,-4.2218,-4.2218,-4.2218,-4.2218,-4.2218,-4.2218,0.0,-2.2552,0.0,0.0,-2.2694,0.0,-2.502,-2.1544,-2.1559,-2.9877,-2.8561,-2.9091,-3.5822,-3.4362,-3.4281,-3.7662,-3.7929,-3.7929,-3.7996,-3.7996,-3.7969,-3.7929,-3.7676,-3.7529,-3.7489,-3.7235,-3.6727,0.0,0.0,0.0,0.0,-3.5418,-3.5725,-3.5738,0.0,0.0,0.0,0.0,-3.7929,-3.8624,-3.9306,-3.964,-3.9706,-3.996,-3.9893,-3.964,-3.9306,-3.9012,-3.8798,-3.8758,-3.8718,-3.8718,-3.8718,-3.8718,-3.8758,-3.9012,-3.9118,-3.9199,-3.9452,-3.9559,-3.9666,-3.9893,-3.992,-4.0,-4.0227,-4.0334,-4.0361,-4.0361,-4.0254,-4.0147,-4.0147,-4.0147,0.0,0.0,0.0,0.0,0.0,0.0,0.0,0.0,0.0,0.0,0.0,0.0,0.0,0.0,0.0,0.0,-4.0695,0.0,0.0,0.0,0.0,-4.0842,-4.0909,0.0,-4.1483,0.0,-4.1857,-4.1857,-4.179,-4.1857,-4.1857,-4.179,-4.2111,-4.2218,-4.2218,-4.2218,-4.2218,-4.2218,-4.2218,-4.2218,-4.2218,-4.2218,-4.2218,-4.2218,0.0,0.0,0.0,0.0,0.0,0.0,-1.9247,-1.9111,-2.1399,-2.7668,-2.5672,-2.6205,-3.2849,-3.3164,-3.4387,-3.7928,-3.8223,-3.833,-3.8611,-3.8651,-3.8504,-3.8223,-3.8183,-3.8036,-3.7782,-3.7742,-3.7448,0.0,0.0,-3.6433,0.0,-3.5631,-3.6032,0.0,0.0,0.0,0.0,-3.8157,-3.8691,-3.9493,-3.9559,-3.9746,-4.0,-4.0027,-4.0027,-3.992,-3.9372,-3.9159,-3.9078,-3.8798,-3.8718,-3.8718,-3.8718,-3.8718,-3.8718,-3.8758,-3.8945,-3.9159,-3.9199,-3.9386,-3.9599,-3.964,-3.964,-3.964,-3.968,-3.9893,-4.0067,-4.0067,-4.0254,-4.0441,-4.0441,-4.0441,-4.0401,0.0,0.0,0.0,0.0,0.0,-3.9599,-3.9559,0.0,0.0,0.0,0.0,0.0,0.0,-3.9893,0.0,0.0,0.0,0.0,-4.0508,-4.0508,-4.0655,-4.0909,-4.1203,0.0,-4.179,-4.2044,-4.2044,-4.179,-4.2071,-4.2031,-4.179,-4.2111,-4.2218,-4.2218,-4.2218,-4.2218,-4.2218,-4.2218,-4.2218,-4.2218,-4.2218,-4.2218,-4.2218,0.0,0.0,0.0,0.0,0.0,0.0,0.0,-1.9169,-2.0295,-2.2671,-2.1826,-2.3406,-2.9859,-2.8753,-2.9089,-3.2578,-3.4483,-3.5697,-3.5833,-3.7529,-3.8651,-3.8544,-3.837,-3.829,-3.8357,-3.7996,-3.7702,0.0,0.0,0.0,0.0,0.0,0.0,0.0,0.0,-3.8223,-3.829,-3.8651,-3.9012,-3.9372,-3.9706,-3.992,-4.0027,-4.0027,-3.992,-3.9706,-3.9306,-3.9052,-3.8865,-3.8758,-3.8718,-3.8718,-3.8718,-3.8718,-3.8718,-3.8718,-3.8798,-3.8905,-3.8905,-3.8985,-3.9118,-3.9306,-3.9346,-3.9372,-3.9559,-3.9813,-4.0027,-4.0027,-4.0254,-4.0481,-4.0481,-4.0481,-4.0361,0.0,0.0,0.0,0.0,0.0,0.0,-4.0107,0.0,-4.0428,0.0,0.0,0.0,0.0,0.0,0.0,0.0,0.0,0.0,-4.0735,0.0,-4.0976,-4.0909,-4.1376,-4.167,-4.179,-4.2071,-4.2151,-4.2044,-4.2365,-4.2405,-4.2298,-4.2258,-4.2218,-4.2218,-4.2218,-4.2218,-4.2218,-4.2218,-4.2218,-4.2218,-4.2218,-4.2218,-4.2218,-1.8918,0.0,-1.9115,0.0,-1.9203,-1.9345,-1.9345,-1.9468,-1.961,-1.9766,-1.9657,-2.1466,-2.6903,-2.5511,-2.5564,-2.895,-3.2029,-3.3923,-3.3923,-3.7025,-3.8718,-3.8718,-3.8504,0.0,-3.8718,-3.8397,-3.817,-3.8076,-3.7956,0.0,0.0,-3.7048,0.0,0.0,-3.8584,-3.8758,-3.8691,-3.9118,-3.9332,-3.9452,-3.9853,-4.0067,-4.0174,-4.0174,-4.0,-3.968,-3.9372,-3.9092,-3.8838,-3.8758,-3.8718,-3.8718,-3.8718,-3.8718,-3.8718,-3.8718,-3.8718,-3.8758,-3.8838,-3.8865,-3.8905,-3.9225,-3.9306,-3.9346,-3.9559,-3.9813,-4.0067,-4.0147,-4.0401,-4.0588,-4.0481,-4.0481,-4.0334,-3.9933,0.0,0.0,0.0,-4.0147,-4.0401,-4.0588,-4.0802,-4.0802,-4.0575,-4.0655,0.0,0.0,0.0,0.0,0.0,0.0,0.0,0.0,0.0,0.0,0.0,-4.1497,-4.179,-4.179,-4.2071,-4.2218,-4.2218,-4.2445,-4.2592,-4.2659,-4.2338,-4.2218,-4.2218,-4.2218,-4.2218,-4.2218,-4.2218,-4.2218,-4.2218,-4.2218,-4.2218,-4.2218,-1.9359,-1.9427,-1.9379,-1.9217,-1.9447,-1.9664,-1.9664,-1.9786,-1.9922,-2.0085,-1.9963,-2.1067,-2.421,-2.4366,-2.5642,-2.892,-3.2029,-3.3923,-3.3923,-3.7025,-3.8718,0.0,0.0,-3.8718,-3.8718,-3.9012,-3.9012,-3.8718,0.0,0.0,-3.6941,-3.6941,-3.7408,-3.829,-3.8865,-3.9306,-3.9599,-3.9599,-3.9746,-4.0027,-4.0027,-4.0214,-4.0481,-4.0481,-4.0294,-4.0,-3.9706,-3.9412,-3.9118,-3.8825,-3.8718,-3.8718,-3.8718,-3.8718,-3.8718,-3.8718,-3.8718,-3.8798,-3.9078,-3.9159,-3.9225,-3.9519,-3.9599,-3.9599,-3.9599,-3.9813,-4.0107,-4.0401,-4.0695,-4.0802,-4.0508,-4.0481,-4.0481,-4.0481,0.0,0.0,-4.0441,-4.0214,-4.0254,-4.0842,-4.0909,-4.1122,-4.171,0.0,0.0,0.0,0.0,0.0,0.0,0.0,0.0,-4.0909,-4.0909,0.0,-4.0909,-4.1497,-4.179,-4.179,-4.2071,-4.2218,-4.2218,-4.2218,-4.2365,-4.2659,-4.2338,-4.2218,-4.2218,-4.2218,-4.2218,-4.2218,-4.2218,-4.2218,-4.2218,-4.2218,-4.2218,-4.2218,-1.9712,-1.9732,-1.9712,-1.9664,-1.9732,-1.9841,-1.9942,-1.9997,-2.0085,-2.0241,-2.0031,-2.0394,-2.1472,-2.121,-2.1518,0.0,-2.5626,-2.8464,0.0,-3.37,-3.6325,-3.8718,-3.8718,-3.8718,-3.8718,-3.8825,-3.8825,-3.8718,0.0,0.0,0.0,-3.8464,-3.8718,-3.9199,-3.9786,-3.9893,-3.9599,-3.9813,-3.996,-4.0027,-4.0027,-4.0214,-4.0441,-4.0254,-4.0,-3.9706,-3.9412,-3.9225,-3.9159,-3.9052,-3.9159,-3.9306,-3.9306,-3.9199,-3.9052,-3.9265,-3.9306,-3.9346,-3.9412,-3.9452,-3.9493,-3.9559,-3.9599,-3.9599,-3.9599,-3.9813,-4.0107,-4.0401,-4.0548,-4.0588,-4.0481,-4.0481,-4.0401,-4.0214,-4.0254,0.0,-3.9933,-4.0147,-4.0334,-4.0321,-4.0655,-4.0909,0.0,-4.0989,0.0,0.0,0.0,0.0,0.0,0.0,0.0,0.0,-4.1096,0.0,-4.0909,-4.167,-4.1964,-4.179,-4.2071,-4.2432,-4.2806,-4.2405,-4.2472,-4.2913,-4.2432,-4.2218,-4.2218,-4.2218,-4.2218,-4.2218,-4.2218,-4.2218,-4.2218,-4.2218,-4.2218,-4.2218,-2.0031,-1.9997,-1.9963,-1.9963,-1.9963,-2.001,-2.0173,-2.0187,-2.0241,-2.0383,-2.0187,-2.0064,-2.0098,-1.9942,0.0,-1.9678,-2.2522,-2.5146,-2.7273,-3.0374,-3.2995,-3.5143,-3.5119,-3.5119,-3.5119,0.0,0.0,-3.5289,-3.5374,-3.6018,-3.7377,-3.7466,-3.8358,-3.9786,-4.0254,-4.0214,-3.9786,-4.0067,-4.0147,-4.0027,-4.0147,-4.0321,-4.0441,-4.0254,-4.008,-3.9893,-3.9599,-3.9479,-3.9479,-3.9372,-3.9452,-3.964,-3.9746,-3.964,-3.9493,-3.9559,-3.9599,-3.964,-3.9746,-3.9773,-3.9786,-3.9893,-3.9933,-3.9933,-3.9933,-4.0147,-4.0401,-4.0468,-4.0548,-4.0655,-4.0655,-4.0655,-4.0615,-4.0548,-4.0588,-4.0508,-4.0147,-4.0334,-4.0401,-4.0214,0.0,0.0,0.0,-4.0909,0.0,0.0,0.0,0.0,0.0,0.0,0.0,-4.1056,-4.1229,0.0,-4.1082,-4.1817,-4.2071,-4.179,-4.2071,-4.2512,-4.306,-4.2472,-4.2552,-4.306,-4.2472,-4.2218,-4.2218,-4.2218,-4.2218,-4.2218,-4.2218,-4.2218,-4.2218,-4.2218,-4.2218,-4.2218,-2.0309,-2.0207,0.0,0.0,-2.0119,0.0,-2.0329,-2.0349,-2.0404,-2.0539,-2.0438,-2.0315,-2.0173,-2.0139,-2.001,-1.9732,0.0,0.0,0.0,-2.732,-2.898,-2.9228,-2.9228,-2.9228,-2.9228,-2.942,-2.9511,-2.9511,-2.9714,-3.129,-3.4482,-3.4727,-3.6589,-3.9586,-4.0119,-4.0066,-4.0067,-4.0361,-4.0321,-4.0107,-4.0401,-4.0508,-4.0508,-4.0508,-4.0508,-4.0441,-4.0174,-4.004,-4.0,-3.9706,-3.964,-3.9706,-3.996,-4.0067,-4.0,-3.9746,-3.9666,-3.9706,-4.0,-4.0067,-4.0147,-4.0401,-4.0481,-4.0481,-4.0481,-4.0695,-4.0802,-4.0548,-4.0695,-4.0869,-4.0869,-4.0909,-4.0989,-4.1269,-4.1096,-4.0949,-4.0909,-4.0695,-4.0508,0.0,0.0,0.0,0.0,-4.1163,-4.131,0.0,0.0,0.0,0.0,0.0,-4.1016,-4.131,-4.1336,-4.1336,-4.1336,-4.1897,-4.2071,-4.1817,-4.2071,-4.2512,-4.306,-4.2472,-4.2552,-4.306,-4.2472,-4.2218,-4.2218,-4.2218,-4.2218,-4.2218,-4.2218,-4.2218,-4.2218,-4.2218,-4.2218,-4.2218,0.0,0.0,-2.0275,-2.0275,-2.0275,-2.0329,-2.0471,-2.0594,-2.0682,-2.0716,-2.0682,-2.0648,-2.0614,-2.0417,-2.0241,-2.0173,-2.0795,-2.2182,-2.462,-2.5573,-2.7026,-2.9431,-2.9431,-2.9431,-2.9431,-2.9572,-2.9521,-2.9511,-2.9562,-3.0238,-3.1332,-3.1384,-3.3239,-3.6626,-3.6687,-3.8176,-4.0361,-4.0441,-4.0441,-4.0401,-4.0695,-4.0802,-4.0842,-4.1056,-4.0869,-4.0481,-4.0401,-4.0214,-4.0027,-3.996,-4.008,-4.0294,-4.0361,-4.0361,-4.0361,-4.0294,-4.0254,-4.0294,-4.0361,-4.0361,-4.0401,-4.0468,-4.0481,-4.0481,-4.0481,-4.0508,-4.0548,-4.0481,-4.0548,-4.0588,-4.0588,-4.0762,-4.0949,-4.1016,-4.1122,-4.1163,-4.0949,-4.1056,-4.1056,0.0,-4.0869,-4.0909,-4.0909,-4.0976,-4.1096,0.0,0.0,0.0,0.0,-4.1016,-4.0949,-4.1016,-4.1229,-4.1336,-4.1336,-4.171,-4.1964,-4.2111,-4.2178,-4.2512,-4.306,-4.2472,-4.2552,-4.306,-4.2472,-4.2218,-4.2218,-4.2218,-4.2218,-4.2218,-4.2218,-4.2218,-4.2218,-4.2218,-4.2218,-4.2218,-2.0438,-2.0417,-2.0451,-2.0526,-2.0526,-2.058,-2.0736,-2.0824,-2.0878,-2.0878,-2.0878,-2.0845,-2.077,-2.0627,-2.0505,-2.0438,-2.0227,-2.0837,-2.2542,-2.2789,-2.3522,-2.5221,-2.5221,-2.5221,-2.5221,-2.5135,-2.5067,-2.532,-2.5406,-2.6273,-2.7962,-2.8158,-3.0791,-3.5662,-3.5791,-3.7582,-4.0869,-4.0869,-4.0869,-4.0869,-4.1056,-4.1096,-4.1122,-4.1122,-4.1016,-4.0842,-4.0588,-4.0468,-4.0401,-4.0294,-4.0334,-4.0481,-4.0481,-4.0481,-4.0481,-4.0481,-4.0481,-4.0481,-4.0481,-4.0481,-4.0481,-4.0481,-4.0481,-4.0481,-4.0481,-4.0481,-4.0481,-4.0481,-4.0481,-4.0508,-4.0655,-4.0802,-4.0989,-4.1269,-4.1456,-4.1497,-4.135,-4.1456,-4.1376,-4.0949,-4.1016,-4.1056,-4.0909,-4.0909,-4.0976,-4.1122,0.0,0.0,-4.0949,-4.1056,-4.1056,-4.0909,-4.1203,-4.1416,-4.1523,-4.1817,-4.2071,-4.2218,-4.2365,-4.2659,-4.3086,-4.2619,-4.2659,-4.306,-4.2472,-4.2218,-4.2218,-4.2218,-4.2218,-4.2218,-4.2218,-4.2218,-4.2218,-4.2218,-4.2218,-4.2218,-2.0505,-2.0539,-2.0614,-2.0716,-2.077,-2.0845,-2.0946,-2.098,-2.1001,-2.1001,-2.1001,-2.0946,-2.0824,-2.079,-2.0716,-2.0594,-2.0329,-2.0173,-2.0173,-2.0173,-2.0173,-2.0173,-2.0173,-2.0173,-2.0173,-2.0153,-2.0119,-2.0098,-2.0227,-2.1793,-2.4516,-2.4836,-2.8262,-3.4347,-3.5073,-3.7239,-4.0579,-4.1102,-4.1336,-4.1336,-4.1376,-4.1416,-4.1376,-4.1122,-4.1163,-4.1269,-4.0735,-4.0695,-4.0869,-4.0615,-4.0548,-4.0548,-4.0548,-4.0508,-4.0481,-4.0481,-4.0481,-4.0481,-4.0481,-4.0481,-4.0481,-4.0481,-4.0481,-4.0481,-4.0481,-4.0481,-4.0481,-4.0481,-4.0481,-4.0548,-4.0802,-4.0869,-4.1096,-4.1644,-4.175,-4.179,-4.1857,0.0,-4.167,-4.1163,-4.1269,-4.131,-4.1056,-4.1056,-4.1056,-4.1056,-4.0842,-4.0735,0.0,-4.1122,-4.1269,-4.0976,-4.1269,-4.1523,-4.179,-4.2071,-4.2218,-4.2218,-4.2512,-4.2806,-4.31,-4.2806,-4.2806,-4.306,-4.2472,-4.2218,-4.2218,-4.2218,-4.2218,-4.2218,-4.2218,-4.2218,-4.2218,-4.2218,-4.2218,-4.2218,-2.0363,-2.056,-2.0702,-2.0594,-2.079,-2.0933,-2.0824,-2.0912,-2.1001,-2.1001,-2.1001,-2.098,-2.0967,-2.0845,-2.0756,-2.0736,-2.058,-2.0471,-2.0471,-2.0471,-2.0471,-2.0471,-2.0471,-2.0471,-2.0471,-2.0349,-2.0227,-2.0098,-2.0119,-2.045,-2.1076,-2.1125,-2.3282,-2.7578,-3.0383,-3.3787,-3.7263,-4.0056,-4.1336,-4.1376,-4.1603,-4.171,-4.171,-4.167,-4.1523,-4.131,-4.0949,-4.0869,-4.0909,-4.0869,-4.0842,-4.0842,-4.0842,-4.0655,-4.0481,-4.0481,-4.0481,-4.0481,-4.0481,-4.0481,-4.0481,-4.0481,-4.0481,-4.0481,-4.0481,-4.0481,-4.0481,-4.0481,-4.0481,-4.0481,-4.0548,-4.0735,-4.1016,-4.135,-4.163,-4.1857,-4.2111,0.0,-4.2111,-4.2031,-4.1857,-4.171,-4.1644,-4.1644,-4.1644,-4.1644,-4.1817,-4.1857,-4.1603,-4.167,-4.1563,-4.1269,-4.1563,-4.175,-4.179,-4.2071,-4.2218,-4.2218,-4.2512,-4.2806,-4.31,-4.2806,-4.2806,-4.306,-4.2472,-4.2218,-4.2218,-4.2218,-4.2218,-4.2218,-4.2218,-4.2218,-4.2218,-4.2218,-4.2218,-4.2218,-2.0438,-2.056,-2.0648,-2.0668,-2.079,-2.0878,-2.0892,-2.0946,-2.1001,-2.1001,-2.1001,-2.1001,-2.1001,-2.0858,-2.077,-2.077,-2.0627,-2.0539,-2.0539,-2.0539,-2.0539,-2.0539,-2.0539,-2.0539,-2.0539,-2.0471,-2.0404,-2.0329,-2.0329,-2.0383,-2.0451,-2.0526,-2.2404,-2.6092,-2.7795,-3.0476,-3.3907,-3.7613,-3.8961,-3.9226,-4.1012,-4.179,-4.175,-4.1416,-4.1229,-4.1056,-4.0762,-4.0695,-4.0695,-4.0695,-4.0695,-4.0695,-4.0695,-4.0588,-4.0481,-4.0481,-4.0481,-4.0481,-4.0481,-4.0481,-4.0481,-4.0481,-4.0481,-4.0481,-4.0481,-4.0481,-4.0481,-4.0481,-4.0481,-4.0481,-4.0481,-4.0588,-4.0762,-4.1056,-4.135,-4.1644,-4.1924,-4.2111,-4.2218,-4.2218,-4.2111,-4.2004,-4.2004,-4.1897,-4.179,-4.179,-4.175,-4.167,-4.1563,-4.171,-4.171,-4.1603,-4.171,-4.1857,-4.2004,-4.2151,-4.2298,-4.2472,-4.2766,-4.306,-4.3314,-4.3207,-4.3127,-4.306,-4.2659,-4.2365,-4.2218,-4.2218,-4.2218,-4.2218,-4.2218,-4.2218,-4.2218,-4.2218,-4.2218,-4.2218,-2.0485,-2.0539,-2.0614,-2.0702,-2.077,-2.0858,-2.0933,-2.0946,-2.0946,-2.0946,-2.0912,-2.0892,-2.0892,-2.079,-2.0716,-2.0716,-2.0614,-2.0539,-2.0539,-2.0539,-2.0539,-2.0539,-2.0539,-2.0539,-2.0539,-2.0539,-2.0539,-2.0539,-2.0539,-2.0539,-2.0539,-2.0668,-2.2266,-2.4892,-2.591,-2.788,-3.0554,-3.4334,-3.6232,-3.7257,-3.9629,-4.1077,-4.171,-4.1203,-4.0976,-4.0869,-4.0588,-4.0508,-4.0588,-4.0588,-4.0615,-4.0695,-4.0695,-4.0695,-4.0695,-4.0695,-4.0615,-4.0548,-4.0508,-4.0481,-4.0481,-4.0481,-4.0481,-4.0481,-4.0481,-4.0481,-4.0481,-4.0481,-4.0481,-4.0481,-4.0481,-4.0481,-4.0588,-4.0869,0.0,-4.135,-4.1644,-4.1884,-4.2031,-4.2111,-4.2111,-4.2151,-4.2218,-4.2004,-4.1897,-4.1897,-4.167,-4.1563,-4.1563,-4.175,-4.1897,-4.1897,-4.1897,-4.2004,-4.2218,-4.2218,-4.2365,-4.2659,-4.2953,-4.3233,-4.3527,-4.3527,-4.338,-4.31,-4.2779,-4.2485,-4.2218,-4.2218,-4.2218,-4.2218,-4.2218,-4.2218,-4.2218,-4.2218,-4.2218,-4.2218,-2.0349,-2.056,-2.0716,-2.0573,-2.079,-2.0946,-2.0811,-2.079,-2.079,-2.079,-2.0668,-2.0573,-2.0573,-2.056,-2.056,-2.056,-2.0539,-2.0539,-2.0539,-2.0539,-2.0539,-2.0539,-2.0539,-2.0539,-2.0539,-2.0539,-2.0539,-2.0539,-2.0539,-2.0539,-2.0539,-2.056,-2.0702,-2.1499,-2.483,-2.6561,-2.713,-3.0799,-3.4163,-3.7013,-3.7269,-3.9161,-4.175,-4.1416,-4.1122,-4.0869,-4.0588,-4.0655,-4.0869,-4.0869,-4.1056,-4.1269,-4.1269,-4.1269,-4.1269,-4.1269,-4.1096,-4.0802,-4.0548,-4.0481,-4.0481,-4.0481,-4.0481,-4.0481,-4.0481,-4.0481,-4.0481,-4.0481,-4.0481,-4.0481,-4.0481,-4.0481,-4.0588,-4.0869,0.0,0.0,-4.1336,-4.1376,-4.1523,-4.179,-4.1817,-4.1924,-4.2178,-4.2178,-4.2178,-4.2178,-4.2178,-4.2151,-4.2151,-4.2178,-4.2178,-4.2178,-4.2178,-4.2178,-4.2218,-4.2218,-4.2365,-4.2659,-4.2953,-4.3233,-4.3527,-4.3527,-4.338,-4.31,-4.2779,-4.2485,-4.2218,-4.2218,-4.2218,-4.2218,-4.2218,-4.2218,-4.2218,-4.2218,-4.2218,-4.2218,-2.0451,-2.056,-2.0614,-2.056,-2.0627,-2.0702,-2.0627,-2.0627,-2.0627,-2.0627,-2.0573,-2.0539,-2.0539,-2.0539,-2.0539,-2.0539,-2.0539,-2.0539,-2.0539,-2.0539,-2.0539,-2.0539,-2.0539,-2.0539,-2.0539,-2.0539,-2.0539,-2.0539,-2.0539,-2.0539,-2.0539,-2.0648,-2.0756,-2.0865,-2.2327,-2.3262,-2.3367,-2.7104,-2.9246,-3.0779,-3.5026,-3.7504,-3.8659,-4.0671,-4.1269,-4.1163,-4.1056,-4.1082,-4.1163,-4.1163,-4.1229,-4.1336,-4.1336,-4.1336,-4.1336,-4.1336,-4.1269,-4.1163,-4.1056,-4.0762,-4.0481,-4.0481,-4.0481,-4.0481,-4.0481,-4.0481,-4.0481,-4.0481,-4.0481,-4.0481,-4.0481,-4.0481,-4.0508,-4.0615,0.0,-4.0949,-4.1056,-4.1376,-4.167,-4.1777,-4.1937,-4.2111,-4.2218,-4.2218,-4.2218,-4.2218,-4.2218,-4.2218,-4.2218,-4.2218,-4.2218,-4.2218,-4.2218,-4.2218,-4.2218,-4.2405,-4.2619,-4.2953,-4.3233,-4.3527,-4.3821,-4.3821,-4.3567,-4.31,-4.298,-4.2659,-4.2218,-4.2218,-4.2218,-4.2218,-4.2218,-4.2218,-4.2218,-4.2218,-4.2218,-4.2218,-2.0539,-2.0539,-2.0539,-2.0539,-2.0539,-2.0539,-2.0539,-2.0539,-2.0539,-2.0539,-2.0539,-2.0539,-2.0539,-2.0539,-2.0539,-2.0539,-2.0539,-2.0539,-2.0539,-2.0539,-2.0539,-2.0539,-2.0539,-2.0539,-2.0539,-2.0539,-2.0539,-2.0539,-2.0539,-2.0539,-2.0539,-2.0702,-2.079,-2.0858,-2.1109,-2.1245,-2.1549,-2.4005,-2.5615,-2.6886,-3.1665,-3.4659,-3.6878,-3.9,-4.0409,-4.1336,-4.1336,-4.1336,-4.1336,-4.1336,-4.1416,-4.1483,-4.1483,-4.1563,-4.1603,-4.1523,-4.1416,-4.1336,-4.1336,-4.0976,-4.0615,-4.0615,-4.0548,-4.0481,-4.0481,-4.0481,-4.0481,-4.0481,-4.0481,-4.0481,-4.0481,-4.0481,-4.0481,-4.0481,-4.0655,-4.0762,-4.0762,-4.1122,-4.1456,-4.163,-4.1817,-4.2004,-4.2218,-4.2218,-4.2218,-4.2218,-4.2218,-4.2218,-4.2218,-4.2218,-4.2258,-4.2365,-4.2365,-4.2405,-4.2512,-4.2619,-4.2846,-4.3233,-4.342,-4.3714,-4.4008,-4.4008,-4.3714,-4.3233,-4.3127,-4.2806,-4.2365,-4.2258,-4.2218,-4.2218,-4.2218,-4.2218,-4.2218,-4.2218,-4.2218,-4.2218,-2.0539,-2.0539,-2.0539,-2.0539,-2.0539,-2.0539,-2.0539,-2.0539,-2.0539,-2.0539,-2.0539,-2.0539,-2.0539,-2.0539,-2.0539,-2.0539,-2.0539,-2.0539,-2.0539,-2.0539,-2.0539,-2.0539,-2.0539,-2.0539,-2.0539,-2.0539,-2.0539,-2.0539,-2.0539,-2.0539,-2.0539,-2.0702,-2.0858,-2.1001,-2.1143,-2.1299,-2.1441,-2.1441,-2.3274,-2.6641,-2.6649,-3.0662,-3.6625,-3.6625,-3.851,-4.1336,-4.1336,-4.1336,-4.1336,-4.1336,-4.1563,-4.179,-4.179,-4.2004,-4.2151,-4.1857,-4.1563,-4.1336,-4.1336,-4.1122,-4.0909,-4.0909,-4.0695,-4.0481,-4.0481,-4.0481,-4.0481,-4.0481,-4.0481,-4.0481,-4.0481,-4.0481,-4.0481,-4.0481,-4.0481,-4.0481,-4.0481,-4.0481,-4.0695,-4.1269,-4.1336,-4.1563,-4.2151,-4.2218,-4.2218,-4.2218,-4.2218,-4.2218,-4.2218,-4.2218,-4.2365,-4.2659,-4.2659,-4.2806,-4.31,-4.2806,-4.2953,-4.3527,-4.3527,-4.3714,-4.4008,-4.4008,-4.3821,-4.3527,-4.3233,-4.2953,-4.2632,-4.2325,-4.2218,-4.2218,-4.2218,-4.2218,-4.2218,-4.2218,-4.2218,-4.2218,-2.0539,-2.0539,-2.0539,-2.0539,-2.0539,-2.0539,-2.0539,-2.0539,-2.0539,-2.0539,-2.0539,-2.0573,-2.0682,-2.0702,-2.0756,-2.0858,-2.0858,-2.0858,-2.0858,-2.0967,-2.1014,-2.1014,-2.0716,-2.0539,-2.0539,-2.0539,-2.0539,-2.0539,-2.0539,-2.0594,-2.0702,-2.0756,-2.0858,-2.1001,-2.1143,-2.1231,-2.1285,-2.1387,-2.1951,-2.3259,-2.5615,-2.7905,-2.9914,-3.2252,-3.3755,-3.4714,-3.4714,-3.6257,-3.8338,-3.8338,-3.9946,-4.2071,-4.2071,-4.2151,-4.2218,-4.2111,-4.2031,-4.1964,-4.1964,-4.175,-4.1456,-4.1269,-4.1163,-4.1016,-4.0842,-4.0762,-4.0735,-4.0508,-4.0481,-4.0481,-4.0481,-4.0481,-4.0481,-4.0481,-4.0481,-4.0481,-4.0481,-4.0655,-4.0842,-4.1016,-4.1416,-4.171,-4.1897,-4.2111,-4.2218,-4.2218,-4.2218,-4.2298,-4.2512,-4.2512,-4.2659,-4.2953,-4.2953,-4.31,-4.338,-4.3314,-4.3354,-4.3527,-4.3754,-4.3901,-4.4008,-4.4008,-4.3821,-4.3527,-4.342,-4.3233,-4.2953,-4.2659,-4.2512,-4.2512,-4.2298,-4.2218,-4.2218,-4.2218,-4.2218,-4.2218,-2.0539,-2.0539,-2.0539,-2.0539,-2.0594,-2.0627,-2.0627,-2.0682,-2.0716,-2.0716,-2.0716,-2.0756,-2.0858,-2.0858,-2.0892,-2.1001,-2.1001,-2.1001,-2.1001,-2.1089,-2.1157,-2.1211,-2.0946,-2.0838,-2.0892,-2.0892,-2.0892,-2.0892,-2.0892,-2.0946,-2.1034,-2.1109,-2.1143,-2.1177,-2.1333,-2.1353,-2.1299,-2.1408,-2.1441,-2.1714,-2.3787,-2.5336,-2.6894,-2.8986,-3.0529,-3.1827,-3.1827,-3.312,-3.5204,-3.6488,-3.936,-4.2218,-4.2218,-4.2218,-4.2218,-4.2218,-4.2138,-4.2071,-4.2178,-4.2004,-4.1777,-4.171,-4.1523,-4.1269,-4.0976,-4.0909,-4.0842,-4.0548,-4.0481,-4.0481,-4.0481,-4.0481,-4.0481,-4.0481,-4.0481,-4.0508,-4.0615,-4.0802,-4.0989,-4.1243,-4.1563,-4.1897,-4.2111,-4.2178,-4.2258,-4.2405,-4.2512,-4.2659,-4.2806,-4.2846,-4.2953,-4.3247,-4.3273,-4.342,-4.3714,-4.3714,-4.3714,-4.3714,-4.3901,-4.4008,-4.4008,-4.4008,-4.3888,-4.3714,-4.3567,-4.342,-4.3233,-4.2953,-4.2846,-4.2806,-4.2512,-4.2405,-4.2365,-4.2258,-4.2218,-4.2218,-2.0573,-2.0573,-2.0573,-2.0573,-2.0702,-2.079,-2.079,-2.0912,-2.1001,-2.1001,-2.1001,-2.1001,-2.1021,-2.1021,-2.1021,-2.1034,-2.1034,-2.1034,-2.1034,-2.1055,-2.1123,-2.1265,-2.1285,-2.1367,-2.1509,-2.1475,-2.1441,-2.1441,-2.1441,-2.1441,-2.1455,-2.1584,-2.1584,-2.1475,-2.1597,-2.1597,-2.1455,-2.1475,-2.1475,-2.1475,-2.1475,-2.3303,-2.6166,-2.6166,-2.8247,-3.0857,-3.0857,-3.1108,-3.1887,-3.5507,-3.8583,-4.1419,-4.1711,-4.1685,-4.1698,-4.2205,-4.2031,-4.1897,-4.2151,-4.2031,-4.1897,-4.2151,-4.1817,-4.1336,-4.1056,-4.0989,-4.0909,-4.0615,-4.0548,-4.0508,-4.0508,-4.0508,-4.0508,-4.0508,-4.0548,-4.0655,-4.0909,-4.0949,-4.1163,-4.167,-4.1777,-4.2004,-4.2512,-4.2365,-4.2325,-4.2632,-4.2913,-4.31,-4.3127,-4.3127,-4.3273,-4.3567,-4.3567,-4.3714,-4.4008,-4.4008,-4.4008,-4.4008,-4.4008,-4.4008,-4.4008,-4.4008,-4.4008,-4.3995,-4.3714,-4.3567,-4.3567,-4.3247,-4.3127,-4.31,-4.2806,-4.2699,-4.2619,-4.2365,-4.2258,-4.2218,-2.0878,-2.0892,-2.0892,-2.0892,-2.0933,-2.0946,-2.0946,-2.098,-2.1001,-2.1001,-2.1001,-2.1034,-2.1157,-2.1157,-2.1211,-2.1333,-2.1353,-2.1353,-2.1353,-2.1462,-2.1584,-2.1726,-2.1848,-2.1984,-2.2147,-2.1686,-2.1441,-2.1441,-2.1441,-2.1496,-2.1618,-2.153,-2.153,-2.1618,-2.1652,-2.1652,-2.1638,-2.174,-2.1794,-2.1794,-2.1794,-2.2312,-2.2858,-2.2858,-2.3374,-2.4179,-2.4179,-2.5762,-2.8632,-3.214,-3.3538,-3.4432,-3.7269,-3.806,-3.8583,-4.1432,-4.2178,-4.2151,-4.2218,-4.2178,-4.2151,-4.2218,-4.2111,-4.1964,-4.167,-4.1603,-4.1523,-4.1203,-4.0976,-4.0802,-4.0802,-4.0802,-4.0802,-4.0802,-4.1016,-4.1163,-4.1229,-4.1229,-4.131,-4.1416,-4.1644,-4.1817,-4.1964,-4.2111,-4.2325,-4.2632,-4.2726,-4.2953,-4.342,-4.342,-4.3567,-4.3888,-4.3888,-4.3928,-4.4008,-4.4008,-4.4008,-4.4008,-4.4008,-4.4008,-4.4008,-4.4008,-4.4008,-4.4008,-4.3928,-4.3888,-4.3888,-4.3567,-4.342,-4.342,-4.3127,-4.2873,-4.2659,-4.2592,-4.2405,-4.2218,-2.098,-2.1001,-2.1001,-2.1001,-2.1055,-2.1109,-2.1109,-2.1157,-2.1211,-2.1211,-2.1211,-2.1245,-2.1319,-2.1319,-2.1353,-2.1441,-2.1441,-2.1441,-2.1441,-2.1509,-2.1638,-2.1774,-2.1916,-2.2079,-2.2235,-2.1984,-2.1862,-2.1862,-2.1862,-2.1916,-2.1991,-2.1896,-2.1882,-2.1882,-2.1882,-2.1848,-2.1774,-2.1848,-2.1882,-2.1882,-2.1882,-2.1882,-2.1882,-2.1882,-2.1882,-2.1882,-2.1882,-2.4008,-2.7458,-2.919,-3.0663,-3.2402,-3.4228,-3.5822,-3.7647,-3.9489,-4.1209,-4.2445,-4.2445,-4.2325,-4.2218,-4.2218,-4.2218,-4.2151,-4.1857,-4.179,-4.171,-4.1416,-4.135,-4.131,-4.131,-4.131,-4.131,-4.131,-4.1336,-4.1376,-4.1523,-4.1563,-4.1603,-4.1737,-4.1897,-4.2004,-4.2004,-4.2512,-4.2846,-4.2873,-4.314,-4.342,-4.3741,-4.3754,-4.3821,-4.4008,-4.4008,-4.4008,-4.4008,-4.4008,-4.4008,-4.4008,-4.4008,-4.4008,-4.4008,-4.4008,-4.4008,-4.4008,-4.4008,-4.4008,-4.4008,-4.3821,-4.3754,-4.3714,-4.342,-4.3207,-4.306,-4.2913,-4.2699,-4.2445,-2.1068,-2.1068,-2.1068,-2.1068,-2.1177,-2.1245,-2.1245,-2.1353,-2.1441,-2.1441,-2.1441,-2.1441,-2.1441,-2.1441,-2.1441,-2.1441,-2.1441,-2.1455,-2.1475,-2.1475,-2.1564,-2.174,-2.1862,-2.1991,-2.2147,-2.2269,-2.2337,-2.2337,-2.2337,-2.2337,-2.2337,-2.2337,-2.2269,-2.2147,-2.2147,-2.2079,-2.195,-2.195,-2.195,-2.195,-2.195,-2.195,-2.195,-2.195,-2.195,-2.195,-2.195,-2.3804,-2.6192,-2.6192,-2.8277,-3.0648,-3.1169,-3.3551,-3.6205,-3.7265,-3.9737,-4.1943,-4.2496,-4.2552,-4.2365,-4.2365,-4.2365,-4.2298,-4.2071,-4.1964,-4.1897,-4.167,-4.179,-4.1924,-4.1857,-4.1857,-4.1857,-4.179,-4.163,-4.1563,-4.1817,-4.1857,-4.1964,-4.2178,-4.2218,-4.2218,-4.2218,-4.2873,-4.3233,-4.31,-4.3567,-4.3888,-4.4008,-4.4008,-4.4008,-4.4008,-4.4008,-4.4008,-4.4008,-4.4008,-4.4008,-4.4008,-4.4008,-4.4008,-4.4008,-4.4008,-4.4008,-4.4008,-4.4008,-4.4008,-4.4008,-4.4008,-4.4008,-4.3968,-4.3714,-4.3567,-4.3487,-4.3207,-4.2953,-4.2739,-2.1353,-2.1387,-2.1387,-2.1387,-2.1408,-2.1408,-2.1408,-2.1421,-2.1441,-2.1441,-2.1441,-2.1441,-2.1441,-2.1441,-2.1441,-2.1441,-2.1441,-2.1496,-2.1638,-2.1638,-2.176,-2.2038,-2.2072,-2.2147,-2.2303,-2.2323,-2.2337,-2.2337,-2.2337,-2.2337,-2.2337,-2.2337,-2.2323,-2.2303,-2.2303,-2.2303,-2.2269,-2.2269,-2.2269,-2.2269,-2.2269,-2.2269,-2.2269,-2.2269,-2.2269,-2.2269,-2.2269,-2.2462,-2.2884,-2.2884,-2.3057,-2.3745,-2.6939,-2.8251,-2.985,-3.5942,-3.8026,-3.9056,-4.2245,-4.302,-4.298,-4.298,-4.298,-4.2953,-4.2913,-4.2726,-4.2592,-4.2806,-4.2699,-4.2472,-4.2218,-4.2151,-4.2071,-4.1817,-4.1964,-4.2111,-4.2151,-4.2151,-4.2178,-4.2218,-4.2218,-4.2218,-4.2218,-4.2325,-4.2579,-4.306,-4.3167,-4.3461,-4.3968,-4.4008,-4.4008,-4.4008,-4.4008,-4.4008,-4.4008,-4.4008,-4.4008,-4.4008,-4.4008,-4.4008,-4.4008,-4.4008,-4.4008,-4.4008,-4.4008,-4.4008,-4.4008,-4.4008,-4.4008,-4.4008,-4.3968,-4.3781,-4.3487,-4.3207,-4.306,-4.302,-2.1421,-2.1441,-2.1441,-2.1441,-2.1441,-2.1441,-2.1441,-2.1441,-2.1441,-2.1441,-2.1441,-2.1441,-2.1441,-2.1441,-2.1441,-2.1441,-2.1441,-2.1475,-2.153,-2.1618,-2.1726,-2.1862,-2.2025,-2.2147,-2.2215,-2.2303,-2.2337,-2.2337,-2.2337,-2.2337,-2.2337,-2.2337,-2.2337,-2.2337,-2.2337,-2.2337,-2.2337,-2.2337,-2.2337,-2.2337,-2.2337,-2.2337,-2.2337,-2.2337,-2.2337,-2.2337,-2.2337,-2.2303,-2.2235,-2.2235,-2.2201,-2.2414,-2.4033,-2.5893,-2.8035,-3.1259,-3.3566,-3.535,-3.6923,-3.8691,-4.0159,-4.0159,-4.1495,-4.3127,-4.3314,-4.3233,-4.3127,-4.31,-4.3127,-4.31,-4.298,-4.2953,-4.2846,-4.2552,-4.2472,-4.2405,-4.2258,-4.2218,-4.2218,-4.2218,-4.2218,-4.2218,-4.2218,-4.2365,-4.2659,-4.306,-4.3233,-4.3527,-4.3968,-4.4008,-4.4008,-4.4008,-4.4008,-4.4008,-4.4008,-4.4008,-4.4008,-4.4008,-4.4008,-4.4008,-4.4008,-4.4008,-4.4008,-4.4008,-4.4008,-4.4008,-4.4008,-4.4008,-4.4008,-4.4008,-4.4008,-4.3928,-4.3781,-4.3648,-4.3487,-4.334]}]]